     2              OBSERVATION DATA    GPS                 RINEX VERSION / TYPE
ASRINEXO V2.4.4 UX USGS 17-JAN-97 11:20                     PGM / RUN BY / DATE
                                                            COMMENT
Original Marker Name: law1 LAPW1_USGS                       COMMENT
Campaign Name: usgs.landers.pro                             COMMENT
4-Character Station Name: LAW1                              COMMENT
6-Character Antenna Code: ASHL12                            COMMENT
Vertical Measurement Point: BBE                             COMMENT
Vertical Offset to Rinex Ref. Point: 0.0595                 COMMENT
Radial Measurement Point: EGP                               COMMENT
Radial Offset to Rinex Ref. Point: 0.1424                   COMMENT
Antenna Height from Field Measurement: 1.2300 m             COMMENT
Additional Antenna Identification Info.:                    COMMENT
Original Ashtech L1/L2                                      COMMENT
Original XYZ: -2354297.2498 -4703866.2787 3596694.9497      COMMENT
New XYZ position is based on association with SCEC monument COMMENT
E1F2J6T9+0011. Position of that monument is believed to be  COMMENT
valid to within 1 m horizontally; vertical accuracy         COMMENT
should be no worse than 3-times this value.                 COMMENT
                                                            COMMENT
Revised Rinex header created by UCSD GPS archive for        COMMENT
GSAC on 11-Nov-1999 (1999:315) 00:38:22 GMT                 COMMENT
For assistance contact dagnew@ucsd.edu or hjohnson@ucsd.edu COMMENT
                                                            COMMENT
LAW1 LAPW1_USGS                                             MARKER NAME
CHS US GEOLOGICAL SURVEY                                    OBSERVER / AGENCY
597 ASHTECH Z-XII3 1E95                                     REC # / TYPE / VERS
598 ASHTECH GEODETIC L                                      ANT # / TYPE
 -2354302.0000 -4703862.0000  3596685.0000                  APPROX POSITION XYZ
        1.1622        0.0000        0.0000                  ANTENNA: DELTA H/E/N
     1     1     0                                          WAVELENGTH FACT L1/2
     5    C1    L1    L2    P1    P2                        # / TYPES OF OBSERV
    30                                                      INTERVAL
  1997     1    14     0    34    0.000000                  TIME OF FIRST OBS
  1997     1    14    23    58   60.000000                  TIME OF LAST OBS
                                                            END OF HEADER
 97  1 14  0 34  0.0000000  0  6 19  2 27 26  7 15
  24156310.012    24156326.403                                    24156313.7924
  21267002.984     -188730.44749   -138617.42649  21267002.4514   21267007.5754
  21203140.162       35750.36349     26119.76549  21203138.7724   21203144.4584
  22787307.631     -221488.38049   -162349.11749  22787307.2354   22787312.8604
  20463248.318     -301407.03549   -210880.23849  20463247.3294   20463253.6574
  23648531.630     -150023.38349   -111097.19949  23648531.7924   23648539.7974
 97  1 14  0 34 30.0000000  0  6 19  2 27 26  7 15
  24164371.576    24164370.884                                    24164386.6094
  21257548.945     -238412.69349   -177330.85549  21257548.2564   21257553.5004
  21204905.304       45028.60549     33349.53849  21204904.8504   21204910.1464
  22775872.695     -281580.72049   -209174.32549  22775873.0314   22775877.7464
  20448371.080     -379586.92749   -271799.61749  20448370.3084   20448376.3094
  23641103.887     -189059.40049   -141514.86649  23641104.0144   23641110.8914
 97  1 14  0 35  0.0000000  0  6 19  2 27 26  7 15
  24172377.581    24172375.792                                    24172375.4494
  21248025.163     -288460.86949   -216329.42649  21248024.3294   21248029.4404
  21206655.046       54224.52949     40515.20049  21206654.7684   21206659.8094
  22764440.758     -341656.00449   -255986.22049  22764441.1054   22764445.8234
  20433478.279     -457848.80749   -332782.88449  20433477.4884   20433483.6634
  23633686.036     -228041.48549   -171890.50249  23633685.7104   23633693.2744
 97  1 14  0 35 30.0000000  0  6 19  2 27 26  7 15
  24180330.907       85437.21959                  24180331.505    24180338.6494
  21238441.687     -338822.43349   -255572.19349  21238440.7734   21238446.1394
  21208398.804       63388.16849     47655.69449  21208398.3914   21208404.0244
  22753021.352     -401664.90749   -302746.39649  22753021.1714   22753026.0684
  20418581.642     -536131.26449   -393782.18449  20418580.9514   20418586.8734
  23626288.835     -266915.06249   -202181.57749  23626288.6914   23626295.3974
 97  1 14  0 36  0.0000000  0  6 19  2 27 26  7 15
  24188225.763      289024.81859    117766.02349  24188225.4004   24188233.1274
  21228797.073     -389505.17749   -295065.22949  21228796.0004   21228801.4444
  21210132.385       72497.91349     54754.18849  21210131.8814   21210137.1344
  22741613.494     -461614.11549   -349460.06849  22741613.3194   22741618.9194
  20403683.629     -614421.15949   -454787.27449  20403682.6744   20403688.7484
  23618911.499     -305684.73449   -232391.70049  23618911.0684   23618918.0834
 97  1 14  0 36 30.0000000  0  6 19  2 27 26  7 15
  24196026.067      330014.25349    149705.80249  24196026.3894   24196033.2494
  21219060.448     -440671.31149   -334934.94249  21219059.2514   21219064.9664
  21211821.169       81372.46749     61669.41249  21211820.4924   21211826.1394
  22730185.296     -521670.40649   -396257.17449  22730185.4404   22730190.7964
  20388754.243     -692875.60149   -515920.58749  20388753.3704   20388759.4194
  23611520.787     -344523.88849   -262655.96549  23611520.4944   23611527.2184
 97  1 14  0 37  0.0000000  0  6 19  2 27 26  7 15
  24203735.455      370526.37049    181273.66049  24203735.4034   24203742.2374
  21209235.388     -492301.75049   -375166.44249  21209234.0634   21209239.9094
  21213471.621       90045.40949     68427.52649  21213471.2994   21213476.6044
  22718739.725     -581817.41749   -443124.97749  22718739.9944   22718744.3444
  20373801.858     -771450.46349   -577147.73449  20373800.7414   20373807.2454
  23604122.570     -383402.47549   -292950.95249  23604122.4264   23604129.4454
 97  1 14  0 37 30.0000000  0  6 19  2 27 26  7 15
  24211399.298      410799.73449    212655.49549  24211399.1474   24211406.5454
  21199363.822     -544176.42449   -415588.25149  21199362.7074   21199368.9104
  21215131.119       98765.91749     75222.71649  21215130.6814   21215136.2834
  22707319.906     -641828.82149   -489887.11149  22707320.0894   22707324.7744
  20358872.750     -849903.10549   -638279.64849  20358871.9464   20358878.0074
  23596760.552     -422090.29149   -323097.28349  23596759.7034   23596767.3074
 97  1 14  0 38  0.0000000  0  6 19  2 27 26  7 15
  24219036.827      450934.74649    243929.49349  24219036.7504   24219044.5304
  21189465.730     -596190.87949   -456118.98249  21189464.8794   21189470.9854
  21216818.420      107632.40549     82131.66549  21216818.3324   21216823.7774
  22695943.304     -701613.40649   -536472.49549  22695943.7754   22695948.6994
  20343984.395     -928142.18449   -699245.14549  20343983.5634   20343989.5024
  23589452.509     -460495.12149   -353023.09949  23589452.2024   23589459.5044
 97  1 14  0 38 30.0000000  0  6 19  2 27 26  7 15
  24226653.199      490958.06149    275116.49749  24226653.0974   24226659.9784
  21179547.209     -648313.24349   -496733.80249  21179546.5454   21179552.4174
  21218539.324      116675.66749     89178.36449  21218538.9014   21218544.4554
  22684614.146     -761148.55049   -582863.51549  22684614.2584   22684618.5724
  20329138.569    -1006157.51149   -760036.29349  20329137.7814   20329143.6744
  23582203.114     -498591.64849   -382708.68649  23582201.9314   23582209.3524
 97  1 14  0 39  0.0000000  0  7 19  2 27 26  4  7 15
  24234253.921      530900.44149    306240.40249  24234252.8064   24234261.1054
  21169611.339     -700526.85949   -537419.73149  21169610.8534   21169616.4584
  21220300.718      125931.52849     96390.72049  21220300.7814   21220305.8994
  22673335.142     -820420.35649   -629049.32949  22673334.6574   22673340.4694
  24639000.425    -2106381.22649  -1605115.11949  24638999.7254   24639010.5244
  20314337.415    -1083937.92649   -820644.39049  20314336.6674   20314342.7284
  23575016.577     -536357.05149   -412136.25249  23575015.6964   23575021.9934
 97  1 14  0 39 30.0000000  0  7 19  2 27 26  4  7 15
  24241844.377      570787.83049    337321.47249  24241844.5104   24241850.6354
  21159665.406     -752793.39449   -578146.89749  21159664.5194   21159670.4404
  21222106.910      135423.01149    103786.67949  21222106.4914   21222111.9694
  22662114.406     -879385.51049   -674996.19549  22662114.2054   22662119.8874
  24607932.830    -2269642.32749  -1732331.43249  24607933.4024   24607940.2894
  20299583.992    -1161467.63449   -881057.13749  20299583.2514   20299589.4644
  23567898.205     -573763.15649   -441283.86549  23567897.4544   23567904.2874
 97  1 14  0 40  0.0000000  0  7 19  2 27 26  4  7 15
  24249412.796      610559.50849    368312.38649  24249412.4114   24249419.8154
  21149698.390     -805170.44949   -618960.18649  21149697.4394   21149703.4624
  21223943.828      145076.12049    111308.58149  21223943.6204   21223948.8284
  22650941.731     -938098.47149   -720746.54749  22650941.8094   22650946.6244
  24576799.785    -2433247.44549  -1859815.83249  24576799.1464   24576806.9164
  20284865.012    -1238816.23549   -941328.75849  20284863.9814   20284870.2474
  23560837.389     -610867.62549   -470196.39549  23560836.2924   23560843.2204
 97  1 14  0 40 30.0000000  0  7 19  2 27 26  4  7 15
  24256967.059      650258.42649    399246.56249  24256967.1814   24256973.7234
  21139716.465     -857625.77549   -659834.45949  21139715.7594   21139721.3264
  21225819.300      154931.84249    118988.35649  21225818.7314   21225824.4494
  22639826.806     -996507.22649   -766259.85149  22639826.1644   22639832.3924
  24545611.079    -2597144.26049  -1987527.50249  24545610.5974   24545619.3524
  20270189.120    -1315938.21149  -1001423.79149  20270188.0014   20270194.3914
  23553841.788     -647630.18549   -498842.51349  23553840.6654   23553847.9794
 97  1 14  0 41  0.0000000  0  7 19  2 27 26  4  7 15
  24264497.436      689831.04249    430082.36249  24264497.0084   24264504.8414
  21129708.210     -910219.39749   -700816.50049  21129707.5484   21129713.2874
  21227722.252      164931.58449    126780.35749  21227721.9044   21227727.0244
  22628759.991    -1054663.47249   -811576.40649  22628759.5964   22628765.0184
  24514357.185    -2761384.19149  -2115506.58849  24514357.3244   24514365.1164
  20255545.204    -1392892.06649  -1061387.82549  20255544.3084   20255550.6784
  23546899.530     -684111.75749   -527269.69149  23546898.4914   23546905.5014
 97  1 14  0 41 30.0000000  0  7 19  2 27 26  4  7 15
  24272007.442      729296.76449    460834.85249  24272006.6594   24272014.3414
  21119679.842     -962918.95849   -741881.09249  21119679.2804   21119684.7334
  21229653.987      175082.76349    134690.35649  21229653.6774   21229658.9814
  22617746.359    -1112540.41449   -856675.31749  22617746.5404   22617752.1534
  24483042.393    -2925944.76049  -2243735.48949  24483041.6034   24483049.3774
  20240937.605    -1469655.64449  -1121203.59049  20240936.6514   20240942.6804
  23540015.702     -720286.44649   -555457.74249  23540013.9074   23540022.0654
 97  1 14  0 41 59.9990000  0  7 19  2 27 26  4  7 15
  24279502.054      768681.98349    491524.58449  24279500.6914   24279510.1414
  21109635.016    -1015705.50049   -783013.46549  21109634.4044   21109639.6034
  21231617.860      185402.97949    142732.08749  21231617.2874   21231622.9634
  22606787.177    -1170131.81049   -901551.72749  22606786.9674   22606792.2614
  24451668.579    -3090814.86549  -2372205.54149  24451668.2024   24451676.0304
  20226371.569    -1546200.69749  -1180849.07649  20226370.6054   20226376.8004
  23533192.938     -756139.05449   -583394.83749  23533191.8904   23533198.9114
 97  1 14  0 42 29.9990000  0  7 19  2 27 26  4  7 15
  24286980.183      807980.09549    522146.42949  24286980.6034   24286986.5124
  21099571.931    -1068587.43449   -824220.16749  21099571.2414   21099576.6054
  21233612.366      195883.69349    150898.86749  21233611.7164   21233617.0754
  22595880.707    -1227445.98149   -946212.10349  22595880.3384   22595885.9954
  24420230.391    -3256022.90749  -2500938.88549  24420229.4474   24420237.7554
  20211844.082    -1622542.70249  -1240336.34249  20211843.2624   20211849.2624
  23526429.409     -791680.82149   -611089.69849  23526429.2924   23526435.8774
 97  1 14  0 42 59.9990000  0  7 19  2 27 26  4  7 15
  24294444.979      847207.75749    552713.49349  24294444.9264   24294452.5024
  21089494.851    -1121542.82249   -865484.10749  21089494.2274   21089499.7014
  21235639.417      206536.15949    159199.48349  21235639.1534   21235644.4694
  22585028.087    -1284476.90349   -990651.78249  22585028.5404   22585033.4514
  24388731.559    -3421548.34049  -2629919.52549  24388730.6134   24388738.2734
  20197356.943    -1698673.09049  -1299658.71549  20197356.1514   20197362.0544
  23519729.204     -826892.13049   -638527.04949  23519728.9604   23519734.9274
 97  1 14  0 43 29.9990000  0  7 19  2 27 26  4  7 15
  24301900.310      886386.39749    583242.25649  24301900.7344   24301907.9984
  21079409.022    -1174544.35349   -906783.99749  21079408.1294   21079413.8944
  21237703.126      217381.04549    167650.03849  21237702.6244   21237708.2044
  22574231.677    -1341212.25349  -1034861.13449  22574231.6354   22574237.1504
  24357177.173    -3587366.05649  -2759127.92149  24357177.6674   24357184.6244
  20182917.825    -1774551.36949  -1358784.63449  20182917.2174   20182923.1984
  23513096.954     -861745.74349   -665685.68149  23513096.9224   23513102.6264
 97  1 14  0 43 59.9990000  0  7 19  2 27 26  4  7 15
  24309349.276      925529.45149    613743.32749  24309348.5384   24309356.6274
  21069318.612    -1227569.88949   -948102.59649  21069317.8354   21069323.5394
  21239809.467      228449.57649    176274.85249  21239808.8764   21239814.3944
  22563496.171    -1397627.87749  -1078821.35949  22563496.0974   22563501.1794
  24325575.116    -3753436.38349  -2888533.13949  24325574.7454   24325582.5474
  20168532.231    -1850148.54049  -1417691.51149  20168531.4364   20168537.6284
  23506536.579     -896221.24149   -692549.67649  23506535.6944   23506542.6274
 97  1 14  0 44 29.9990000  0  7 19  2 27 26  4  7 15
  24316797.358      964669.49649    644242.02949  24316797.4514   24316804.6154
  21059233.309    -1280568.41049   -989400.14049  21059232.5174   21059238.0964
  21241967.830      239791.52149    185112.72949  21241967.1724   21241972.6304
  22552832.701    -1453664.74049  -1122486.44049  22552831.9394   22552837.9414
  24293937.678    -3919692.97449  -3018083.51349  24293936.3884   24293944.7294
  20154209.209    -1925416.48949  -1476341.85649  20154208.4624   20154214.5664
  23500058.313     -930264.36049   -719076.75249  23500056.9094   23500063.9274
 97  1 14  0 44 59.9990000  0  7 19  2 27 26  4  7 15
  24324246.417     1003814.17049    674744.37349  24324246.6044   24324253.5324
  21049155.688    -1333526.35549  -1030666.06449  21049154.6934   21049160.6634
  21244183.182      251433.69849    194184.53849  21244182.3694   21244188.4934
  22542243.115    -1509313.07649  -1165848.77549  22542242.8804   22542248.2854
  24262271.548    -4086098.68649  -3147750.08449  24262270.6904   24262278.7894
  20139954.127    -2000327.40149  -1534713.99149  20139953.3904   20139959.4164
  23493666.000     -963855.49349   -745251.64149  23493664.5844   23493672.3634
 97  1 14  0 45 29.9990000  0  7 19  2 27 26  4  7 15
  24331698.533     1042974.72549    705259.07649  24331698.4864   24331706.1714
  21039088.594    -1386429.20549  -1071889.05349  21039087.6334   21039093.3074
  21246460.971      263404.00649    203512.05149  21246459.6224   21246466.1084
  22531732.254    -1564547.74649  -1208888.75649  22531732.2164   22531737.8154
  24230581.372    -4252629.92349  -3277514.50449  24230581.3384   24230588.2694
  20125771.159    -2074859.16849  -1592790.68149  20125770.3294   20125776.4444
  23487363.347     -996976.14949   -771059.92249  23487364.2364   23487368.9524
 97  1 14  0 45 59.9990000  0  7 19  2 27 26  4  7 15
  24339135.112     1082053.77849    735710.23249  24339134.8984   24339141.7814
  21029010.980    -1439387.04249  -1113154.89049  21029010.0794   21029015.9354
  21248784.251      275613.47349    213025.90449  21248783.3134   21248789.3634
  22521283.446    -1619457.25649  -1251675.37749  22521283.2204   22521288.1744
  24198848.577    -4419385.95749  -3407454.09849  24198847.7664   24198856.2724
  20111638.610    -2149126.30849  -1650661.17149  20111637.9934   20111643.8624
  23481130.947    -1029727.39949   -796580.34349  23481130.2024   23481136.2594
 97  1 14  0 46 29.9990000  0  7 19  2 27 26  4  7 15
  24346574.465     1121147.16849    766172.63449  24346573.9784   24346581.1964
  21018937.753    -1492321.84649  -1154402.77649  21018936.9934   21018942.5704
  21251168.669      288143.95449    222789.91149  21251167.9234   21251174.0294
  22510910.660    -1673965.94149  -1294149.66649  22510910.5514   22510916.0074
  24167086.908    -4586293.61249  -3537511.86049  24167086.2844   24167094.6174
  20097571.966    -2223047.49949  -1708262.08349  20097571.5214   20097577.1264
  23474984.268    -1062027.13349   -821748.93249  23474982.2684   23474989.6294
 97  1 14  0 46 59.9990000  0  7 19  2 27 26  4  7 15
  24354015.212     1160247.89149    796640.72049  24354015.8764   24354022.4704
  21008865.442    -1545252.42649  -1195647.37749  21008864.5664   21008870.5394
  21253609.872      300972.91749    232786.49449  21253608.9834   21253615.2214
  22500608.914    -1728101.51949  -1336333.22849  22500609.2024   22500614.1374
  24135294.003    -4753365.17849  -3667697.35349  24135293.4744   24135301.1824
  20083567.038    -2296644.04649  -1765610.02849  20083566.2964   20083572.0854
  23468919.629    -1093897.12349   -846582.68249  23468918.5164   23468926.7424
 97  1 14  0 47 29.9990000  0  7 19  2 27 26  4  7 15
  24361449.155     1199312.93549    827080.94649  24361448.2704   24361456.2604
  20998785.690    -1598222.01949  -1236922.37449  20998784.8244   20998790.5634
  21256095.094      314033.15549    242963.29249  21256094.3824   21256100.6084
  22490368.877    -1781913.50249  -1378264.64349  22490368.3824   22490374.1464
  24103456.290    -4920672.96049  -3798066.90649  24103455.9954   24103462.9964
  20069611.873    -2369978.79149  -1822753.96949  20069610.7784   20069617.0544
  23462925.088    -1125398.92649   -871129.52249  23462924.7054   23462931.3224
 97  1 14  0 47 59.9990000  0  7 19  2 27 26  4  7 15
  24368873.859     1238329.00549    857483.03449  24368874.1594   24368879.9394
  20988698.562    -1651230.19549  -1278227.43849  20988697.8874   20988703.6604
  21258619.063      327296.82349    253298.61149  21258618.6354   21258624.4504
  22480187.843    -1835415.18649  -1419954.26249  22480186.8604   22480193.7924
  24071572.378    -5088222.25549  -3928624.63249  24071572.6474   24071579.7534
  20055705.267    -2443058.26849  -1879698.99949  20055704.4854   20055710.3904
  23456998.126    -1156544.54249   -895398.80949  23456996.9094   23457002.9884
 97  1 14  0 48 29.9990000  0  7 19  2 27 26  4  7 15
  24376308.187     1277395.50149    887924.46649  24376308.4134   24376314.0434
  20978626.813    -1704157.72449  -1319469.65649  20978626.2394   20978631.6744
  21261199.793      340858.78549    263866.36349  21261199.2184   21261205.1874
  22470084.967    -1888505.92449  -1461323.67749  22470084.9944   22470090.4694
  24039664.795    -5255897.58249  -4059280.60349  24039665.3764   24039671.9564
  20041867.024    -2515779.05349  -1936364.52949  20041866.2154   20041872.1644
  23451159.770    -1187225.31849   -919305.87549  23451158.6014   23451165.5854
 97  1 14  0 48 59.9990000  0  6  2 27 26  4  7 15
  20968574.696    -1756982.16349  -1360631.54549  20968574.1084   20968579.8124
  21263839.532      354731.02549    274675.89049  21263838.7414   21263845.1244
  22460065.493    -1941159.09049  -1502352.11249  22460065.4504   22460070.8994
  24007737.115    -5423680.03849  -4190020.05149  24007737.0294   24007744.8744
  20028099.792    -2588126.28649  -1992738.97949  20028099.0564   20028104.9324
  23445413.324    -1217424.36249   -942837.56649  23445411.8794   23445418.7524
 97  1 14  0 49 29.9990000  0  6  2 27 26  4  7 15
  20958532.749    -1809753.02849  -1401751.69749  20958532.1104   20958537.7914
  21266530.074      368870.14649    285693.36949  21266529.4084   21266535.9174
  22450119.745    -1993424.60449  -1543078.47849  22450119.8654   22450124.4074
  23975780.045    -5591615.89049  -4320879.04949  23975780.7724   23975787.0324
  20014395.290    -2660143.85649  -2048856.55349  20014394.3734   20014400.3574
  23439749.474    -1247187.81649   -966029.86349  23439748.6504   23439755.3634
 97  1 14  0 49 59.9990000  0  6  2 27 26  4  7 15
  20948503.955    -1862454.50549  -1442817.77649  20948503.1534   20948508.7834
  21269277.893      383309.86349    296945.08649  21269277.9354   21269283.6464
  22440251.805    -2045281.01849  -1583486.07249  22440252.0474   22440257.3144
  23943803.556    -5759653.81049  -4451817.59449  23943803.4104   23943810.4744
  20000759.454    -2731800.52949  -2104692.90849  20000758.8834   20000764.8384
  23434174.788    -1276482.38349   -988856.77549  23434174.3394   23434181.0274
 97  1 14  0 50 29.9990000  0  6  2 27 26  4  7 15
  20938494.245    -1915055.83649  -1483805.82249  20938493.8624   20938499.3244
  21272092.059      398098.20249    308468.45949  21272092.3274   21272097.3144
  22430471.282    -2096678.14849  -1623535.79649  22430471.5284   22430476.0754
  23911816.826    -5927745.51249  -4582798.05349  23911816.9944   23911823.9614
  19987200.890    -2803051.34049  -2160213.00849  19987200.1694   19987206.1414
  23428697.302    -1305266.60249  -1011286.02949  23428696.2314   23428702.9994
 97  1 14  0 50 59.9990000  0  6  2 27 26  4  7 15
  20928492.081    -1967617.90549  -1524763.27149  20928491.3774   20928497.0024
  21274962.209      413180.06849    320220.55749  21274962.2704   21274967.8214
  22420766.753    -2147676.01549  -1663274.39449  22420766.4964   22420771.4554
  23879810.697    -6095938.93649  -4713857.79249  23879809.6824   23879817.1654
  19973711.054    -2873941.16949  -2215451.81449  19973710.4984   19973716.2834
  23423305.780    -1333599.36049  -1033363.47649  23423305.0934   23423311.9014
 97  1 14  0 51 29.9990000  0  6  2 27 26  4  7 15
  20918488.118    -2020189.00249  -1565727.75149  20918487.3634   20918492.9404
  21277879.131      428508.21849    332164.55749  21277878.5014   21277884.3484
  22411128.427    -2198325.85749  -1702741.80949  22411128.4694   22411134.1494
  23847778.857    -6264266.56449  -4845022.10949  23847778.7764   23847784.9954
  19960281.703    -2944513.29149  -2270443.05349  19960281.1154   19960286.8684
  23417991.807    -1361524.63249  -1055123.41549  23417990.9124   23417996.3244
 97  1 14  0 51 59.9990000  0  6  2 27 26  4  7 15
  20908506.397    -2072643.25449  -1606601.19149  20908505.4734   20908511.2464
  21280864.242      444194.90849    344387.93749  21280863.6554   21280869.6314
  22401581.343    -2248496.05849  -1741835.47849  22401581.8784   22401586.2954
  23815741.382    -6432623.93049  -4976209.62349  23815741.1254   23815747.8564
  19946933.256    -3014659.87049  -2325102.70949  19946932.2264   19946938.1364
  23412776.605    -1388930.55349  -1076478.66749  23412775.0634   23412782.8444
 97  1 14  0 52 29.9990000  0  6  2 27 26  4  7 15
  20898553.519    -2124945.87449  -1647356.46849  20898552.5434   20898558.3034
  21283921.669      460261.92349    356907.68049  21283921.5984   21283927.1284
  22392129.367    -2298166.42549  -1780539.66049  22392129.1524   22392134.7724
  23783699.031    -6601006.54049  -5107416.77549  23783697.4494   23783705.1694
  19933668.925    -3084364.10049  -2379417.67849  19933668.0594   19933673.8314
  23407663.278    -1415800.84449  -1097416.53149  23407662.0734   23407668.1744
 97  1 14  0 52 59.9990000  0  6  2 27 26  4  7 15
  20888621.633    -2177137.99849  -1688025.64949  20888620.6594   20888626.5064
  21287042.373      476661.29049    369686.38749  21287042.2874   21287047.6504
  22382760.675    -2347399.40449  -1818903.03249  22382760.9974   22382765.6044
  23751640.751    -6769472.86149  -5238689.19849  23751639.5024   23751646.3184
  19920477.950    -3153683.07649  -2433432.45049  19920477.0414   19920482.8954
  23402642.075    -1442188.47649  -1117978.30349  23402641.6284   23402647.7604
 97  1 14  0 53 29.9990000  0  6  2 27 26  4  7 15
  20878726.157    -2229138.58049  -1728545.57349  20878725.5894   20878731.1244
  21290241.137      493470.60549    382784.54749  21290240.8334   21290247.1094
  22373490.721    -2396113.34749  -1856861.95749  22373490.9654   22373495.5114
  23719579.421    -6937955.14549  -5369974.02449  23719578.9474   23719585.7674
  19907373.701    -3222546.26949  -2487092.06349  19907372.8134   19907378.7674
  23397726.860    -1468018.67549  -1138105.68849  23397725.8114   23397732.9744
 97  1 14  0 53 59.9990000  0  6  2 27 26  4  7 15
  20868856.613    -2281003.50149  -1768959.78749  20868855.9124   20868861.5344
  21293507.724      510636.29649    396160.39949  21293507.3124   21293513.1984
  22364306.313    -2444377.79449  -1894470.62049  22364306.5534   22364311.8714
  23687503.467    -7106514.07849  -5501318.60549  23687503.2534   23687508.8834
  19894343.958    -3291017.47549  -2540446.23449  19894343.1434   19894348.9104
  23392905.911    -1493352.84049  -1157846.58349  23392904.6994   23392911.5884
 97  1 14  0 54 29.9980000  0  6  2 27 26  4  7 15
  20858999.726    -2332801.75149  -1809322.05649  20858998.6164   20859004.4514
  21296831.264      528101.38549    409769.54649  21296830.6614   21296836.6934
  22355194.725    -2492259.72149  -1931781.22449  22355195.0214   22355199.8324
  23655407.165    -7275179.83249  -5632746.42949  23655406.6334   23655414.2914
  19881381.709    -3359134.49949  -2593524.42249  19881380.9264   19881386.7334
  23388169.935    -1518239.91249  -1177239.09849  23388169.2674   23388175.0584
 97  1 14  0 54 59.9980000  0  6  2 27 26  4  7 15
  20849158.633    -2384516.89949  -1849619.56649  20849157.8384   20849163.5344
  21300216.487      545890.17649    423630.92749  21300216.1574   21300221.9654
  22346163.399    -2539720.34549  -1968763.54649  22346163.0534   22346168.3644
  23623298.033    -7443914.84549  -5764228.19449  23623299.6704   23623304.4384
  19868491.218    -3426874.83149  -2646309.08249  19868490.5704   19868496.2434
  23383525.295    -1542647.90349  -1196258.30249  23383524.5534   23383531.0804
 97  1 14  0 55 29.9980000  0  6  2 27 26  4  7 15
  20839340.996    -2436108.88049  -1889821.10649  20839340.2654   20839345.9464
  21303669.119      564033.15549    437768.30049  21303668.3574   21303673.9864
  22337220.443    -2586715.07249  -2005382.81049  22337220.3344   22337225.1224
  23591187.621    -7612654.89449  -5895713.89249  23591186.8014   23591192.4514
  19855679.070    -3494203.17249  -2698772.72149  19855678.7004   19855684.2344
  23378979.514    -1566536.46449  -1214872.74149  23378978.8604   23378985.7324
 97  1 14  0 55 59.9980000  0  6  2 27 26  4  7 15
  20829540.961    -2487608.47549  -1929950.64749  20829540.0204   20829546.1514
  21307182.696      582496.85749    452155.58549  21307182.5244   21307187.6544
  22328362.422    -2633263.30049  -2041654.14549  22328362.3064   22328367.9164
  23559074.871    -7781408.12249  -6027209.78749  23559075.5514   23559081.6704
  19842942.461    -3561134.49449  -2750926.98749  19842941.4474   19842947.2904
  23374528.721    -1589925.84749  -1233098.20849  23374528.2914   23374533.7494
 97  1 14  0 56 29.9980000  0  6  2 27 26  4  7 15
  20819759.217    -2539011.79449  -1970005.17449  20819758.2714   20819764.4694
  21310758.435      601286.84949    466797.12849  21310758.4794   21310762.7864
  22319595.539    -2679333.51849  -2077553.00949  22319595.4164   22319600.5594
  23526963.508    -7950157.54449  -6158702.75249  23526964.4814   23526969.8494
  19830284.531    -3627652.14449  -2802758.91349  19830283.6704   19830289.6854
  23370174.846    -1612805.94749  -1250926.80749  23370174.2554   23370179.9614
 97  1 14  0 56 59.9980000  0  6  2 27 26  4  7 15
  20810001.641    -2590288.23949  -2009960.84049  20810000.9264   20810006.8014
  21314400.755      620427.21649    481711.68649  21314400.7174   21314406.0134
  22310924.831    -2724897.86049  -2113057.68149  22310924.2494   22310930.5654
  23494858.076    -8118876.93449  -6290172.31249  23494858.8984   23494863.0044
  19817705.879    -3693753.18649  -2854266.21149  19817705.2784   19817711.0084
  23365921.172    -1635158.89349  -1268344.66749  23365919.4514   23365927.6564
 97  1 14  0 57 29.9980000  0  6  2 27 26  4  7 15
  20800265.145    -2641453.87449  -2049830.16849  20800264.4474   20800270.1584
  21318106.197      639899.31149    496884.72649  21318106.1524   21318110.9584
  22302341.410    -2770003.82049  -2148205.18649  22302341.1904   22302347.3604
  23462752.588    -8287593.52149  -6421639.74349  23462753.3744   23462758.7464
  19805204.851    -3759446.72349  -2905455.97349  19805203.8734   19805210.1494
  23361762.863    -1657009.59449  -1285371.19249  23361762.0494   23361768.6924
 97  1 14  0 57 59.9980000  0  6  2 27 26  4  7 15
  20790532.523    -2692599.37749  -2089683.80249  20790531.8344   20790537.4584
  21321860.458      659627.61949    512257.42549  21321860.2134   21321865.4494
  22293827.852    -2814742.87149  -2183066.79549  22293827.8044   22293833.3894
  23430627.044    -8456413.38249  -6553187.63249  23430627.4344   23430632.7464
  19792764.951    -3824818.52149  -2956395.02749  19792764.1054   19792770.2424
  23357683.493    -1678446.43749  -1302075.22149  23357682.8934   23357689.1264
 97  1 14  0 58 29.9980000  0  6  2 27 26  4  7 15
  20780817.616    -2743651.58149  -2129464.74049  20780817.2404   20780822.6024
  21325676.654      679682.09049    527884.28949  21325676.6614   21325681.5084
  22285393.007    -2859068.44849  -2217606.21849  22285393.5634   22285398.6984
  23398491.892    -8625284.96649  -6684775.83949  23398492.5614   23398497.2274
  19780394.370    -3889826.06949  -3007050.24949  19780393.6784   19780399.8674
  23353693.873    -1699412.52249  -1318412.40549  23353694.1244   23353699.1964
 97  1 14  0 58 59.9980000  0  6  2 27 26  4  7 15
  20771116.533    -2794631.09349  -2169189.02949  20771115.5964   20771121.6194
  21329545.586      700013.17949    543726.68649  21329545.3634   21329550.4744
  22277025.237    -2903041.99949  -2251871.32049  22277025.4264   22277031.1714
  23366337.785    -8794256.71349  -6816442.10549  23366337.9914   23366343.0894
  19768084.754    -3954513.71449  -3057456.19449  19768083.7804   19768089.8624
  23349785.673    -1719951.44149  -1334416.71849  23349785.6704   23349791.3374
 97  1 14  0 59 29.9980000  0  7  2 27 26  4  9  7 15
  20761471.185    -2845317.58649  -2208684.99649  20761470.1634   20761476.0084
  21333505.303      720822.18649    559941.48749  21333504.8124   21333510.5944
  22268762.997    -2946460.75049  -2285704.11549  22268762.8464   22268768.6264
  23334203.491    -8963123.59049  -6948026.64349  23334203.5074   23334209.2034
  24175619.698    -7528051.41149  -5827224.21649  24175619.7574   24175625.9734
  19755880.019    -4018650.04249  -3107432.54749  19755879.0504   19755884.9614
  23345999.375    -1739848.48849  -1349920.89849  23345997.2524   23346004.4394
 97  1 14  0 59 59.9980000  0  7  2 27 26  4  9  7 15
  20751851.304    -2895870.12649  -2248076.58049  20751850.3034   20751856.0394
  21337525.160      741946.68549    576402.11849  21337524.4594   21337530.2494
  22260581.833    -2989453.66149  -2319205.09049  22260581.6304   22260587.0824
  23302061.035    -9132032.90249  -7079644.25949  23302060.6594   23302066.6614
  24144055.790    -7693921.19649  -5956473.32649  24144053.2004   24144061.6594
  19743747.710    -4082405.37749  -3157112.02349  19743746.7494   19743752.9434
  23342305.774    -1759258.43049  -1365045.51849  23342305.0094   23342311.4814
 97  1 14  1  0 29.9980000  0  7  2 27 26  4  9  7 15
  20742253.132    -2946308.77149  -2287379.42249  20742252.6574   20742258.2864
  21341596.086      763340.01249    593072.23449  21341595.8814   21341600.6844
  22252477.128    -3032043.92249  -2352392.30549  22252476.3514   22252482.7204
  23269908.398    -9300995.68349  -7211303.52949  23269907.8284   23269914.2864
  24112482.735    -7859837.88949  -6085759.06349  24112481.8764   24112487.9784
  19731684.079    -4145799.89949  -3206510.34749  19731683.4004   19731689.0974
  23338699.432    -1778208.20149  -1379811.56749  23338700.0644   23338703.7464
 97  1 14  1  0 59.9980000  0  7  2 27 26  4  9  7 15
  20732675.288    -2996640.65049  -2326599.06449  20732674.7984   20732680.3464
  21345718.757      785004.40249    609953.57249  21345717.6674   21345722.9804
  22244451.071    -3074221.43149  -2385257.88849  22244451.4174   22244456.5274
  23237748.515    -9469996.97649  -7342992.79949  23237748.1024   23237754.5514
  24080905.158    -8025779.16849  -6215063.95749  24080904.7374   24080910.9544
  19719691.040    -4208823.82249  -3255619.88449  19719690.3224   19719696.2214
  23335181.343    -1796695.17149  -1394216.99849  23335180.6514   23335186.5214
 97  1 14  1  1 29.9980000  0  7  2 27 26  4  9  7 15
  20723117.705    -3046866.50249  -2365736.09049  20723117.0554   20723122.7164
  21349899.225      806972.96149    627071.92149  21349898.8734   21349903.7414
  22236508.728    -3115959.15549  -2417780.78749  22236508.2964   22236514.1854
  23205586.812    -9639007.28049  -7474689.09949  23205585.5574   23205593.1184
  24049330.094    -8191706.28249  -6344357.78849  24049329.7254   24049336.2724
  19707769.583    -4271471.63049  -3304436.34649  19707768.9854   19707774.7114
  23331755.036    -1814700.89849  -1408247.38149  23331754.1434   23331760.3794
 97  1 14  1  1 59.9980000  0  7  2 27 26  4  9  7 15
  20713575.026    -3097013.77349  -2404811.88549  20713574.3314   20713579.8484
  21354136.574      829240.86849    644423.52249  21354136.1094   21354141.9014
  22228646.704    -3157274.73449  -2449974.74549  22228645.9394   22228652.1584
  23173420.683    -9808040.50849  -7606403.25949  23173420.1654   23173426.8624
  24017754.900    -8357634.96149  -6473652.87049  24017752.3764   24017759.1584
  19695911.691    -4333785.56949  -3352992.65149  19695911.1444   19695916.8324
  23328414.770    -1832253.63749  -1421924.82649  23328413.7954   23328420.9824
 97  1 14  1  2 29.9980000  0  7  2 27 26  4  9  7 15
  20704054.899    -3147042.39949  -2443795.22649  20704054.2124   20704059.8074
  21358440.831      851859.94249    662048.76249  21358440.7094   21358445.8524
  22220867.187    -3198155.94149  -2481830.22849  22220867.1944   22220872.4504
  23141255.442    -9977068.84149  -7738113.59949  23141255.1624   23141261.8684
  23986186.707    -8523526.83249  -6602919.24749  23986186.2394   23986193.3654
  19684124.951    -4395725.65649  -3401257.64249  19684124.2044   19684130.2034
  23325166.614    -1849322.41749  -1435225.17149  23325166.7434   23325173.1694
 97  1 14  1  2 59.9980000  0  7  2 27 26  4  9  7 15
  20694565.568    -3196909.25749  -2482652.50949  20694564.7614   20694570.6494
  21362824.029      874893.63049    679997.08649  21362823.0454   21362829.1254
  22213179.866    -3238552.64649  -2513308.18649  22213179.6764   22213185.8894
  23109103.791   -10146026.39949  -7869768.78549  23109103.7404   23109109.6024
  23954634.643    -8689333.87249  -6732119.56249  23954633.7724   23954640.2384
  19672419.517    -4457238.20949  -3449189.48749  19672418.6284   19672424.5264
  23322020.288    -1865856.54949  -1448108.89949  23322019.9724   23322025.6784
 97  1 14  1  3 29.9980000  0  7  2 27 26  4  9  7 15
  20685115.157    -3246571.31449  -2521350.21149  20685114.3134   20685120.3914
  21367288.938      898357.61749    698280.70849  21367288.1544   21367294.0474
  22205591.071    -3278431.92749  -2544382.94749  22205590.5504   22205596.1634
  23076973.712   -10314871.96049  -8001336.70649  23076973.1244   23076979.9074
  23923101.908    -8855039.53949  -6861240.84549  23923101.5714   23923106.8544
  19660802.443    -4518285.92349  -3496759.12449  19660801.4004   19660807.4364
  23318981.611    -1881824.60649  -1460551.54049  23318980.5864   23318987.2834
 97  1 14  1  3 59.9980000  0  7  2 27 26  4  9  7 15
  20675700.719    -3296044.62049  -2559900.83649  20675699.9014   20675705.5784
  21371829.082      922216.55949    716872.07549  21371828.1814   21371834.1664
  22198095.219    -3317822.45149  -2575076.86149  22198095.7084   22198101.0864
  23044861.238   -10483623.56249  -8132831.40549  23044860.3154   23044867.0464
  23891584.485    -9020665.55949  -6990300.06649  23891583.5814   23891590.6524
  19649272.524    -4578875.98649  -3543972.15449  19649271.7124   19649277.7284
  23316045.863    -1897252.26249  -1472573.07949  23316045.3484   23316052.1054
 97  1 14  1  4 29.9980000  0  7  2 27 26  4  9  7 15
  20666316.533    -3345358.53249  -2598327.24849  20666315.4684   20666321.1254
  21376435.511      946423.32949    735734.48149  21376435.2124   21376440.6664
  22190686.300    -3356757.15249  -2605415.58449  22190686.0684   22190691.6484
  23012763.609   -10652297.88549  -8264265.90649  23012764.0554   23012769.3774
  23860077.438    -9186236.14649  -7119316.06249  23860076.9824   23860082.6594
  19637826.181    -4639026.82049  -3590842.92249  19637825.4264   19637831.6704
  23313207.463    -1912167.70049  -1484195.52249  23313206.9434   23313213.0234
 97  1 14  1  4 59.9980000  0  7  2 27 26  4  9  7 15
  20656969.144    -3394479.15149  -2636603.04649  20656968.4784   20656974.1244
  21381110.003      970987.70949    754875.54449  21381109.9964   21381114.9594
  22183371.454    -3395196.64349  -2635368.42849  22183371.2524   22183376.5834
  22980690.830   -10820842.20449  -8395599.10749  22980691.1494   22980696.7614
  23828588.762    -9351710.19649  -7248256.85149  23828587.3224   23828593.4824
  19626469.318    -4698707.43849  -3637347.28649  19626468.5994   19626474.6474
  23310473.430    -1926535.72949  -1495391.37749  23310473.2854   23310478.3014
 97  1 14  1  5 29.9980000  0  7  2 27 26  4  9  7 15
  20647651.751    -3443442.48849  -2674756.28549  20647650.9294   20647656.8804
  21385842.714      995857.36449    774254.48049  21385842.9994   21385847.7114
  22176139.445    -3433200.58649  -2664981.88049  22176140.3774   22176145.0784
  22948630.711   -10989319.15949  -8526879.82749  22948630.2344   22948635.8484
  23797112.444    -9517118.25149  -7377146.15549  23797111.6924   23797117.7984
  19615190.219    -4757979.42349  -3683533.23349  19615189.2674   19615195.3644
  23307833.523    -1940408.55349  -1506201.33549  23307832.5634   23307837.5104
 97  1 14  1  5 59.9980000  0  7  2 27 26  4  9  7 15
  20638365.232    -3492243.27749  -2712782.86649  20638364.6474   20638370.2954
  21390639.013     1021061.61849    793894.14649  21390639.4684   21390643.6844
  22168991.676    -3470763.05649  -2694251.33449  22168992.1864   22168996.9574
  22916584.301   -11157723.03349  -8658103.59349  22916584.7584   22916590.1104
  23765655.407    -9682426.25749  -7505957.52149  23765654.8594   23765661.1634
  19603990.930    -4816831.66249  -3729392.10749  19603990.1004   19603995.9844
  23305290.790    -1953770.06649  -1516612.87749  23305289.8144   23305296.3684
 97  1 14  1  6 29.9970000  0  7  2 27 26  4  9  7 15
  20629110.802    -3540875.75149  -2750678.29649  20629110.3244   20629115.8494
  21395498.424     1046597.20149    813791.98449  21395498.2954   21395503.1064
  22161929.671    -3507874.71849  -2723169.51249  22161929.2564   22161935.1934
  22884553.554   -11326045.46549  -8789263.90849  22884552.8044   22884558.6984
  23734218.417    -9847628.99549  -7634686.81949  23734217.9334   23734223.2444
  19592870.482    -4875270.05449  -3774928.50549  19592869.7494   19592875.5834
  23302846.311    -1966616.19849  -1526622.84149  23302845.6664   23302851.8574
 97  1 14  1  6 59.9970000  0  7  2 27 26  4  9  7 15
  20619893.482    -3589312.97849  -2788421.57049  20619892.6054   20619898.7244
  21400425.521     1072488.40749    833966.93049  21400426.1934   21400430.4854
  22154959.211    -3544504.44249  -2751712.15149  22154959.7714   22154964.3444
  22852539.753   -11494278.44549  -8920354.50849  22852539.4364   22852545.1554
  23702804.326   -10012710.96049  -7763322.01749  23702800.3734   23702810.1984
  19581831.803    -4933278.51349  -3820129.87949  19581831.0304   19581836.9594
  23300504.269    -1978923.53549  -1536212.94349  23300504.2874   23300509.1924
 97  1 14  1  7 29.9970000  0  7  2 27 26  4  9  7 15
  20610707.664    -3637584.71249  -2826035.89949  20610706.7254   20610712.7104
  21405415.416     1098710.05449    854399.36749  21405414.8604   21405420.1674
  22148073.879    -3580687.14049  -2779906.45949  22148074.2874   22148079.2894
  22820536.678   -11662454.86649  -9051401.03249  22820536.1424   22820542.4304
  23671406.174   -10177708.76549  -7891891.67249  23671405.7174   23671410.6584
  19570869.407    -4990886.13949  -3865018.92549  19570868.7304   19570874.7824
  23298257.522    -1990730.65149  -1545413.26349  23298257.0424   23298263.1294
 97  1 14  1  7 59.9970000  0  7  2 27 26  4  9  7 15
  20601559.297    -3685659.57949  -2863496.82849  20601558.5584   20601564.4224
  21410474.424     1125295.91449    875115.61549  21410473.5884   21410479.2364
  22141281.088    -3616383.44249  -2807721.75149  22141280.7804   22141286.6034
  22788552.773   -11830531.07249  -9182369.46349  22788552.5434   22788558.9334
  23640024.832   -10342618.78849  -8020392.91849  23640021.9134   23640030.0034
  19559990.493    -5048055.60549  -3909566.54849  19559989.8914   19559995.7424
  23296111.463    -2002007.94849  -1554200.78249  23296110.6484   23296116.1224
 97  1 14  1  8 29.9970000  0  7  2 27 26  4  9  7 15
  20592434.232    -3733612.11749  -2900862.43049  20592433.5654   20592439.6244
  21415586.421     1152160.07949    896048.72549  21415585.8284   21415591.3414
  22134565.275    -3651675.22649  -2835221.84849  22134565.5494   22134571.3524
  22756573.991   -11998579.55349  -9313316.29849  22756573.0824   22756580.3404
  23608641.477   -10507538.68949  -8148901.80449  23608639.5794   23608646.0014
  19549179.773    -5104866.44649  -3953834.71649  19549179.1654   19549184.8284
  23294049.058    -2012845.88849  -1562645.90749  23294049.0354   23294054.2554
 97  1 14  1  8 59.9970000  0  7  2 27 26  4  9  7 15
  20583328.505    -3781463.11649  -2938148.91449  20583327.6994   20583333.6294
  21420747.134     1179280.44249    917181.46849  21420746.5764   21420752.1204
  22127918.836    -3686602.94249  -2862438.25749  22127919.2104   22127923.7554
  22724596.376   -12166622.54349  -9444258.85349  22724595.6604   22724602.8284
  23577252.623   -10672487.96849  -8277433.64049  23577253.0174   23577257.7844
  19538434.216    -5161334.72649  -3997835.95949  19538433.7044   19538439.2814
  23292065.397    -2023269.36249  -1570768.06949  23292064.8894   23292071.1404
 97  1 14  1  9 29.9970000  0  7  2 27 26  4  9  7 15
  20574248.220    -3829180.36149  -2975331.17149  20574247.4354   20574253.2484
  21425964.830     1206700.01549    938547.35449  21425964.8834   21425969.7794
  22121346.730    -3721140.28249  -2889350.47949  22121346.7104   22121352.3304
  22692626.130   -12334626.38249  -9575170.89849  22692625.8524   22692632.8584
  23545865.046   -10837430.57049  -8405960.28049  23545864.2674   23545870.6904
  19527761.469    -5217420.65749  -4041539.25949  19527760.7334   19527766.7044
  23290167.793    -2033241.14049  -1578538.26949  23290165.8844   23290173.1414
 97  1 14  1  9 59.9970000  0  7  2 27 26  4  9  7 15
  20565190.672    -3876778.03349  -3012420.25849  20565189.7754   20565195.6464
  21431235.212     1234396.58649    960129.07849  21431234.9354   21431240.1934
  22114848.681    -3755288.54249  -2915959.52749  22114848.9194   22114854.4334
  22660660.555   -12502605.38649  -9706063.57949  22660660.7814   22660667.4164
  23514479.488   -11002362.18049  -8534478.34149  23514479.9844   23514485.2384
  19517157.239    -5273146.02549  -4084961.61149  19517156.3844   19517162.1454
  23288354.077    -2042771.11749  -1585964.22249  23288353.6684   23288358.2734
 97  1 14  1 10 29.9970000  0  7  2 27 26  4  9  7 15
  20556137.625    -3924351.73649  -3049490.66449  20556136.8234   20556142.8904
  21436538.623     1262265.85549    981845.38749  21436538.1734   21436543.7064
  22108407.894    -3789135.08749  -2942333.46349  22108407.6684   22108413.1174
  22628682.932   -12670648.80649  -9837006.45649  22628683.4484   22628689.8124
  23483085.945   -11167336.52349  -8663029.70749  23483084.6094   23483091.4924
  19506604.954    -5328598.47449  -4128171.28949  19506604.1694   19506609.9544
  23286609.085    -2051941.85549  -1593110.20349  23286608.2474   23286615.0344
 97  1 14  1 10 59.9970000  0  7  2 27 26  4  9  7 15
  20547113.949    -3971771.46749  -3086441.10149  20547113.2204   20547118.9884
  21441898.524     1290431.57249   1003792.67649  21441898.2534   21441903.2914
  22102049.560    -3822548.65749  -2968370.01649  22102049.3104   22102054.4394
  22596718.531   -12838623.95449  -9967896.12849  22596718.5274   22596725.2134
  23451711.283   -11332211.29349  -8791503.46949  23451709.7694   23451716.9114
  19496128.518    -5383652.82349  -4171070.76849  19496127.7124   19496133.5624
  23284957.733    -2060619.50849  -1599871.99849  23284956.7204   23284962.6964
 97  1 14  1 11 29.9970000  0  7  2 27 26  4  9  7 15
  20538116.910    -4019051.56949  -3123282.73449  20538116.3884   20538121.9594
  21447313.998     1318890.02349   1025968.09049  21447313.8244   21447318.7944
  22095775.277    -3855520.08049  -2994062.04649  22095775.3134   22095780.5404
  22564767.389   -13006529.49149 -10098731.56849  22564767.8464   22564773.6564
  23420353.719   -11496996.27449  -8919907.32749  23420353.7564   23420359.5204
  19485724.379    -5438326.88049  -4213673.92249  19485723.8344   19485729.4164
  23283397.386    -2068818.56349  -1606260.89449  23283395.7914   23283403.4474
 97  1 14  1 11 59.9970000  0  7  2 27 26  4  9  7 15
  20529151.784    -4066163.60149  -3159993.39949  20529150.8554   20529156.8384
  21452790.772     1347670.73549   1048394.59549  21452790.2524   21452795.2374
  22089588.939    -3888029.89349  -3019394.38249  22089588.9464   22089594.0804
  22532837.046   -13174324.11049 -10229480.58349  22532837.3114   22532843.5394
  23389018.575   -11661663.65849  -9048219.51649  23389017.8304   23389024.4604
  19475397.447    -5492595.27049  -4255960.96549  19475396.4944   19475402.4694
  23281932.259    -2076518.37749  -1612260.70249  23281931.6944   23281937.3014
 97  1 14  1 12 29.9970000  0  7  2 27 26  4  9  7 15
  20520220.744    -4113096.63849  -3196564.60049  20520219.7674   20520225.4394
  21458332.505     1376792.87349   1071087.16049  21458332.2464   21458337.0094
  22083490.118    -3920079.26049  -3044367.91649  22083490.0884   22083495.5864
  22500933.887   -13341977.25249 -10360119.38249  22500934.3274   22500939.8194
  23357705.708   -11826213.20749  -9176439.92949  23357706.1864   23357711.1404
  19465150.424    -5546443.53149  -4297920.64249  19465149.6474   19465155.6614
  23280563.496    -2083711.79649  -1617865.96449  23280562.3324   23280569.2664
 97  1 14  1 12 59.9970000  0  7  2 27 26  4  9  7 15
  20511321.427    -4159862.84649  -3233005.79449  20511320.6684   20511326.5954
  21463939.251     1406257.61049   1094046.69049  21463938.6054   21463943.8124
  22077473.919    -3951694.77349  -3069003.39949  22077474.0634   22077479.0584
  22469055.580   -13509499.12149 -10490655.85649  22469056.2264   22469061.5284
  23326408.638   -11990680.41849  -9304596.14749  23326409.7434   23326414.8624
  19454979.807    -5599890.16549  -4339567.36149  19454978.9484   19454984.9314
  23279286.510    -2090422.53449  -1623095.09449  23279286.4154   23279293.5014
 97  1 14  1 13 29.9970000  0  7  2 27 26  4  9  7 15
  20502465.468    -4206401.07549  -3269269.34249  20502464.6194   20502470.4344
  21469622.341     1436122.13749   1117317.73949  21469621.2314   21469627.1174
  22071550.577    -3982821.61849  -3093258.07949  22071550.4044   22071555.5954
  22437214.641   -13676823.80149 -10621038.71449  22437214.4604   22437220.8614
  23295140.539   -12154996.11549  -9432634.30049  23295140.7904   23295145.5094
  19444898.770    -5652866.17449  -4380847.36049  19444898.0674   19444903.8174
  23278113.288    -2096588.34049  -1627899.59649  23278113.5974   23278120.2084
 97  1 14  1 13 59.9970000  0  7  2 27 26  4  9  7 15
  20493652.008    -4252715.72449  -3305358.67449  20493651.2004   20493657.0504
  21475376.384     1466359.68449   1140879.46549  21475375.9574   21475381.1034
  22065715.559    -4013484.61549  -3117151.32849  22065715.8734   22065720.9624
  22405409.309   -13843962.32249 -10751276.49149  22405408.9984   22405415.3944
  23263901.158   -12319159.72749  -9560553.96549  23263901.0964   23263905.9464
  19434905.134    -5705383.17249  -4421769.68549  19434904.4864   19434910.5424
  23277042.651    -2102215.46149  -1632284.37049  23277042.4694   23277048.4814
 97  1 14  1 14 29.9970000  0  7  2 27 26  4  9  7 15
  20484867.570    -4298878.15449  -3341329.39949  20484866.6224   20484872.3414
  21481187.035     1496895.04949   1164673.23749  21481186.1444   21481191.6644
  22059957.066    -4043745.30049  -3140731.09349  22059957.1894   22059962.3104
  22373627.349   -14010977.37549 -10881418.07449  22373627.6404   22373633.8444
  23232678.892   -12483233.91649  -9688403.92849  23232679.1214   23232683.9514
  19424986.120    -5757508.44549  -4462386.77549  19424985.7624   19424991.1744
  23276062.145    -2107368.39149  -1636299.61649  23276060.2894   23276067.4784
 97  1 14  1 14 59.9970000  0  7  2 27 26  4  9  7 15
  20476096.147    -4344972.07349  -3377246.74149  20476095.4444   20476101.4144
  21487035.896     1527630.72549   1188623.09349  21487035.1554   21487041.2674
  22054258.780    -4073689.40849  -3164064.16349  22054258.5844   22054264.4004
  22341851.740   -14177959.78349 -11011534.20049  22341852.4874   22341857.3934
  23201460.446   -12647287.39349  -9816237.74149  23201460.5034   23201465.8674
  19415126.498    -5809321.84849  -4502760.84749  19415125.7684   19415131.3024
  23275155.792    -2112130.51649  -1640010.36949  23275154.7664   23275161.3654
 97  1 14  1 15 29.9970000  0  7  2 27 26  4  9  7 15
  20467341.959    -4390975.83149  -3413093.82049  20467341.1454   20467346.9384
  21492924.627     1558577.01549   1212737.07149  21492924.4284   21492929.9184
  22048626.810    -4103285.62649  -3187126.15749  22048626.5934   22048632.3024
  22310085.200   -14344893.74449 -11141612.57849  22310085.8494   22310091.0624
  23170252.129   -12811288.66249  -9944030.90349  23170252.6484   23170257.2704
  19405326.659    -5860820.26449  -4542889.47849  19405325.9424   19405331.5374
  23274327.134    -2116484.87049  -1643403.37449  23274327.1894   23274332.0114
 97  1 14  1 15 59.9970000  0  7  2 27 26  4  9  7 15
  20458630.747    -4436753.48749  -3448764.72349  20458630.0154   20458635.5704
  21498881.321     1589880.20049   1237129.15049  21498881.3044   21498886.6584
  22043089.079    -4132386.47149  -3209802.13349  22043088.4374   22043095.2054
  22278353.809   -14511644.54549 -11271548.23049  22278354.6764   22278359.7164
  23139077.176   -12975114.70949 -10071687.50349  23139075.8214   23139082.9384
  19395608.348    -5911890.39049  -4582684.37849  19395607.7204   19395613.2854
  23273600.660    -2120302.81249  -1646378.36749  23273598.9934   23273604.4314
 97  1 14  1 16 29.9970000  0  7  2 27 26  4  9  7 15
  20449962.020    -4482307.87249  -3484261.64949  20449961.3064   20449966.9864
  21504907.601     1621547.77549   1261805.16849  21504906.4134   21504912.5144
  22037646.024    -4160989.54249  -3232090.24549  22037645.1364   22037651.5214
  22246657.395   -14678211.80449 -11401340.83849  22246658.4594   22246663.1794
  23107933.624   -13138775.17049 -10199215.10149  23107932.5714   23107938.2024
  19385970.892    -5962535.63149  -4622148.19749  19385970.2324   19385975.7214
  23272974.052    -2123595.07049  -1648943.70749  23272973.5364   23272980.5094
 97  1 14  1 16 59.9970000  0  7  2 27 26  4  9  7 15
  20441333.871    -4527649.04249  -3519592.42849  20441333.1304   20441338.9324
  21510999.548     1653561.37849   1286750.82649  21510998.8554   21511004.3514
  22032292.613    -4189121.82149  -3254011.51649  22032292.7614   22032298.3984
  22214990.111   -14844627.81549 -11531015.60049  22214990.9624   22214994.6984
  23076818.046   -13302287.87649 -10326627.54649  23076818.4614   23076823.6854
  19376407.616    -6012791.03649  -4661308.24649  19376406.9434   19376412.5924
  23272441.882    -2126391.10949  -1651122.46049  23272439.5154   23272449.6474
 97  1 14  1 17 29.9970000  0  7  2 27 26  4  9  7 15
  20432735.464    -4572833.48449  -3554801.07949  20432734.5124   20432740.4214
  21517148.342     1685873.77549   1311929.31049  21517147.8684   21517153.5704
  22027018.198    -4216839.17649  -3275609.45649  22027017.5534   22027023.4074
  22183340.795   -15010946.94049 -11660614.87149  22183341.5424   22183345.7384
  23045718.202   -13465718.61449 -10453976.15049  23045717.6924   23045722.7744
  19366906.827    -6062717.51649  -4700211.98649  19366905.9204   19366911.5404
  23271992.016    -2128753.63549  -1652963.40349  23271991.8954   23271998.2984
 97  1 14  1 17 59.9960000  0  7  2 27 26  4  9  7 15
  20424171.732    -4617836.42349  -3589868.30549  20424171.2104   20424177.0834
  21523356.989     1718500.34249   1337352.59649  21523356.2714   21523362.4104
  22021823.652    -4244136.74149  -3296880.27249  22021823.4994   22021829.5264
  22151718.599   -15177123.45049 -11790103.03549  22151719.1044   22151722.8234
  23014638.778   -13629041.96649 -10581241.07949  23014639.3474   23014643.2374
  19357476.825    -6112272.46749  -4738826.22049  19357476.0984   19357481.8874
  23271628.863    -2130662.52549  -1654450.86249  23271628.7874   23271634.8754
 97  1 14  1 18 29.9960000  0  7  2 27 26  4  9  7 15
  20415653.520    -4662600.30349  -3624749.24649  20415652.8784   20415658.4754
  21529634.174     1751487.11249   1363056.56849  21529633.9854   21529639.2584
  22016715.339    -4270981.96549  -3317798.63749  22016715.2454   22016720.7904
  22120134.605   -15343098.86649 -11919434.50349  22120134.4104   22120138.9994
  22983590.751   -13792200.10149 -10708377.24349  22983589.3324   22983596.1684
  19348131.070    -6161384.75449  -4777095.52649  19348130.4284   19348135.7904
  23271362.796    -2132059.99649  -1655539.78249  23271362.7814   23271368.4974
 97  1 14  1 18 59.9960000  0  7  2 27 26  4  9  7 15
  20407181.573    -4707120.92349  -3659440.63249  20407180.7434   20407186.6284
  21535979.548     1784832.27349   1389039.79949  21535979.3324   21535984.5164
  22011693.030    -4297374.25749  -3338364.06149  22011693.0024   22011699.2234
  22088591.299   -15508859.74849 -12048598.79849  22088591.0874   22088595.3354
  22952577.344   -13955176.38649 -10835371.73849  22952577.8414   22952582.5214
  19338870.890    -6210047.16949  -4815014.28249  19338870.0794   19338875.6284
  23271195.792    -2132938.34049  -1656224.20849  23271195.1674   23271198.8324
 97  1 14  1 19 29.9960000  0  7  2 27 26  4  9  7 15
  20398751.361    -4751421.73649  -3693960.74049  20398750.5194   20398756.5504
  21542386.026     1818498.82049   1415273.47349  21542385.4474   21542391.5494
  22006752.410    -4323337.63349  -3358595.27649  22006751.1634   22006758.0404
  22057088.718   -15674406.23749 -12177596.03449  22057088.7154   22057092.5654
  22921595.425   -14117987.34449 -10962237.37749  22921594.2314   22921600.7684
  19329694.362    -6258270.03749  -4852590.52649  19329693.2824   19329699.0634
  23271124.336    -2133314.33149  -1656517.14249  23271122.5274   23271130.1724
 97  1 14  1 19 59.9960000  0  7  2 27 26  4  9  7 15
  20390353.135    -4795554.70049  -3728350.05249  20390351.9534   20390358.2484
  21548838.650     1852406.98849   1441695.41549  21548837.9704   21548843.2564
  22001880.030    -4348942.00349  -3378546.73249  22001880.1654   22001885.6884
  22025615.724   -15839797.52249 -12306472.33049  22025615.0944   22025619.7014
  22890636.478   -14280677.44849 -11089008.87349  22890635.3834   22890641.7144
  19320588.055    -6306123.77449  -4889879.13749  19320587.1164   19320592.7294
  23271137.564    -2133244.85249  -1656463.02549  23271137.7574   23271141.5334
 97  1 14  1 20 29.9960000  0  7  2 27 26  4  9  7 15
  20381995.058    -4839476.06049  -3762574.48249  20381994.0694   20382000.1644
  21555344.527     1886594.56949   1468335.06949  21555344.6654   21555348.8804
  21997084.981    -4374139.30149  -3398181.00449  21997085.1954   21997090.8974
  21994177.350   -16005006.27449 -12435206.39849  21994176.6984   21994181.2164
  22859710.320   -14443195.58749 -11215646.39049  22859708.8834   22859715.9464
  19311557.629    -6353578.87449  -4926857.12849  19311556.7674   19311562.3544
  23271244.038    -2132685.96249  -1656027.51649  23271243.4334   23271247.6954
 97  1 14  1 20 59.9960000  0  7  2 27 26  4  9  7 15
  20373674.243    -4883201.99849  -3796646.63049  20373673.2404   20373679.1854
  21561900.439     1921046.14049   1495180.44349  21561900.6774   21561905.3754
  21992366.917    -4398932.90449  -3417500.68949  21992367.2714   21992373.2414
  21962768.706   -16170058.96249 -12563818.84449  21962767.8324   21962772.7954
  22828814.152   -14605556.51149 -11342161.37149  22828814.5514   22828819.3824
  19302599.855    -6400652.17449  -4963537.60249  19302598.8494   19302604.7374
  23271440.339    -2131653.97849  -1655223.37749  23271440.5474   23271446.5244
 97  1 14  1 21 29.9960000  0  7  2 27 26  4  9  7 15
  20365398.168    -4926692.90649  -3830535.64349  20365397.2294   20365403.3474
  21568511.556     1955787.40849   1522251.53649  21568510.9814   21568516.1874
  21987731.022    -4423294.66749  -3436483.88549  21987730.9814   21987736.9894
  21931395.106   -16334927.65949 -12692287.93649  21931395.0014   21931399.5574
  22797953.229   -14767731.77849 -11468531.68249  22797952.0264   22797958.2264
  19293722.456    -6447303.14049  -4999888.99349  19293721.5744   19293727.5844
  23271732.768    -2130118.01149  -1654026.53449  23271731.5554   23271739.5044
 97  1 14  1 21 59.9960000  0  7  2 27 26  4  9  7 15
  20357152.112    -4970026.21449  -3864301.84949  20357151.1974   20357157.5204
  21575166.490     1990759.07949   1549502.17749  21575166.1934   21575170.6564
  21983162.422    -4447302.92349  -3455191.61249  21983162.5334   21983168.5724
  21900040.292   -16499698.00449 -12820680.38049  21900039.7984   21900044.2034
  22767112.862   -14929799.23949 -11594818.01749  22767112.0764   22767117.7014
  19284909.856    -6493613.52849  -5035974.99749  19284908.9954   19284914.7864
  23272104.977    -2128162.39049  -1652502.65949  23272103.6284   23272111.2814
 97  1 14  1 22 29.9960000  0  7  2 27 26  4  9  7 15
  20348965.437    -5013047.24649  -3897824.72449  20348964.4354   20348970.6444
  21581900.997     2026148.70749   1577078.49649  21581900.3414   21581905.7024
  21978694.897    -4470779.83649  -3473485.31149  21978695.5364   21978700.4824
  21868738.795   -16664188.81349 -12948854.99949  21868738.5874   21868742.7054
  22736323.572   -15091597.95349 -11720894.91749  22736322.7614   22736328.6084
  19276197.175    -6539398.91249  -5071651.90549  19276196.3674   19276202.1144
  23272587.847    -2125625.29849  -1650525.69549  23272588.7224   23272592.4144
 97  1 14  1 22 59.9960000  0  7  2 27 26  4  9  7 15
  20340824.434    -5055828.37649  -3931160.66249  20340823.6614   20340829.7114
  21588703.130     2061893.79049   1604931.79249  21588702.9024   21588708.0424
  21974314.376    -4493800.17649  -3491423.25449  21974315.0284   21974320.2014
  21837479.862   -16828455.13749 -13076854.70349  21837479.2284   21837484.0754
  22705572.598   -15253194.80049 -11846814.50749  22705572.9894   22705578.0374
  19267573.497    -6584716.54649  -5106964.33449  19267572.8674   19267578.4374
  23273166.853    -2122582.18049  -1648154.44249  23273164.9234   23273173.9844
 97  1 14  1 23 29.9960000  0  7  2 27 26  4  9  7 15
  20332704.811    -5098497.03849  -3964408.96949  20332704.0524   20332710.1204
  21595548.645     2097867.26649   1632963.06949  21595548.4234   21595553.9204
  21969993.692    -4516505.84949  -3509115.99349  21969993.4304   21969998.7244
  21806239.666   -16992622.22749 -13204777.07949  21806238.9654   21806244.2854
  22674835.847   -15414718.46549 -11972677.09149  22674834.7894   22674840.0114
  19259010.682    -6629714.49149  -5142027.65949  19259010.1954   19259015.6314
  23273815.425    -2119173.76849  -1645498.51749  23273814.9934   23273820.9904
 97  1 14  1 23 59.9960000  0  7  2 27 26  4  9  7 15
  20324607.837    -5141046.47149  -3997564.36149  20324606.8374   20324613.1234
  21602441.245     2134087.64349   1661186.73349  21602440.6224   21602446.1734
  21965735.794    -4538880.90849  -3526551.09849  21965736.0774   21965741.5784
  21775023.575   -17156663.06349 -13332601.08049  21775023.3454   21775028.3564
  22644116.408   -15576150.12049 -12098467.95449  22644116.2254   22644121.4564
  19250505.432    -6674410.08149  -5176855.37349  19250504.5434   19250510.2594
  23274534.303    -2115396.53649  -1642555.20149  23274534.2254   23274539.4854
 97  1 14  1 24 29.9960000  0  7  2 27 26  4  9  7 15
  20316545.157    -5183416.14649  -4030579.69249  20316544.4894   20316550.4884
  21609389.460     2170600.60449   1689638.37849  21609388.1024   21609394.3134
  21961553.035    -4560862.28549  -3543679.45349  21961553.5834   21961558.6904
  21743844.415   -17320510.40749 -13460274.30549  21743844.2704   21743849.3624
  22613424.854   -15737434.95049 -12224144.40049  22613425.1224   22613429.3724
  19242068.758    -6718744.73349  -5211401.83849  19242068.0534   19242073.7234
  23275335.405    -2111186.77449  -1639274.86149  23275333.2024   23275340.1554
 97  1 14  1 24 59.9960000  0  7  2 27 26  4  9  7 15
  20308533.384    -5225518.52049  -4063386.73449  20308532.8654   20308538.6144
  21616405.110     2207468.05949   1718366.25149  21616404.5944   21616409.8964
  21957457.867    -4582383.78449  -3560449.45349  21957457.6984   21957462.8864
  21712716.130   -17484090.65249 -13587739.39949  21712715.8904   21712720.6154
  22582775.637   -15898498.14249 -12349648.14949  22582774.8204   22582779.9954
  19233711.228    -6762664.23949  -5245624.81649  19233710.4394   19233715.9974
  23276233.730    -2106466.64649  -1635596.85449  23276233.9594   23276237.7484
 97  1 14  1 25 29.9960000  0  7  2 27 26  4  9  7 15
  20300558.218    -5267428.92949  -4096044.19449  20300557.6664   20300563.3384
  21623471.764     2244603.52349   1747302.97949  21623471.1224   21623476.9214
  21953436.641    -4603515.58749  -3576915.78749  21953436.3124   21953442.3374
  21681625.006   -17647475.96949 -13715052.59549  21681624.9534   21681629.8544
  22552153.876   -16059415.81049 -12475038.50149  22552154.7084   22552157.8934
  19225414.053    -6806266.34849  -5279600.46949  19225413.5334   19225418.9944
  23277215.007    -2101310.08849  -1631578.67349  23277212.9314   23277220.4664
 97  1 14  1 25 59.9960000  0  7  2 27 26  4  9  7 15
  20292629.846    -5309092.82249  -4128509.56149  20292628.6364   20292634.7844
  21630600.243     2282064.64049   1776493.45249  21630600.1274   21630605.0404
  21949501.969    -4624191.76349  -3593027.10249  21949501.9264   21949507.5224
  21650585.644   -17810588.96049 -13842153.59149  21650585.9114   21650590.1644
  22521574.719   -16220110.07649 -12600254.77349  22521574.9484   22521579.8064
  19217193.491    -6849465.40449  -5313262.06149  19217192.5044   19217198.1584
  23278292.964    -2095644.72649  -1627164.16249  23278291.9144   23278297.5664
 97  1 14  1 26 29.9960000  0  6  2 27 26  4  9  7
  20284727.713    -5350618.49549  -4160867.22149  20284726.7664   20284732.9864
  21637769.190     2319737.64349   1805849.03749  21637768.8844   21637774.5664
  21945632.477    -4644526.47049  -3608872.33349  21945632.5354   21945638.1654
  21619575.793   -17973546.46749 -13969133.42349  21619576.3694   21619580.7184
  22491019.092   -16380680.70249 -12725374.69249  22491018.9324   22491023.4114
  19209034.355    -6892341.87849  -5346672.28649  19209033.8334   19209039.3804
 97  1 14  1 26 59.9960000  0  6  2 27 26  4  9  7
  20276870.899    -5391906.31449  -4193039.54549  20276870.1054   20276876.0674
  21644996.827     2357719.74649   1835445.48549  21644995.7114   21645002.6114
  21941843.347    -4664438.91249  -3624388.52449  21941843.0984   21941849.0324
  21588613.765   -18136253.42249 -14095918.02749  21588613.7144   21588618.9454
  22460506.875   -16541022.87449 -12850316.58749  22460505.9954   22460511.4914
  19200954.970    -6934799.84449  -5379756.41049  19200954.3364   19200959.7934
 97  1 14  1 27 29.9960000  0  6  2 27 26  4  9  7
  20269050.488    -5433002.75149  -4225062.73549  20269049.6594   20269055.8664
  21652276.522     2395974.42549   1865254.31449  21652276.2614   21652281.4944
  21938126.173    -4683972.88249  -3639609.79749  21938125.8524   21938130.6204
  21557691.869   -18298749.72549 -14222538.47449  21557691.0814   21557696.2544
  22430031.747   -16701171.33149 -12975107.56949  22430031.6124   22430036.3514
  19192950.206    -6976865.36249  -5412534.72349  19192949.2784   19192954.7294
 97  1 14  1 27 59.9960000  0  6  2 27 26  4  9  7
  20261247.173    -5474009.25349  -4257015.84849  20261246.4814   20261252.7064
  21659589.714     2434405.24549   1895200.40249  21659589.5784   21659595.4534
  21934462.265    -4703226.59949  -3654612.69749  21934462.6574   21934467.2664
  21526792.690   -18461125.31249 -14349064.87349  21526792.5224   21526797.0064
  22399573.405   -16861230.18349 -13099828.69549  22399571.7694   22399578.2714
  19185005.250    -7018616.01649  -5445067.69149  19185004.4484   19185009.9384
 97  1 14  1 28 29.9960000  0  6  2 27 26  4  9  7
  20253462.873    -5514916.09149  -4288891.29849  20253462.2504   20253468.2774
  21666934.983     2473004.41349   1925277.66749  21666934.0144   21666939.8794
  21930851.689    -4722200.91549  -3669397.86849  21930850.9384   21930856.5584
  21495916.088   -18623381.92449 -14475498.55549  21495915.9374   21495920.8504
  22369128.984   -17021216.61949 -13224493.43749  22369128.2354   22369133.0464
  19177116.611    -7060071.01649  -5477370.27149  19177115.8894   19177121.3004
 97  1 14  1 28 59.9960000  0  6  2 27 26  4  9  7
  20245711.149    -5555651.83149  -4320633.42849  20245710.4864   20245716.3914
  21674324.785     2511837.80949   1955537.44049  21674324.1684   21674329.6304
  21927308.252    -4740821.08749  -3683907.08149  21927307.6014   21927312.9854
  21465077.709   -18785438.48149 -14601776.36049  21465077.7564   21465081.7844
  22338712.192   -17181057.63749 -13349044.86349  22338711.2024   22338717.3274
  19169295.688    -7101170.10349  -5509395.52749  19169294.7234   19169300.4024
 97  1 14  1 29 29.9960000  0  6  2 27 26  4  9  7
  20237985.784    -5596248.84049  -4352267.45249  20237985.0444   20237991.1224
  21681754.604     2550880.94749   1985960.64349  21681755.0934   21681759.3464
  21923830.472    -4759096.83149  -3698147.91449  21923829.7984   21923835.5604
  21434274.525   -18947309.67949 -14727909.72249  21434274.7704   21434279.1724
  22308318.908   -17340775.25649 -13473500.13649  22308318.5724   22308323.6024
  19161537.747    -7141938.36249  -5541162.99749  19161537.2044   19161542.4614
 97  1 14  1 29 59.9950000  0  6  2 27 26  4  9  7
  20230299.113    -5636642.95849  -4383743.38749  20230298.6064   20230304.2224
  21689232.108     2590174.95149   2016579.32949  21689231.8874   21689236.5204
  21920427.719    -4776977.77849  -3712081.11449  21920427.7844   21920432.7944
  21403518.612   -19108933.23349 -14853850.10449  21403517.8934   21403523.0174
  22277960.941   -17500306.78449 -13597810.39949  22277960.0594   22277966.2074
  19153849.912    -7182338.34349  -5572643.49749  19153849.3564   19153854.6784
 97  1 14  1 30 29.9950000  0  6  2 27 26  4  9  7
  20222656.552    -5676804.99049  -4415038.46449  20222656.0274   20222661.6324
  21696760.214     2629735.98449   2047406.08349  21696760.5454   21696765.2034
  21917100.866    -4794460.67449  -3725704.14349  21917099.9074   21917106.3224
  21372808.314   -19270316.61649 -14979603.35649  21372808.0834   21372813.0244
  22247641.442   -17659637.33549 -13721964.06449  22247640.6994   22247645.2714
  19146230.881    -7222376.89549  -5603842.35849  19146230.2214   19146235.6074
 97  1 14  1 30 59.9950000  0  6  2 27 26  4  9  7
  20215090.402    -5716565.71949  -4446020.84349  20215089.8054   20215095.6074
  21704372.136     2669736.27249   2078575.11349  21704371.2564   21704376.3754
  21913880.509    -4811384.04749  -3738891.19249  21913880.4964   21913886.0544
  21342177.329   -19431282.75949 -15105031.48049  21342177.2684   21342181.7044
  22217394.206   -17818587.74249 -13845821.49749  22217394.1584   22217398.5794
  19138711.882    -7261889.33149  -5634631.25549  19138711.1264   19138716.1664
 97  1 14  1 31 29.9950000  0  6  2 27 26  4  9  7
  20207576.244    -5756053.11249  -4476790.23949  20207575.5974   20207581.2504
  21712042.555     2710044.82749   2109984.36349  21712041.8664   21712047.2534
  21910739.970    -4827887.54549  -3751751.06949  21910740.2304   21910745.4454
  21311603.798   -19591948.19049 -15230225.27649  21311603.0544   21311608.2914
  22187195.502   -17977282.44749 -13969479.68849  22187194.5354   22187200.4284
  19131267.176    -7301011.35949  -5665115.94649  19131266.3804   19131271.8034
 97  1 14  1 31 59.9950000  0  6  2 27 26  4  9  7
  20200097.622    -5795353.89449  -4507414.21649  20200097.2444   20200102.7664
  21719752.622     2750561.93549   2141556.13549  21719751.5694   21719757.5014
  21907658.827    -4844078.83949  -3764367.65549  21907658.8134   21907664.1184
  21281068.222   -19752413.51749 -15355263.15249  21281068.0834   21281072.5534
  22157029.676   -18135804.84549 -14093003.62549  22157029.1184   22157034.2344
  19123878.036    -7339841.63549  -5695373.29149  19123877.3354   19123882.7194
 97  1 14  1 32 29.9950000  0  6  2 27 26  4  9  7
  20192660.664    -5834435.77649  -4537867.63049  20192659.9624   20192665.4874
  21727512.304     2791340.12049   2173331.35649  21727512.1764   21727516.4224
  21904645.584    -4859913.16149  -3776706.09649  21904645.4204   21904651.2374
  21250580.772   -19912625.55449 -15480103.67849  21250580.4494   21250584.7904
  22126905.980   -18294104.81349 -14216354.24149  22126904.7434   22126911.7934
  19116556.003    -7378319.16349  -5725355.77349  19116555.2644   19116560.7174
 97  1 14  1 32 59.9950000  0  6  2 27 26  4  9  7
  20185267.800    -5873285.43349  -4568140.08449  20185266.9904   20185272.7854
  21735326.293     2832403.40049   2205328.71849  21735325.5474   21735331.4624
  21901707.638    -4875352.43549  -3788736.70649  21901707.7834   21901713.0604
  21220150.740   -20072536.14149 -15604709.29749  21220150.4064   21220155.2164
  22096831.498   -18452146.42449 -14339503.52649  22096830.6124   22096836.8734
  19109309.552    -7416399.75249  -5755028.95249  19109308.6814   19109314.0744
 97  1 14  1 33 29.9950000  0  6  2 27 26  4  9  7
  20177901.136    -5911997.30749  -4598305.17149  20177900.1004   20177906.1164
  21743175.903     2873652.61049   2237470.94949  21743175.4934   21743181.7134
  21898825.400    -4890498.11649  -3800538.51349  21898825.3394   21898830.9284
  21189759.409   -20232243.50849 -15729156.56949  21189759.3054   21189764.1094
  22066788.405   -18610024.00549 -14462524.98649  22066788.0214   22066794.1124
  19102122.865    -7454165.97749  -5784457.16649  19102122.1764   19102127.4174
 97  1 14  1 33 59.9950000  0  6  2 27 26  4  9  7
  20170577.218    -5950484.62849  -4628295.28549  20170576.4704   20170582.3394
  21751074.662     2915161.88849   2269815.84549  21751073.7654   21751080.0154
  21896014.686    -4905269.16349  -3812048.42849  21896015.5344   21896019.8364
  21159418.876   -20391684.42649 -15853396.22349  21159418.6594   21159423.3164
  22036789.753   -18767667.90049 -14585364.34649  22036789.0484   22036794.8744
  19095010.833    -7491539.47949  -5813579.37149  19095009.8104   19095015.3424
 97  1 14  1 34 29.9950000  0  6  2 27 26  4  9  7
  20163309.262    -5988677.83949  -4658056.23149  20163308.2424   20163314.1234
  21759035.275     2956994.97949   2302413.04549  21759034.3044   21759040.5814
  21893290.055    -4919587.20149  -3823205.33649  21893289.7014   21893295.3054
  21129143.875   -20550780.18849 -15977366.92849  21129144.2084   21129148.8304
  22006847.062   -18925018.90349 -14707975.50749  22006846.9174   22006851.6614
  19087984.883    -7528460.76049  -5842349.19649  19087984.0244   19087989.6054
 97  1 14  1 34 59.9950000  0  6  2 27 26  4  9  7
  20156079.612    -6026669.52149  -4687660.13749  20156078.9274   20156084.6394
  21767037.781     2999049.06149   2335182.44549  21767037.3244   21767043.6694
  21890632.484    -4933553.03949  -3834087.80849  21890632.1914   21890638.1844
  21098913.837   -20709639.61249 -16101153.48049  21098913.2264   21098918.7244
  21976939.582   -19082183.92949 -14830441.74949  21976939.8314   21976944.5504
  19081021.971    -7565050.80949  -5870860.91949  19081021.1644   19081026.6724
 97  1 14  1 35 29.9950000  0  6  2 27 26  4  9  7
  20148898.561    -6064405.94449  -4717065.13949  20148897.5784   20148903.7724
  21775092.354     3041376.55449   2368164.90849  21775092.2074   21775098.3044
  21888048.284    -4947132.96449  -3844669.57049  21888048.1004   21888053.3084
  21068737.954   -20868215.80449 -16224719.30849  21068737.6164   21068742.0734
  21947077.742   -19239109.51949 -14952721.40349  21947077.2654   21947082.2584
  19074127.432    -7601281.77249  -5899092.82749  19074126.3274   19074132.3434
 97  1 14  1 35 59.9950000  0  6  2 27 26  4  9  7
  20141779.731    -6101815.11849  -4746215.14549  20141778.6474   20141784.6574
  21783213.905     3084056.17949   2401421.76949  21783213.3754   21783219.2644
  21885552.744    -4960246.56149  -3854887.95649  21885552.5674   21885558.1944
  21038631.580   -21026425.67749 -16347999.70549  21038631.6784   21038636.0734
  21917279.116   -19395703.15049 -15074742.41749  21917278.5244   21917283.1094
  19067312.331    -7637095.03349  -5926999.26249  19067311.7454   19067317.1674
 97  1 14  1 36 29.9950000  0  6  2 27 26  4  9  7
  20134685.297    -6139096.51249  -4775265.57449  20134684.9284   20134690.3654
  21791367.282     3126902.89549   2434808.79949  21791367.9404   21791372.2514
  21883108.166    -4973093.22849  -3864898.36549  21883108.2694   21883113.7534
  21008561.754   -21184443.54949 -16471130.48949  21008561.6854   21008565.9194
  21887505.850   -19552163.09149 -15196659.22749  21887506.2254   21887510.9384
  19060539.416    -7672687.10549  -5954733.33349  19060539.0134   19060544.2214
 97  1 14  1 36 59.9950000  0  6  2 27 26  4  9  7
  20127633.962    -6176152.13949  -4804140.09449  20127633.4494   20127639.1404
  21799569.169     3170002.13249   2468392.61149  21799568.6134   21799574.3544
  21880727.418    -4985604.53149  -3874647.42249  21880727.7074   21880732.4134
  20978548.151   -21342165.64749 -16594030.80649  20978547.9034   20978552.4964
  21857776.439   -19708392.19949 -15318396.18849  21857777.3664   21857780.6674
  19053828.446    -7707953.58349  -5982213.70249  19053827.7704   19053832.9674
 97  1 14  1 37 29.9950000  0  6  2 27 26  4  9  7
  20120610.171    -6213062.64749  -4832901.52349  20120609.6424   20120615.1274
  21807800.504     3213256.68649   2502097.43449  21807800.0444   21807805.3824
  21878390.435    -4997885.02449  -3884216.64149  21878390.6154   21878395.9114
  20948576.333   -21499668.03649 -16716759.90949  20948576.3024   20948580.7264
  21828074.210   -19864478.83449 -15440022.11649  21828074.1094   21828079.4784
  19047166.128    -7742964.45049  -6009494.88249  19047165.1824   19047170.6684
 97  1 14  1 37 59.9950000  0  6  2 27 26  4  9  7
  20113637.587    -6249703.94149  -4861453.18249  20113637.0094   20113642.6724
  21816079.559     3256764.54149   2535999.62849  21816079.0534   21816084.3554
  21876120.387    -5009814.17349  -3893512.08649  21876120.5874   21876125.9364
  20918666.453   -21656845.33949 -16839235.70749  20918666.2794   20918670.9024
  21798418.192   -20020322.59149 -15561458.81949  21798418.2794   21798422.0054
  19040577.062    -7777589.87849  -6036475.72949  19040576.5234   19040581.8764
 97  1 14  1 38 29.9950000  0  6  2 27 26  4  9  7
  20106708.971    -6286114.06549  -4889824.70649  20106707.9064   20106713.9874
  21824395.871     3300468.51649   2570054.64149  21824395.0264   21824401.5444
  21873909.144    -5021434.30949  -3902566.73849  21873908.8984   21873914.4754
  20888811.932   -21813731.59549 -16961484.72249  20888811.2674   20888816.3724
  21768798.974   -20175972.62049 -15682744.52749  21768799.4144   21768803.5414
  19034057.308    -7811851.90149  -6063173.39649  19034056.9674   19034061.8784
 97  1 14  1 38 59.9950000  0  6  2 27 26  4  9  7
  20099824.013    -6322294.37649  -4918017.14949  20099823.0524   20099829.1734
  21832747.994     3344359.45349   2604255.35449  21832747.5134   21832753.2894
  21871758.622    -5032735.29749  -3911372.69949  21871758.1574   21871764.5824
  20859010.166   -21970340.75349 -17083517.80949  20859010.1284   20859014.5174
  21739222.048   -20331400.95549 -15803857.49949  21739221.2304   21739226.7964
  19027607.893    -7845744.29749  -6089583.03749  19027607.2924   19027612.4034
 97  1 14  1 39 29.9950000  0  6  2 27 26  4  9  7
  20092994.747    -6358182.20449  -4945981.68949  20092993.9004   20092999.8394
  21841152.167     3388523.09249   2638668.54349  21841151.4754   21841157.4374
  21869687.603    -5043617.70049  -3919852.49549  21869687.1314   21869692.5704
  20829274.612   -22126601.51649 -17205279.42349  20829273.8944   20829279.6674
  21709703.144   -20486524.03649 -15924732.60049  21709702.2264   21709706.4094
  19021241.131    -7879202.04249  -6115653.99849  19021240.5694   19021245.5444
 97  1 14  1 39 59.9950000  0  6  2 27 26  4  9  7
  20086202.621    -6393874.37149  -4973793.76349  20086201.7124   20086208.1904
  21849591.027     3432867.81649   2673222.86249  21849590.0944   21849595.6924
  21867681.575    -5054159.25349  -3928066.69749  21867681.6694   21867687.4364
  20799589.117   -22282599.39249 -17326836.18749  20799589.1944   20799593.9234
  21680228.453   -20641414.51549 -16045426.46449  21680227.6214   21680233.3134
  19014935.367    -7912339.32049  -6141475.24249  19014934.6154   19014939.9204
 97  1 14  1 40 29.9950000  0  6  2 27 26  4  9  7
  20079446.083    -6429380.35349  -5001460.76549  20079445.6194   20079451.2974
  21858067.689     3477411.84249   2707932.47649  21858066.6054   21858071.8714
  21865738.518    -5064369.29649  -3936022.57249  21865738.3244   21865744.4754
  20769956.768   -22438318.09149 -17448175.40549  20769956.5084   20769962.0534
  21650802.074   -20796051.58949 -16165922.85949  21650801.4024   21650806.3244
  19008688.741    -7945165.47549  -6167054.05249  19008688.0794   19008693.1784
 97  1 14  1 40 59.9950000  0  6  2 27 26  4  9  7
  20072711.280    -6464772.47849  -5029039.04449  20072710.8114   20072716.4594
  21866570.895     3522098.39449   2742753.14149  21866569.7994   21866576.2384
  21863842.590    -5074332.48849  -3943786.08949  21863842.3474   21863848.6844
  20740363.524   -22593831.62449 -17569354.75149  20740363.4554   20740368.6874
  21621410.573   -20950504.62349 -16286275.84749  21621410.0494   21621414.8914
  19002485.443    -7977763.90649  -6192455.41449  19002484.7144   19002489.8024
 97  1 14  1 41 29.9950000  0  6  2 27 26  4  9  7
  20066017.582    -6499948.23449  -5056448.71949  20066016.7464   20066022.7834
  21875119.833     3567023.97749   2777760.07249  21875118.7704   21875125.2414
  21862007.423    -5083976.12449  -3951300.60949  21862007.2874   21862013.2034
  20710831.481   -22749023.38449 -17690283.37449  20710831.4104   20710836.6524
  21592070.654   -21104686.67249 -16406417.68449  21592070.8604   21592075.3104
  18996344.449    -8010035.06049  -6217601.75849  18996343.6754   18996348.7974
 97  1 14  1 41 59.9940000  0  6  2 27 26  4  9  7
  20059366.225    -6534901.24349  -5083684.83249  20059365.8504   20059371.2644
  21883714.320     3612188.01549   2812952.81349  21883713.4304   21883718.7954
  21860230.379    -5093313.89849  -3958576.80249  21860230.6874   21860236.4654
  20681360.286   -22903895.23649 -17810962.71049  20681360.7324   20681365.3164
  21562783.950   -21258588.71149 -16526341.31049  21562784.0754   21562788.7384
  18990266.889    -8041972.81149  -6242488.30449  18990266.1624   18990271.1314
 97  1 14  1 42 29.9940000  0  6  2 27 26  4  9  7
  20052744.385    -6569699.46949  -5110800.33149  20052743.9444   20052749.1354
  21892343.714     3657535.59249   2848288.57649  21892342.7764   21892348.7464
  21858499.947    -5102408.54949  -3965663.55349  21858500.8854   21858505.3624
  20651937.532   -23058513.66349 -17931444.57149  20651937.4814   20651942.3574
  21533535.666   -21412289.67949 -16646108.25949  21533534.6144   21533539.3644
  18984246.169    -8073612.10549  -6267142.28849  18984245.4004   18984250.6444
 97  1 14  1 42 59.9940000  0  6  2 27 26  4  9  7
  20046155.853    -6604322.91049  -5137779.63449  20046155.2554   20046160.8394
  21901005.693     3703056.00249   2883759.02549  21901005.3994   21901011.0764
  21856819.503    -5111240.38349  -3972545.50249  21856819.4394   21856824.7084
  20622566.772   -23212857.68949 -18051712.61849  20622567.0244   20622571.2224
  21504327.270   -21565780.01749 -16765711.08649  21504326.5844   21504330.8754
  18978283.639    -8104945.71449  -6291558.07849  18978282.7384   18978288.1174
 97  1 14  1 43 29.9940000  0  6  2 27 26  4  9  7
  20039618.384    -6638677.33249  -5164549.31449  20039617.5614   20039623.2754
  21909715.345     3748825.70349   2919423.70449  21909715.3304   21909720.3914
  21855209.063    -5119703.71649  -3979140.30849  21855209.1644   21855214.5774
  20593266.751   -23366829.88149 -18171690.93549  20593266.6884   20593271.7884
  21475178.226   -21718958.76249 -16885071.11549  21475177.7944   21475182.6104
  18972395.169    -8135889.66149  -6315670.23649  18972394.4854   18972399.3184
 97  1 14  1 43 59.9940000  0  6  2 27 26  4  9  7
  20033125.593    -6672797.26949  -5191136.27449  20033125.0764   20033130.6274
  21918464.965     3794804.74849   2955251.52249  21918464.7134   21918469.6874
  21853663.083    -5127827.90349  -3985470.83149  21853663.7034   21853668.8644
  20564030.814   -23520465.62949 -18291407.08949  20564030.5084   20564035.3654
  21446082.233   -21871858.92949 -17004214.07049  21446081.9764   21446086.4524
  18966572.358    -8166489.03849  -6339513.89649  18966571.8264   18966576.6984
 97  1 14  1 44 29.9940000  0  6  2 27 26  4  9  7
  20026676.039    -6706689.66949  -5217545.93449  20026675.3114   20026680.8274
  21927248.584     3840962.94249   2991218.95349  21927247.7324   21927253.3454
  21852177.491    -5135635.70149  -3991554.83749  21852177.5724   21852182.8724
  20534860.863   -23673755.27649 -18410853.54149  20534860.4024   20534865.3964
  21417035.307   -22024501.26649 -17123156.12449  21417034.4864   21417039.2284
  18960811.380    -8196763.35049  -6363104.26649  18960810.5944   18960815.7324
 97  1 14  1 44 59.9940000  0  6  2 27 26  4  9  7
  20020294.274    -6740226.03849  -5243678.16849  20020293.7194   20020299.2434
  21936087.255     3887409.79249   3027411.30349  21936086.7234   21936091.8804
  21850773.008    -5143015.60349  -3997305.41949  21850772.7754   21850778.4454
  20505778.109   -23826585.59349 -18529942.08149  20505777.4764   20505783.1004
  21388060.808   -22176763.10149 -17241801.67749  21388059.3354   21388064.6444
  18955129.314    -8226623.02649  -6386371.53749  18955128.7174   18955133.4394
 97  1 14  1 45 29.9940000  0  6  2 27 26  4  9  7
  20013971.814    -6773450.92649  -5269567.69349  20013971.1264   20013976.5794
  21944973.554     3934107.94149   3063799.48049  21944972.9914   21944978.4514
  21849437.962    -5150030.50349  -4002771.58449  21849437.4094   21849443.3354
  20476773.020   -23979007.14549 -18648712.10349  20476773.2754   20476777.6154
  21359151.534   -22328682.18949 -17360180.15549  21359151.4574   21359156.0354
  18949519.046    -8256105.38449  -6409344.80249  18949518.0124   18949522.9094
 97  1 14  1 45 59.9940000  0  6  2 27 26  4  9  7
  20007712.992    -6806341.52049  -5295196.71949  20007712.2094   20007717.8784
  21953912.453     3981082.01049   3100402.65249  21953912.0534   21953917.6794
  21848175.382    -5156665.01549  -4007941.33549  21848175.7334   21848181.2014
  20447851.470   -24130991.24549 -18767141.24749  20447851.0674   20447856.1664
  21330310.568   -22480242.49949 -17478279.05049  21330310.5834   21330314.8354
  18943984.901    -8285187.51249  -6432006.19249  18943984.2334   18943989.0254
 97  1 14  1 46 29.9940000  0  6  2 27 26  4  9  7
  20001485.537    -6839067.16049  -5320697.21749  20001484.7104   20001490.3164
  21962871.633     4028163.04849   3137089.18549  21962870.6614   21962877.3004
  21846952.414    -5163092.75349  -4012949.95649  21846952.9694   21846957.9474
  20418978.583   -24282718.64149 -18885370.37049  20418979.0754   20418983.7594
  21301505.739   -22631612.56249 -17596229.72949  21301504.8154   21301510.2274
  18938492.117    -8314052.26349  -6454498.20049  18938491.4654   18938496.4214
 97  1 14  1 46 59.9940000  0  6  2 27 26  4  9  7
  19995287.918    -6871635.59349  -5346075.20249  19995287.2814   19995292.7774
  21971850.957     4075350.06449   3173858.26649  21971851.6344   21971856.3324
  21845767.897    -5169317.88349  -4017800.70349  21845768.5194   21845772.9854
  20390151.045   -24434208.81749 -19003414.63049  20390150.9724   20390156.1584
  21272737.227   -22782791.91949 -17714031.78949  21272736.9414   21272741.4354
  18933039.423    -8342706.33649  -6476826.04149  18933038.4504   18933043.7164
 97  1 14  1 47 29.9940000  0  6  2 27 26  4  9  7
  19989110.276    -6904099.26949  -5371371.57249  19989109.5474   19989115.0254
  21980841.953     4122599.90249   3210676.30149  21980841.6904   21980847.8874
  21844613.413    -5175385.31349  -4022528.58349  21844613.5694   21844618.4444
  20361361.414   -24585499.24949 -19121303.26749  20361360.7034   20361365.9824
  21243994.663   -22933834.97749 -17831727.66149  21243994.7584   21243999.1684
  18927619.681    -8371186.75449  -6499018.57149  18927618.2034   18927623.8284
 97  1 14  1 47 59.9940000  0  6  2 27 26  4  9  7
  19982979.115    -6936318.65749  -5396477.58249  19982978.2224   19982983.8584
  21989872.693     4170056.14949   3247655.19249  21989871.7394   21989879.0274
  21843517.477    -5181143.95549  -4027015.83649  21843517.1084   21843523.0234
  20332638.342   -24736439.22449 -19238918.80749  20332638.7274   20332643.5424
  21215305.309   -23084598.77949 -17949205.92049  21215304.4704   21215309.1734
  18922257.537    -8399364.37449  -6520975.15249  18922256.6544   18922261.8874
 97  1 14  1 48 29.9940000  0  7 24  2 27 26  4  9  7
  22841671.436    -6858431.58849  -5323916.49949  22841671.4204   22841679.4014
  19976904.615    -6968240.06749  -5421351.40549  19976903.8574   19976909.4394
  21998950.501     4217761.45949   3284828.13249  21998948.6754   21998956.1754
  21842488.314    -5186551.41049  -4031229.43849  21842488.3104   21842493.7194
  20303990.189   -24886986.07549 -19356228.02849  20303990.1104   20303994.7654
  21186679.844   -23235026.93449 -18066422.64649  21186679.2974   21186684.3404
  18916964.064    -8427181.82349  -6542651.08249  18916963.2494   18916968.4054
 97  1 14  1 48 59.9940000  0  7 24  2 27 26  4  9  7
  22808411.350    -7033214.65949  -5460111.06349  22808410.9164   22808418.7404
  19970885.004    -6999873.38549  -5446000.74149  19970884.3244   19970889.8254
  22008073.004     4265702.24449   3322184.57349  22008071.3894   22008079.2574
  21841527.120    -5191602.31049  -4035165.22949  21841526.7864   21841532.7524
  20275417.598   -25037136.08449 -19473228.01049  20275416.6514   20275422.6174
  21158116.330   -23385129.23449 -18183385.47249  21158116.1214   21158120.0194
  18911740.658    -8454630.78149  -6564039.87749  18911739.9054   18911744.9274
 97  1 14  1 49 29.9940000  0  7 24  2 27 26  4  9  7
  22775148.376    -7208011.69349  -5596316.49949  22775147.2344   22775155.5474
  19964908.569    -7031279.87949  -5470473.33349  19964908.1124   19964913.7684
  22017228.503     4313816.75149   3359676.36849  22017228.1904   22017235.7074
  21840619.887    -5196370.44449  -4038880.66949  21840619.7944   21840625.4704
  20246909.140   -25186949.60849 -19589965.79749  20246909.0574   20246914.0444
  21129604.095   -23534961.81249 -18300138.11749  21129602.5014   21129607.8924
  18906575.217    -8481775.01349  -6585191.22549  18906574.4814   18906579.7894
 97  1 14  1 49 59.9940000  0  7 24  2 27 26  4  9  7
  22741882.238    -7382825.16349  -5732534.75949  22741882.7724   22741890.5614
  19958975.119    -7062460.67049  -5494770.04849  19958974.2304   19958980.1254
  22026414.400     4362087.93549   3397290.27449  22026413.9514   22026421.3784
  21839760.844    -5200885.04149  -4042398.54449  21839760.7084   21839766.4994
  20218462.625   -25336436.48849 -19706449.04949  20218462.1104   20218467.2184
  21101144.549   -23684517.64249 -18416675.11949  21101144.3124   21101148.8824
  18901465.385    -8508627.59049  -6606115.30149  18901464.8184   18901469.8964
 97  1 14  1 50 29.9940000  0  7 24  2 27 26  4  9  7
  22708615.097    -7557644.75349  -5868757.77049  22708614.7734   22708624.3664
  19953087.507    -7093400.57149  -5518879.06249  19953086.6964   19953092.2584
  22035629.934     4410515.47549   3435025.99949  22035629.5114   22035636.4474
  21838951.690    -5205137.45049  -4045712.11249  21838951.5684   21838956.6874
  20190081.459   -25485579.71849 -19822664.52849  20190081.4174   20190086.3654
  21072741.136   -23833778.48849 -18532982.25149  21072739.9364   21072745.2274
  18896414.384    -8535171.20049  -6626798.62549  18896413.7354   18896418.9844
 97  1 14  1 50 59.9940000  0  7 24  2 27 26  4  9  7
  22675361.887    -7732391.81149  -6004924.25449  22675361.2244   22675369.1884
  19947257.832    -7124035.38049  -5542750.34249  19947256.9614   19947262.7704
  22044888.590     4459169.34449   3472938.10349  22044888.4814   22044894.7844
  21838203.644    -5209069.05449  -4048775.71449  21838203.6164   21838208.9874
  20161780.601   -25634301.72049 -19938551.78649  20161780.2304   20161785.7284
  21044406.945   -23982674.93049 -18649005.45349  21044406.7604   21044411.3694
  18891433.030    -8561348.75149  -6647196.70749  18891432.2944   18891437.3214
 97  1 14  1 51 29.9940000  0  7 24  2 27 26  4  9  7
  22642111.438    -7907124.71349  -6141079.73249  22642111.7824   22642119.3044
  19941472.731    -7154436.04449  -5566439.17149  19941471.8364   19941477.6564
  22054175.590     4507972.73249   3510966.71249  22054175.6624   22054181.8864
  21837499.284    -5212771.08149  -4051660.43049  21837498.9844   21837504.4754
  20133549.068   -25782658.93949 -20054154.78849  20133548.8644   20133553.7314
  21016132.125   -24131259.29349 -18764785.44649  21016130.9654   21016136.9284
  18886507.493    -8587232.58949  -6667365.92249  18886506.6744   18886511.9274
 97  1 14  1 51 59.9940000  0  7 24  2 27 26  4  9  7
  22608855.827    -8081885.27349  -6277256.73749  22608855.0254   22608863.7034
  19935724.867    -7184641.08349  -5589975.56149  19935723.8564   19935730.0284
  22063483.763     4556887.82549   3549082.35849  22063484.1884   22063490.1634
  21836835.248    -5216259.85949  -4054378.95949  21836836.1734   21836840.2994
  20105385.347   -25930659.77849 -20169480.08249  20105385.1914   20105390.3804
  20987911.660   -24279558.75649 -18880343.44449  20987909.9724   20987916.1464
  18881632.015    -8612853.59049  -6687330.32349  18881631.1494   18881636.4464
 97  1 14  1 52 29.9940000  0  7 24  2 27 26  4  9  7
  22575595.399    -8256669.17349  -6413451.93449  22575594.7014   22575603.1674
  19930015.908    -7214641.64149  -5613352.61749  19930015.2384   19930021.2224
  22072818.387     4605941.31749   3587305.85249  22072818.8854   22072825.1294
  21836218.274    -5219502.59449  -4056905.77949  21836218.0314   21836223.2194
  20077294.566   -26078278.18749 -20284507.38449  20077294.5784   20077299.2564
  20959747.456   -24427562.17749 -18995670.76049  20959747.0494   20959752.1874
  18876809.696    -8638194.77049  -6707076.69249  18876808.9274   18876814.2024
 97  1 14  1 52 59.9940000  0  7 24  2 27 26  4  9  7
  22542336.932    -8431441.63449  -6549638.21549  22542338.8744   22542345.5064
  19924350.177    -7244415.42549  -5636552.96749  19924349.4604   19924354.8864
  22082187.408     4655174.57549   3625669.42349  22082187.5804   22082193.8634
  21835652.760    -5222474.68949  -4059221.70649  21835653.6124   21835658.5384
  20049282.834   -26225481.08349 -20399210.92049  20049282.9304   20049287.7474
  20931645.288   -24575240.03849 -19110744.39649  20931645.3134   20931650.2374
  18872047.257    -8663221.42449  -6726577.97149  18872046.3344   18872051.3254
 97  1 14  1 53 29.9940000  0  7 24  2 27 26  4  9  7
  22509088.489    -8606165.62149  -6685786.74749  22509087.7834   22509096.1754
  19918734.998    -7273923.28849  -5659546.11249  19918734.1374   19918740.0084
  22091600.240     4704639.39749   3664213.39749  22091600.4034   22091606.2044
  21835149.098    -5225123.03249  -4061285.37349  21835149.1514   21835153.5624
  20021360.718   -26372212.53049 -20513547.10049  20021360.7104   20021365.9354
  20903615.135   -24722539.84749 -19225523.44849  20903614.8094   20903620.0754
  18867351.612    -8687897.13649  -6745805.78949  18867350.9854   18867355.9244
 97  1 14  1 53 59.9930000  0  7 24  2 27 26  4  9  7
  22475847.586    -8780848.73749  -6821903.41649  22475848.7744   22475855.4024
  19913168.985    -7303172.75049  -5682337.90649  19913168.0714   19913173.8444
  22101056.848     4754333.36149   3702935.95649  22101056.2174   22101063.4134
  21834708.108    -5227440.39449  -4063091.12349  21834708.0664   21834713.1664
  19993524.902   -26518490.95049 -20627530.27249  19993524.9214   19993529.7114
  20875653.909   -24869477.17749 -19340020.05649  20875653.8264   20875658.7534
  18862719.180    -8712240.86049  -6764774.92149  18862718.5024   18862723.4924
 97  1 14  1 54 29.9930000  0  7 24  2 27 26  4  9  7
  22442578.100    -8955680.99649  -6958136.33449  22442578.8564   22442586.1754
  19907614.640    -7332360.94549  -5705081.95849  19907613.6964   19907619.7804
  22110517.777     4804051.57149   3741677.37449  22110517.5474   22110524.2454
  21834290.096    -5229636.46549  -4064802.33949  21834290.1254   21834295.2874
  19965731.829   -26664544.84349 -20741338.48649  19965731.6424   19965736.7214
  20847721.315   -25016263.81749 -19454399.23149  20847721.2334   20847725.9194
  18858112.164    -8736450.97149  -6783639.93349  18858111.3814   18858116.6944
 97  1 14  1 54 59.9930000  0  7 24  2 27 26  4  9  7
  22409306.204    -9130526.70449  -7094379.71249  22409306.9304   22409312.9534
  19902094.035    -7361371.88449  -5727687.89649  19902093.1984   19902099.1814
  22119998.442     4853872.56449   3780498.89849  22119997.6144   22120004.2934
  21833914.239    -5231612.65949  -4066342.24949  21833914.5754   21833919.1154
  19938002.012   -26810266.26949 -20854887.63349  19938001.5594   19938006.9874
  20819839.802   -25162781.68849 -19568568.96849  20819839.6354   20819844.6614
  18853551.367    -8760417.84549  -6802315.41449  18853550.6094   18853555.7984
 97  1 14  1 55 29.9930000  0  7 24  2 27 26  4  9  7
  22376028.416    -9305403.70349  -7230647.48449  22376028.9774   22376035.7544
  19896608.986    -7390196.00749  -5750148.25449  19896608.0754   19896614.2094
  22129493.062     4903766.39549   3819377.20649  22129492.0414   22129499.5654
  21833577.157    -5233384.41349  -4067722.84349  21833576.6494   21833581.6734
  19910333.120   -26955666.90549 -20968186.81449  19910333.0234   19910337.9474
  20792007.317   -25309043.11649 -19682538.88549  20792006.3644   20792011.2764
  18849033.787    -8784157.70349  -6820814.00149  18849032.8864   18849038.2624
 97  1 14  1 55 59.9930000  0  7 24  2 27 26  4  9  7
  22342778.379    -9480134.37849  -7366801.23949  22342779.5064   22342786.2084
  19891193.822    -7418653.01449  -5772322.55449  19891193.4334   19891198.9304
  22139028.528     4953876.42549   3858423.96149  22139028.4104   22139033.8874
  21833306.865    -5234804.00749  -4068829.02149  21833306.8964   21833312.0214
  19882753.101   -27100601.11149 -21081122.54749  19882753.0764   19882757.5634
  20764253.275   -25454891.29049 -19796186.78449  20764252.9274   20764257.9204
  18844593.239    -8807492.58949  -6838997.02649  18844592.3004   18844597.5904
 97  1 14  1 56 29.9930000  0  7 24  2 27 26  4  9  7
  22309542.019    -9654793.08549  -7502898.88749  22309541.9064   22309549.2924
  19885834.651    -7446815.99849  -5794267.73649  19885834.0144   19885839.7414
  22148588.724     5004115.32149   3897571.16349  22148588.1314   22148594.1484
  21833083.670    -5235976.88649  -4069742.95149  21833082.8614   21833088.6564
  19855248.633   -27245137.99249 -21193748.66649  19855248.7074   19855253.3104
  20736563.432   -25600401.86949 -19909571.63549  20736563.2564   20736568.0294
  18840215.129    -8830499.37849  -6856924.38949  18840214.3714   18840219.7464
 97  1 14  1 56 59.9930000  0  7 24  2 27 26  4  9  7
  22276291.019    -9829529.58349  -7639057.16949  22276291.7144   22276297.4444
  19880506.745    -7474814.34249  -5816084.64049  19880506.1024   19880511.8144
  22158149.472     5054357.47849   3936720.84849  22158149.3224   22158156.0734
  21832879.616    -5237048.46449  -4070577.94949  21832878.9124   21832884.9574
  19827795.340   -27389406.10449 -21306165.35849  19827795.1834   19827799.9384
  20708910.423   -25745719.40749 -20022806.06749  20708910.2204   20708915.3854
  18835869.606    -8853335.34649  -6874718.64749  18835868.6694   18835874.1944
 97  1 14  1 57 29.9930000  0  7 24  2 27 26  4  9  7
  22243050.016   -10004212.42349  -7775173.62349  22243048.8984   22243057.1564
  19875233.897    -7502523.27649  -5837676.02349  19875233.0224   19875238.5464
  22167737.860     5104744.33349   3975983.33549  22167737.0754   22167744.6514
  21832717.912    -5237897.84749  -4071239.79849  21832718.2244   21832722.6944
  19800416.757   -27533281.04449 -21418275.68049  19800416.7874   19800421.3824
  20681319.658   -25890710.19849 -20135785.87949  20681319.1214   20681324.1214
  18831577.964    -8875887.54649  -6892291.78849  18831576.9914   18831582.5304
 97  1 14  1 57 59.9930000  0  7 24  2 27 26  4  9  7
  22209817.253   -10178851.56149  -7911256.03449  22209817.4434   22209823.6094
  19870009.326    -7529978.22849  -5859069.49549  19870008.4494   19870014.5004
  22177350.859     5155259.99049   4015346.17849  22177350.0104   22177357.6114
  21832596.583    -5238535.52049  -4071736.68949  21832596.4184   21832601.2674
  19773109.982   -27676779.41849 -21530092.57649  19773110.1314   19773115.1004
  20653788.897   -26035385.05549 -20248519.52749  20653789.2094   20653792.7234
  18827335.368    -8898182.21149  -6909664.24949  18827334.4484   18827339.7994
 97  1 14  1 58 29.9930000  0  7 24  2 27 26  4  9  7
  22176580.996   -10353510.30449  -8047353.71949  22176580.9524   22176587.0344
  19864820.545    -7557245.12849  -5880316.42949  19864819.4324   19864826.0064
  22186978.346     5205852.58249   4054768.97049  22186978.4744   22186984.3874
  21832505.701    -5239012.94149  -4072108.71549  21832505.5214   21832510.8084
  19745866.943   -27819942.68549 -21641648.35649  19745866.8814   19745871.5554
  20626310.840   -26179783.49049 -20361037.77349  20626309.9334   20626315.3854
  18823127.099    -8920296.82049  -6926896.40849  18823126.4714   18823131.6084
 97  1 14  1 58 59.9930000  0  7 24  2 27 26  4  9  7
  22143340.949   -10528187.54449  -8183465.81549  22143340.2354   22143347.2324
  19859668.742    -7584318.12849  -5901412.28349  19859667.7984   19859674.0134
  22196621.399     5256526.89149   4094255.45049  22196621.0894   22196628.3144
  21832447.811    -5239316.79549  -4072345.49649  21832447.9014   21832453.1294
  19718690.006   -27962758.07349 -21752933.04949  19718689.4954   19718694.8174
  20598888.614   -26323888.37449 -20473327.28749  20598887.8874   20598893.0034
  18818953.105    -8942231.42249  -6943988.30249  18818952.3104   18818957.5454
 97  1 14  1 59 29.9930000  0  7 24  2 27 26  4  9  7
  22110120.166   -10702762.65549  -8319498.33749  22110120.2324   22110126.0764
  19854573.870    -7611091.67949  -5922274.79349  19854573.1854   19854579.1334
  22206300.845     5307392.27949   4133890.80349  22206300.3984   22206307.5054
  21832443.936    -5239337.25849  -4072361.44349  21832443.8544   21832449.0964
  19691603.460   -28105097.85249 -21863847.13749  19691603.2474   19691608.3974
  20571548.444   -26467562.07149 -20585280.81749  20571548.1644   20571552.0994
  18814837.388    -8963859.43349  -6960841.30349  18814836.9394   18814842.0624
 97  1 14  1 59 59.9930000  0  7 24  2 27 26  4  9  7
  22076909.165   -10877287.77349  -8455491.90649  22076908.8344   22076915.7504
  19849526.936    -7637613.60649  -5942941.23149  19849526.1494   19849532.0774
  22216010.409     5358416.15749   4173649.66849  22216009.2974   22216016.1214
  21832487.068    -5239110.22149  -4072184.53849  21832487.2344   21832493.2724
  19664602.269   -28246989.29949 -21974411.88049  19664602.3794   19664607.3444
  20544281.226   -26610852.13049 -20696935.40049  20544280.4814   20544285.4484
  18810774.750    -8985209.16549  -6977477.45249  18810774.0624   18810779.2474
 97  1 14  2  0 29.9930000  0  7 24  2 27 26  4  9  7
  22043701.249   -11051796.64949  -8591472.81849  22043700.7044   22043707.7104
  19844518.174    -7663934.92549  -5963451.35249  19844517.5164   19844523.1814
  22225742.837     5409560.55049   4213502.42549  22225742.9884   22225749.9184
  21832567.670    -5238686.87849  -4071854.68349  21832568.1784   21832572.4954
  19637679.754   -28388468.51649 -22084655.39449  19637679.6974   19637684.8334
  20517077.726   -26753807.35349 -20808329.07149  20517077.3134   20517081.9764
  18806755.750    -9006329.23849  -6993934.64849  18806754.9544   18806760.2154
 97  1 14  2  0 59.9930000  0  7 24  2 27 26  4  9  7
  22010493.371   -11226305.05649  -8727453.36549  22010492.2134   22010499.5504
  19839544.116    -7690074.04349  -5983819.49849  19839543.3904   19839549.1294
  22235495.057     5460808.95749   4253436.23649  22235494.7274   22235500.5224
  21832684.704    -5238072.59149  -4071376.03349  21832685.4564   21832689.5594
  19610833.008   -28529548.92749 -22194588.16849  19610833.4034   19610838.4444
  20489932.898   -26896454.60249 -20919482.77049  20489932.3954   20489937.4064
  18802780.866    -9027217.62649  -7010211.31549  18802780.1564   18802785.2744
 97  1 14  2  1 29.9930000  0  7 24  2 27 26  4  9  7
  21977295.383   -11400761.27249  -8863393.25149  21977294.9054   21977302.3044
  19834611.699    -7715993.96449  -6004016.83949  19834611.1444   19834617.1544
  22245274.380     5512199.35949   4293480.70449  22245274.8574   22245279.8284
  21832845.852    -5237225.62849  -4070716.07349  21832845.4864   21832851.0934
  19584068.873   -28670195.59149 -22304182.95349  19584068.7714   19584074.1584
  20462852.849   -27038761.28049 -21030371.08149  20462852.1424   20462857.0824
  18798859.367    -9047824.85449  -7026268.89049  18798858.4514   18798863.6964
 97  1 14  2  1 59.9930000  0  7 24  2 27 26  4  9  7
  21944124.252   -11575076.18549  -8999223.04149  21944123.5594   21944130.7964
  19829737.061    -7741610.59049  -6023977.85449  19829736.2494   19829742.5674
  22255093.807     5563799.42849   4333688.52549  22255094.0194   22255098.4404
  21833068.385    -5236055.91849  -4069804.59849  21833068.1714   21833073.9624
  19557401.470   -28810333.75549 -22413381.50349  19557401.1534   19557406.7684
  20435850.242   -27180660.70449 -21140942.05449  20435849.8664   20435854.5584
  18795005.284    -9068077.90049  -7042050.48349  18795004.6194   18795010.0044
 97  1 14  2  2 29.9930000  0  7 24  2 27 26  4  9  7
  21910972.500   -11749287.00049  -9134971.68849  21910972.5994   21910980.5744
  19824915.011    -7766950.65249  -6043723.36149  19824913.9084   19824920.0544
  22264939.912     5615539.79749   4374005.68449  22264940.1334   22264944.6964
  21833339.398    -5234631.79349  -4068694.90749  21833339.0944   21833344.7174
  19530823.293   -28950002.76449 -22522214.47949  19530822.9634   19530828.5214
  20408916.841   -27322196.17249 -21251229.42249  20408916.5414   20408921.4154
  18791209.217    -9088026.63749  -7057594.94849  18791208.4074   18791213.8324
 97  1 14  2  2 59.9930000  0  7 24  2 27 26  4  9  7
  21877841.973   -11923389.79949  -9270636.16749  21877841.8454   21877848.8964
  19820149.220    -7791994.65249  -6063238.17349  19820147.9274   19820154.3834
  22274809.517     5667405.72349   4414420.64649  22274808.1914   22274816.1614
  21833653.421    -5232981.08349  -4067408.64149  21833654.5064   21833657.9644
  19504333.687   -29089206.13749 -22630684.62049  19504333.6614   19504339.2654
  20382052.585   -27463368.14149 -21361233.53849  20382052.2894   20382057.2504
  18787473.433    -9107658.15949  -7072892.23049  18787472.9034   18787477.9274
 97  1 14  2  3 29.9930000  0  7 24  2 27 26  4  9  7
  21844729.684   -12097396.41049  -9406225.69349  21844729.0194   21844736.9174
  19815435.886    -7816763.09749  -6082538.25849  19815434.7404   19815440.8384
  22284697.445     5719367.48449   4454910.32649  22284697.2054   22284703.8924
  21834000.104    -5231159.70249  -4065989.39249  21834000.2564   21834006.1224
  19477928.131   -29227967.78449 -22738810.56549  19477928.2714   19477932.9294
  20355253.469   -27604199.03849 -21470971.89849  20355253.2414   20355258.3174
  18783791.139    -9127009.01149  -7087970.81549  18783790.4024   18783795.3144
 97  1 14  2  3 59.9930000  0  7 24  2 27 26  4  9  7
  21811624.679   -12271364.15049  -9541784.92849  21811624.0174   21811631.4124
  19810765.707    -7841304.86549  -6101661.71649  19810765.4424   19810770.9784
  22294592.640     5771367.73249   4495429.93549  22294591.0764   22294598.2074
  21834368.581    -5229223.36149  -4064480.55949  21834368.1914   21834374.1504
  19451600.186   -29366322.36149 -22846619.32149  19451600.4374   19451604.8654
  20328511.332   -27744730.22349 -21580476.71449  20328510.8854   20328515.8454
  18780150.286    -9146142.12249  -7102879.72849  18780149.8434   18780154.7324
 97  1 14  2  4 29.9930000  0  7 24  2 27 26  4  9  7
  21778544.730   -12445201.07949  -9677242.23249  21778544.1384   21778551.2534
  19806157.886    -7865519.23249  -6120530.04849  19806157.3934   19806163.0604
  22304513.845     5823504.68149   4536056.11349  22304513.6074   22304520.2294
  21834776.351    -5227080.50749  -4062810.79849  21834777.2884   21834782.0644
  19425368.430   -29504171.54349 -22954034.25349  19425368.5074   19425373.5074
  20301846.063   -27884857.23649 -21689666.58649  20301845.9944   20301850.3784
  18776569.463    -9164959.88549  -7117542.91449  18776568.7024   18776573.4384
 97  1 14  2  4 59.9930000  0  7 24  2 27 26  4  9  7
  21745475.218   -12618983.26949  -9812656.88849  21745474.7514   21745482.1164
  19801598.155    -7889480.87249  -6139201.45749  19801597.8194   19801603.0374
  22314451.982     5875730.57949   4576751.60049  22314451.3674   22314458.8864
  21835216.727    -5224766.59649  -4061007.75749  21835216.5144   21835222.5904
  19399218.599   -29641589.76949 -23061113.36849  19399218.6604   19399223.7044
  20275249.758   -28024621.62649 -21798573.89349  20275249.0374   20275254.0704
  18773034.628    -9183535.68849  -7132017.56049  18773033.8494   18773038.7384
 97  1 14  2  5 29.9930000  0  7 24  2 27 26  4  9  7
  21712409.715   -12792742.19449  -9948053.41649  21712408.3324   21712415.7744
  19797081.814    -7913214.30849  -6157695.04249  19797081.2964   19797087.1814
  22324405.658     5928036.57049   4617509.46149  22324405.6464   22324412.4984
  21835692.595    -5222266.05349  -4059059.29949  21835692.1954   21835698.3114
  19373148.818   -29778587.58549 -23167864.89449  19373148.6784   19373153.8354
  20248722.609   -28164022.33349 -21907197.80249  20248722.0814   20248727.3314
  18769540.546    -9201897.28949  -7146325.30049  18769539.7084   18769544.7924
 97  1 14  2  5 59.9920000  0  7 24  2 27 26  4  9  7
  21679345.441   -12966495.06849 -10083445.22049  21679344.9124   21679351.8584
  19792603.937    -7936745.72149  -6176031.20749  19792603.1764   19792609.2094
  22334369.789     5980398.15149   4658310.73849  22334369.6384   22334376.4734
  21836202.314    -5219587.72649  -4056972.30649  21836202.4724   21836207.0254
  19347154.175   -29915190.34749 -23274308.59249  19347154.1244   19347159.1724
  20222263.001   -28303068.08949 -22015545.12649  20222262.1894   20222267.4274
  18766081.868    -9220072.98849  -7160488.17949  18766081.3624   18766086.0074
 97  1 14  2  6 29.9920000  0  6 24  2 26  4  9  7
  21646284.829   -13140228.47649 -10218821.84749  21646284.3094   21646291.6214
  19788168.091    -7960056.56549  -6194195.50349  19788167.5374   19788173.2284
  21836746.140    -5216730.16649  -4054745.64949  21836746.0854   21836751.6754
  19321233.417   -30051404.98849 -23380449.85049  19321233.7984   19321238.4394
  20195873.373   -28441746.42649 -22123606.14749  20195872.8684   20195878.4924
  18762662.766    -9238040.75249  -7174489.02549  18762661.8694   18762667.0954
 97  1 14  2  6 59.9920000  0  6 24  2 26  4  9  7
  21613240.952   -13313872.85649 -10354129.13249  21613240.1654   21613247.7154
  19783783.958    -7983095.65649  -6212148.05049  19783783.8214   19783788.7384
  21837328.807    -5213667.87849  -4052359.47649  21837328.7024   21837333.5254
  19295397.938   -30187170.87649 -23486241.44449  19295397.8044   19295402.8014
  20169564.570   -28580000.20349 -22231336.35149  20169564.3714   20169568.6444
  18759292.167    -9255753.59049  -7188291.23849  18759291.1234   18759296.1324
 97  1 14  2  7 29.9920000  0  6 24  2 26  4  9  7
  21580222.976   -13487382.77849 -10489331.60649  21580222.2834   21580230.3114
  19779456.937    -8005834.86049  -6229866.91549  19779455.9584   19779461.8104
  21837950.016    -5210403.42449  -4049815.73849  21837950.7114   21837955.9844
  19269654.862   -30322451.72249 -23591655.07149  19269654.7764   19269660.0024
  20143337.073   -28717826.66849 -22338733.58749  20143336.8484   20143341.1724
  18755975.041    -9273184.82849  -7201874.01649  18755973.9494   18755979.1484
 97  1 14  2  7 59.9920000  0  6 24  2 26  4  9  7
  21547251.895   -13660648.19149 -10624343.58149  21547250.4194   21547259.3964
  19775203.172    -8028188.64049  -6247285.44449  19775202.4424   19775208.1394
  21838622.837    -5206868.29749  -4047061.11849  21838622.6964   21838627.7274
  19244021.799   -30457153.98149 -23696617.85249  19244021.9214   19244026.8554
  20117205.825   -28855147.23049 -22445736.60849  20117205.9484   20117210.1514
  18752727.117    -9290252.64049  -7215173.60549  18752726.0284   18752731.3954
 97  1 14  2  8 29.9920000  0  6 24  2 26  4  9  7
  21514309.462   -13833762.81549 -10759238.03949  21514308.2944   21514315.1944
  19771005.869    -8050245.89449  -6264472.91549  19771004.8684   19771010.7624
  21839329.401    -5203156.27549  -4044168.64949  21839329.3974   21839335.1584
  19218484.217   -30591354.80449 -23801189.91049  19218484.0404   19218488.9494
  20091154.373   -28992049.14449 -22552413.41649  20091154.1934   20091158.6654
  18749529.545    -9307056.07549  -7228267.19449  18749528.5614   18749533.8144
 97  1 14  2  8 59.9920000  0  6 24  2 26  4  9  7
  21481382.126   -14006797.11049 -10894069.90149  21481381.5194   21481389.4014
  19766849.654    -8072087.03149  -6281491.98349  19766848.7554   19766854.5394
  21840058.892    -5199321.70649  -4041180.67349  21840059.5414   21840064.1564
  19193030.569   -30725114.50149 -23905418.23149  19193030.8214   19193035.8464
  20065166.716   -29128615.28049 -22658828.57749  20065166.4744   20065171.2404
  18746366.258    -9323679.04849  -7241220.15549  18746365.3314   18746370.6844
 97  1 14  2  9 29.9920000  0  6 24  2 26  4  9  7
  21448463.158   -14179786.34149 -11028866.61649  21448462.9884   21448468.9954
  19762725.791    -8093757.84949  -6298378.34449  19762725.1704   19762730.8774
  21840809.611    -5195377.67249  -4038107.41049  21840809.6824   21840815.6004
  19167654.870   -30858465.07049 -24009327.74449  19167654.8594   19167659.4194
  20039236.991   -29264877.12049 -22765006.63749  20039236.8254   20039241.4794
  18743230.802    -9340155.44749  -7254058.90549  18743229.9524   18743235.1634
 97  1 14  2  9 59.9920000  0  6 24  2 26  4  9  7
  21415550.309   -14352745.12549 -11163639.61449  21415549.7034   21415557.3584
  19758628.818    -8115287.32349  -6315154.55449  19758627.9074   19758634.0384
  21841577.430    -5191342.57149  -4034963.17449  21841578.1404   21841582.8924
  19142353.306   -30991425.70249 -24112933.40849  19142353.1254   19142358.4124
  20013363.300   -29400844.06749 -22870954.89649  20013363.4174   20013367.4444
  18740118.413    -9356510.81049  -7266803.33749  18740117.4174   18740122.6624
 97  1 14  2 10 29.9920000  0  6 24  2 26  4  9  7
  21382659.569   -14525587.21549 -11298321.70249  21382659.2934   21382666.4494
  19754577.743    -8136575.49949  -6331742.76149  19754577.2014   19754582.7814
  21842378.426    -5187134.57149  -4031684.22449  21842378.0464   21842383.8454
  19117141.421   -31123914.62649 -24216171.51049  19117141.5984   19117146.5924
  19987561.035   -29536436.23349 -22976611.12549  19987560.8204   19987565.2384
  18737048.688    -9372641.78549  -7279372.92449  18737047.5124   18737053.0654
 97  1 14  2 10 59.9920000  0  6 24  2 26  4  9  7
  21349802.791   -14698254.28749 -11432867.45049  21349802.6994   21349808.8554
  19750583.643    -8157564.61949  -6348097.92549  19750583.0964   19750588.5384
  21843221.476    -5182704.87349  -4028232.52649  21843221.4524   21843226.3054
  19092030.439   -31255873.85249 -24318996.85849  19092029.9634   19092035.4004
  19961839.557   -29671603.34149 -23081936.13749  19961838.8074   19961843.7854
  18734036.324    -9388471.40449  -7291707.68949  18734035.2574   18734040.8554
 97  1 14  2 11 29.9920000  0  6 24  2 26  4  9  7
  21316970.483   -14870788.37149 -11567309.54549  21316969.7294   21316976.2914
  19746640.913    -8178283.95749  -6364242.88049  19746640.7954   19746645.7124
  21844097.933    -5178098.06149  -4024642.82249  21844097.8064   21844103.7394
  19067013.323   -31387339.16149 -24421437.34449  19067013.2114   19067018.5724
  19936194.070   -29806371.05449 -23186949.94149  19936193.8404   19936198.4144
  18731075.722    -9404029.17049  -7303830.62149  18731075.1374   18731080.6054
 97  1 14  2 11 59.9920000  0  7 24  2 26  4  9  7  5
  21284150.180   -15043259.63449 -11701702.70449  21284150.2794   21284156.7494
  19742743.216    -8198767.11649  -6380203.79249  19742742.7744   19742747.8534
  21844997.207    -5173372.09049  -4020960.26049  21844997.5734   21845003.3054
  19042078.674   -31518371.75249 -24523540.64249  19042078.4534   19042084.0034
  19910613.564   -29940797.29149 -23291697.65149  19910613.4194   19910618.1094
  18728156.742    -9419368.26849  -7315783.16649  18728156.1174   18728161.2944
  22407819.638    -6215054.86749  -4820634.28349  22407818.0404   22407825.9874
 97  1 14  2 12 29.9920000  0  7 24  2 26  4  9  7  5
  21251354.289   -15215602.62149 -11835995.91149  21251354.0044   21251360.9784
  19738908.028    -8218921.72349  -6395908.68949  19738907.8884   19738913.2624
  21845936.379    -5168436.28149  -4017114.18349  21845935.2944   21845941.8024
  19017240.618   -31648896.39649 -24625248.14149  19017240.5884   19017245.6504
  19885115.994   -30074787.82449 -23396105.85749  19885115.7414   19885120.2484
  18725294.582    -9434409.18949  -7327503.36349  18725293.9994   18725299.0184
  22379727.754    -6362678.73049  -4935665.89149  22379727.1274   22379733.0394
 97  1 14  2 12 59.9920000  0  7 24  2 26  4  9  7  5
  21218565.896   -15387905.44449 -11970257.81349  21218565.1634   21218573.3994
  19735119.420    -8238831.18049  -6411422.55049  19735119.0214   19735124.8924
  21846901.870    -5163363.12949  -4013161.10949  21846901.4054   21846905.5764
  18992486.046   -31778982.35749 -24726613.79949  18992485.9164   18992491.2444
  19859690.908   -30208397.84349 -23500217.55249  19859690.1934   19859695.0614
  18722470.325    -9449250.63949  -7339068.12849  18722469.8044   18722474.8604
  22351624.071    -6510362.99649  -5050744.48449  22351621.6144   22351628.7884
 97  1 14  2 13 29.9920000  0  7 24  2 26  4  9  7  5
  21185793.313   -15560126.37749 -12104455.91149  21185793.0814   21185800.5064
  19731382.877    -8258466.78149  -6426723.02849  19731382.1984   19731387.8584
  21847896.516    -5158134.52049  -4009086.89649  21847896.7164   21847900.5374
  18967818.293   -31908611.96249 -24827623.85649  18967817.9734   18967823.4204
  19834344.293   -30341594.64449 -23604007.26449  19834344.0894   19834348.7914
  18719687.629    -9463873.69349  -7350462.71649  18719686.6214   18719692.3034
  22323517.003    -6658066.50249  -5165838.10449  22323517.7204   22323521.6694
 97  1 14  2 13 59.9920000  0  7 24  2 26  4  9  7  5
  21153025.575   -15732320.85349 -12238633.37449  21153026.2754   21153032.4734
  19727684.671    -8277901.04849  -6441866.61949  19727683.8094   19727689.9474
  21848903.708    -5152841.52049  -4004962.49849  21848903.3894   21848909.2554
  18943221.702   -32037867.31549 -24928342.29149  18943221.6814   18943227.1874
  19809062.590   -30474451.26449 -23707531.90349  19809062.4414   19809067.0144
  18716931.257    -9478358.47849  -7361749.56449  18716930.2394   18716935.9064
  22295392.477    -6805862.27449  -5281003.65849  22295393.2604   22295398.4764
 97  1 14  2 14 29.9920000  0  7 24  2 26  4  9  7  5
  21120285.007   -15904372.40849 -12372699.49549  21120285.7904   21120291.1254
  19724039.447    -8297056.55849  -6456793.00349  19724038.5124   19724044.4694
  21849937.087    -5147409.91149  -4000730.06749  21849937.2834   21849942.8034
  18918716.909   -32166640.69849 -25028685.17049  18918716.9154   18918722.5874
  19783864.437   -30606868.40749 -23810714.09149  19783864.1664   19783868.7164
  18714218.550    -9492614.03249  -7372857.79749  18714217.8374   18714223.3194
  22267268.637    -6953653.85149  -5396165.89749  22267268.5914   22267273.9744
 97  1 14  2 14 59.9920000  0  7 24  2 26  4  9  7  5
  21087568.321   -16076301.27149 -12506670.00049  21087568.6304   21087573.6194
  19720439.579    -8315974.10749  -6471533.95749  19720439.2044   19720444.5804
  21850985.387    -5141901.60949  -3996437.89749  21850985.4484   21850989.8564
  18894300.903   -32294947.92749 -25128664.81249  18894300.8884   18894306.2424
  19758739.316   -30738902.20549 -23913597.57149  19758738.9204   19758743.7634
  18711544.030    -9506668.38949  -7383809.24549  18711543.1784   18711548.8484
  22239139.571    -7101472.93249  -5511349.55849  22239140.6834   22239143.7394
 97  1 14  2 15 29.9920000  0  7 24  2 26  4  9  7  5
  21054886.740   -16248047.43949 -12640498.14149  21054887.6854   21054893.4914
  19716891.453    -8334619.97649  -6486063.21349  19716890.8604   19716896.6474
  21852052.614    -5136292.67449  -3992067.31649  21852053.5184   21852058.5924
  18869983.017   -32422739.44049 -25228242.59349  18869982.7734   18869988.1864
  19733694.114   -30870516.09849 -24016153.85449  19733693.5384   19733698.4144
  18708916.719    -9520474.89549  -7394567.56449  18708915.7674   18708921.4514
  22211014.782    -7249270.61749  -5626516.61749  22211014.0654   22211019.8144
 97  1 14  2 15 59.9920000  0  7 24  2 26  4  9  7  5
  21022214.021   -16419744.78049 -12774288.24249  21022215.0134   21022219.7294
  19713369.891    -8353125.76749  -6500483.31749  19713368.9894   19713374.9764
  21853118.075    -5130694.55249  -3987705.13749  21853119.1004   21853123.4494
  18845743.682   -32550117.64149 -25327498.31749  18845743.5934   18845749.0024
  19708703.527   -31001842.55849 -24118486.16349  19708703.2594   19708708.0634
  18706309.812    -9534173.87849  -7405242.09649  18706309.1624   18706314.8454
  22182867.229    -7397187.14749  -5741776.20049  22182866.4614   22182872.9014
 97  1 14  2 16 29.9920000  0  7 24  2 26  4  9  7  5
  20989568.145   -16591300.28349 -12907967.81849  20989568.3044   20989573.0394
  19709893.557    -8371393.56649  -6514717.97349  19709892.4154   19709898.6414
  21854201.799    -5124999.79649  -3983267.68449  21854202.4304   21854207.6744
  18821607.001   -32676956.44349 -25426333.73149  18821607.0334   18821612.3484
  19683786.730   -31132781.11049 -24220516.20149  19683786.3384   19683790.9284
  18703742.076    -9547667.44749  -7415756.57649  18703741.0794   18703747.0734
  22154715.378    -7545126.39749  -5857053.51249  22154714.3604   22154720.7784
 97  1 14  2 16 59.9920000  0  7 24  2 26  4  9  7  5
  20956961.719   -16762650.18049 -13041487.19749  20956961.5574   20956967.0554
  19706476.429    -8389350.14849  -6528710.12249  19706475.5914   19706482.0954
  21855318.007    -5119134.09949  -3978697.02549  21855318.0484   21855323.6594
  18797584.015   -32803198.39449 -25524704.06349  18797584.2734   18797589.6634
  19658956.683   -31263263.38249 -24322190.69849  19658956.5384   19658961.2244
  18701223.940    -9560900.05449  -7426067.69449  18701223.2134   18701229.2174
  22126569.759    -7693032.92149  -5972305.33349  22126568.3164   22126574.7934
 97  1 14  2 17 29.9920000  0  7 24  2 26  4  9  7  5
  20924385.341   -16933840.13549 -13174881.95249  20924385.4194   20924390.2834
  19703110.740    -8407037.31949  -6542492.34249  19703110.5104   19703116.0934
  21856462.389    -5113119.66949  -3974010.45549  21856462.9264   21856467.8294
  18773663.774   -32928900.46449 -25622653.71249  18773663.9234   18773668.9784
  19634210.101   -31393307.66149 -24423523.90749  19634209.4504   19634214.2594
  18698747.120    -9573915.71949  -7436209.76949  18698746.5074   18698752.1554
  22098421.500    -7840951.68849  -6087566.63849  22098421.0114   22098426.1314
 97  1 14  2 17 59.9910000  0  7 24  2 26  4  9  7  5
  20891844.943   -17104840.98049 -13308129.34849  20891844.6574   20891849.9924
  19699803.717    -8424415.97749  -6556034.16249  19699802.8404   19699808.3394
  21857643.941    -5106911.25449  -3969172.75749  21857644.2284   21857649.3874
  18749849.199   -33054046.87849 -25720170.38549  18749849.1904   18749854.7024
  19609555.519   -31522868.10449 -24524480.08949  19609554.8784   19609559.7304
  18696317.444    -9586683.90149  -7446158.99749  18696316.7494   18696322.4094
  22070276.721    -7988853.29449  -6202814.64549  22070274.8774   22070281.9674
 97  1 14  2 18 29.9910000  0  7 24  2 26  4  9  7  5
  20859317.759   -17275772.22149 -13441322.51649  20859317.8054   20859322.6914
  19696533.845    -8441598.87949  -6569423.44149  19696533.0944   19696538.9394
  21858836.191    -5100644.98149  -3964289.96549  21858836.5924   21858841.8404
  18726112.623   -33178783.54249 -25817367.77349  18726112.6124   18726117.5234
  19584973.097   -31652049.31649 -24625140.78349  19584972.3164   19584977.3964
  18693915.438    -9599306.71649  -7455994.95349  18693914.8424   18693920.2954
  22042113.224    -8136853.02849  -6318139.07549  22042113.9024   22042118.4344
 97  1 14  2 18 59.9910000  0  7 24  2 26  4  9  7  5
  20826814.107   -17446580.29549 -13574419.70549  20826813.4074   20826819.2844
  19693308.159    -8458550.10349  -6582632.20049  19693307.3274   19693312.7984
  21860047.041    -5094280.94649  -3959330.99049  21860047.1544   21860052.4134
  18702460.877   -33303074.12749 -25914217.56549  18702460.7264   18702466.1084
  19560473.952   -31780792.95349 -24725460.50849  19560473.8164   19560477.7634
  18691551.163    -9611731.25549  -7465676.40949  18691550.2294   18691555.9044
  22013942.186    -8284892.87149  -6433494.75249  22013942.0454   22013946.7384
 97  1 14  2 19 29.9910000  0  7 24  2 26  4  9  7  5
  20794342.554   -17617219.43549 -13707385.27149  20794342.4064   20794347.5684
  19690133.497    -8475232.74449  -6595631.67349  19690132.7354   19690138.4504
  21861284.817    -5087776.42249  -3954262.53849  21861284.6084   21861290.5704
  18678905.241   -33426859.99949 -26010674.07149  18678905.2234   18678910.2794
  19536066.861   -31909053.28349 -24825403.62749  19536066.9624   19536071.1774
  18689233.367    -9623911.20349  -7475167.28049  18689232.5644   18689238.1684
  21985772.417    -8432926.69449  -6548845.75149  21985772.3174   21985776.8884
 97  1 14  2 19 59.9910000  0  7 24  2 26  4  9  7  5
  20761905.233   -17787677.54449 -13840209.76849  20761904.6824   20761910.0964
  19687010.625    -8491643.61149  -6608419.36449  19687010.0674   19687015.3664
  21862548.055    -5081137.15149  -3949089.08949  21862548.0534   21862554.8434
  18655447.881   -33550128.77249 -26106727.65249  18655447.8724   18655453.0594
  19511749.726   -32036840.96649 -24924978.44249  19511749.4174   19511753.8934
  18686961.032    -9635852.61749  -7484472.27749  18686960.3474   18686965.8444
  21957603.972    -8580953.84049  -6664191.58849  21957602.8584   21957608.6114
 97  1 14  2 20 29.9910000  0  7 24  2 26  4  9  7  5
  20729498.072   -17957978.16549 -13972911.54149  20729498.1074   20729503.6834
  19683935.531    -8507803.37549  -6621011.39449  19683934.8854   19683940.5354
  21863830.683    -5074397.99949  -3943837.79949  21863830.8954   21863836.5704
  18632089.568   -33672877.26249 -26202375.81249  18632089.3634   18632095.1164
  19487515.689   -32164191.69449 -25024212.77849  19487515.2444   19487519.6604
  18684728.895    -9647582.53349  -7493612.46949  18684728.0624   18684733.8374
  21929431.840    -8728999.33649  -6779551.64649  21929431.2714   21929436.4704
 97  1 14  2 20 59.9910000  0  7 24  2 26  4  9  7  5
  20697100.519   -18128228.92949 -14105574.46049  20697100.0764   20697105.5444
  19680889.014    -8523813.01249  -6633486.44249  19680888.2754   19680893.8044
  21865113.894    -5067655.06049  -3938583.55549  21865114.0964   21865119.7924
  18608813.571   -33795193.66049 -26297687.27849  18608813.5064   18608818.8634
  19463341.708   -32291226.94649 -25123201.29049  19463341.5694   19463345.6734
  18682513.414    -9659224.80549  -7502684.36749  18682512.3564   18682518.0924
  21901233.227    -8877183.06249  -6895019.47449  21901233.6914   21901237.3564
 97  1 14  2 21 29.9910000  0  7 24  2 26  4  9  7  5
  20664730.715   -18298333.30649 -14238123.30249  20664730.2254   20664735.6874
  19677891.438    -8539565.57549  -6645761.18449  19677890.2604   19677896.3914
  21866413.882    -5060824.08249  -3933260.71849  21866414.0574   21866419.8534
  18585635.902   -33916993.13549 -26392595.94249  18585636.1924   18585640.8914
  19439243.414   -32417864.35749 -25221879.79249  19439242.9024   19439247.4454
  18680329.210    -9670702.84149  -7511628.28849  18680328.6384   18680334.4914
  21873023.864    -9025424.26349  -7010532.05549  21873023.6714   21873028.0624
 97  1 14  2 21 59.9910000  0  7 24  2 26  4  9  7  5
  20632388.944   -18468290.21449 -14370557.22749  20632388.4954   20632394.1104
  19674947.123    -8555038.15749  -6657817.74649  19674945.9384   19674952.4394
  21867729.671    -5053910.21449  -3927873.28649  21867729.6364   21867735.7794
  18562553.881   -34038289.68249 -26487112.71249  18562553.7914   18562558.7464
  19415221.613   -32544099.50449 -25320244.83749  19415221.3724   19415225.7244
  18678176.002    -9682018.40949  -7520445.60549  18678175.4084   18678180.9364
  21844804.199    -9173719.57449  -7126086.81049  21844804.0274   21844809.1714
 97  1 14  2 22 29.9910000  0  7 24  2 26  4  9  7  5
  20600062.941   -18638164.83149 -14502927.01849  20600062.5634   20600068.0194
  19672044.909    -8570289.29449  -6669701.76149  19672043.9774   19672049.8414
  21869048.290    -5046981.50949  -3922474.30549  21869047.6434   21869052.4764
  18539554.064   -34159154.81849 -26581293.32349  18539554.0144   18539558.9414
  19391265.361   -32669990.29549 -25418341.55449  19391264.7174   19391269.6814
  18676039.995    -9693243.22649  -7529192.21249  18676039.0574   18676045.2544
  21816559.117    -9322147.43349  -7241744.82149  21816558.6314   21816563.6554
 97  1 14  2 22 59.9910000  0  7 24  2 26  4  9  7  5
  20567770.381   -18807863.43449 -14635159.67049  20567769.4594   20567775.7084
  19669198.460    -8585246.71849  -6681356.90149  19669197.6884   19669203.7184
  21870385.310    -5039956.21749  -3917000.07049  21870384.7484   21870391.2874
  18516649.040   -34279522.08949 -26675085.98649  18516649.0614   18516653.7784
  19367391.305   -32795449.19249 -25516101.73649  19367390.8044   19367395.3304
  18673935.781    -9704300.64849  -7537808.38449  18673934.9044   18673940.9944
  21788307.214    -9470611.79349  -7357431.33649  21788307.2094   21788311.6714
 97  1 14  2 23 29.9910000  0  7 24  2 26  4  9  7  5
  20535512.448   -18977379.89449 -14767250.39649  20535512.0314   20535517.5624
  19666407.466    -8599913.70949  -6692785.74149  19666406.5604   19666412.8334
  21871739.514    -5032840.20449  -3911455.14949  21871739.0004   21871745.0894
  18493837.935   -34399395.10049 -26768493.52049  18493838.0324   18493842.9944
  19343601.977   -32920463.05949 -25613515.14449  19343601.3134   19343605.9164
  18671865.002    -9715182.60749  -7546287.83549  18671864.3574   18671870.3634
  21760051.844    -9619094.90749  -7473132.45749  21760050.2414   21760056.5584
 97  1 14  2 23 59.9910000  0  7 24  2 26  4  9  7  5
  20503283.471   -19146743.65549 -14899222.15049  20503282.5434   20503288.7844
  19663663.014    -8614335.73449  -6704023.69549  19663662.2904   19663668.5574
  21873106.299    -5025657.30449  -3905858.11349  21873105.8444   21873112.0944
  18471118.514   -34518786.65749 -26861525.88749  18471118.7714   18471123.5184
  19319893.473   -33045051.78049 -25710597.26749  19319893.1264   19319897.3574
  18669822.915    -9725913.55149  -7554649.60549  18669822.3514   18669828.2084
  21731788.273    -9767620.50349  -7588866.66249  21731787.9964   21731793.4834
 97  1 14  2 24 29.9910000  0  7 24  2 26  4  9  7  5
  20471086.740   -19315938.26849 -15031062.10549  20471086.0924   20471091.7944
  19660962.847    -8628525.56449  -6715080.72149  19660962.5394   19660968.1714
  21874487.224    -5018401.13149  -3900203.96749  21874487.0484   21874492.9884
  18448496.683   -34637664.94049 -26954158.30149  18448496.8814   18448501.5834
  19296269.553   -33169196.07549 -25807333.07749  19296269.3014   19296273.8334
  18667812.551    -9736478.29049  -7562881.86749  18667811.8534   18667817.7134
  21703521.883    -9916161.40849  -7704612.77549  21703521.7354   21703525.6794
 97  1 14  2 24 59.9910000  0  7 24  2 26  4  9  7  5
  20438929.675   -19484924.61949 -15162739.77349  20438928.7944   20438934.7564
  19658312.307    -8642454.28249  -6725934.28249  19658311.3544   19658317.5094
  21875886.390    -5011047.87249  -3894474.15349  21875886.2094   21875892.3434
  18425982.552   -34755977.18849 -27046349.65049  18425982.4084   18425987.4094
  19272738.591   -33292851.98849 -25903688.32849  19272738.0514   19272742.5284
  18665841.767    -9746834.98349  -7570952.01849  18665840.7774   18665846.5874
  21675263.781   -10064658.25749  -7820324.55849  21675261.8584   21675267.2564
 97  1 14  2 25 29.9910000  0  7 24  2 26  4  9  7  5
  20406800.222   -19653765.72349 -15294304.27849  20406799.8264   20406805.4624
  19655703.385    -8656164.43849  -6736617.52349  19655703.0704   19655708.4954
  21877292.108    -5003660.63049  -3888717.90749  21877291.5464   21877297.8124
  18403567.504   -34873768.81949 -27138135.31949  18403567.2854   18403572.5374
  19249293.150   -33416058.84149 -25999693.66749  19249292.7524   19249297.2474
  18663900.392    -9757036.53349  -7578901.27249  18663899.6814   18663905.5814
  21647000.994   -10213179.79749  -7936055.59849  21647000.5734   21647006.7884
 97  1 14  2 25 59.9910000  0  7 24  2 26  4  9  7  5
  20374726.222   -19822315.24449 -15425641.56549  20374725.9914   20374731.2694
  19653165.004    -8669503.82049  -6747011.85949  19653164.1584   19653170.4774
  21878731.751    -4996095.60749  -3882823.10749  21878732.5594   21878738.0614
  18381281.375   -34990882.40449 -27229392.65449  18381281.4344   18381286.5304
  19225960.497   -33538672.90049 -26095237.09249  19225959.9354   19225964.6194
  18662016.291    -9766937.48149  -7586616.29649  18662015.6954   18662021.1324
  21618761.332   -10361580.88649  -8051692.79649  21618759.8544   21618766.3254
 97  1 14  2 26 29.9910000  0  7 24  2 26  4  9  7  5
  20342682.129   -19990708.28249 -15556856.90249  20342681.8644   20342687.0784
  19650672.323    -8682602.52449  -6757218.65549  19650670.9644   19650677.1114
  21880176.577    -4988502.41049  -3876906.33549  21880175.9094   21880182.8324
  18359097.062   -35107461.43149 -27320233.44849  18359096.8224   18359101.9454
  19202712.249   -33660843.00649 -26190434.56949  19202711.6294   19202716.6984
  18660162.917    -9776677.43149  -7594205.86149  18660162.1994   18660168.0084
  21590517.713   -10510002.08549  -8167345.64149  21590515.7774   21590522.3764
 97  1 14  2 26 59.9910000  0  7 24  2 26  4  9  7  5
  20310675.981   -20158901.84849 -15687916.80649  20310675.6024   20310680.7124
  19648234.991    -8695410.09249  -6767198.59049  19648234.3404   19648240.0814
  21881633.395    -4980847.62349  -3870941.60149  21881634.3104   21881638.8684
  18337020.783   -35223473.16149 -27410632.18749  18337020.6754   18337025.5004
  19179555.137   -33782534.12149 -26285258.80849  19179554.6414   19179559.3234
  18658347.814    -9786216.06049  -7601638.56149  18658347.0454   18658352.7844
  21562273.116   -10658428.51249  -8283002.53549  21562272.8694   21562277.1234
 97  1 14  2 27 29.9910000  0  7 24  2 26  4  9  7  5
  20278706.255   -20326903.01249 -15818826.77349  20278706.2744   20278711.9044
  19645850.420    -8707941.07449  -6776963.00749  19645849.2224   19645855.9524
  21883098.968    -4973145.76849  -3864940.16249  21883099.2164   21883104.2974
  18315047.182   -35338944.66449 -27500609.96649  18315046.9674   18315052.2264
  19156482.830   -33903779.54249 -26379735.75549  19156482.4634   19156487.6774
  18656568.712    -9795565.64649  -7608923.94849  18656568.1074   18656573.6934
  21534023.670   -10806880.06549  -8398679.01349  21534023.8754   21534027.3084
 97  1 14  2 27 59.9910000  0  7 24  2 26  4  9  7  5
  20246790.598   -20494622.47249 -15949517.23149  20246790.6684   20246795.7844
  19643530.355    -8720133.32349  -6786463.48049  19643529.9674   19643536.1134
  21884586.202    -4965330.52649  -3858850.38549  21884585.7674   21884592.1934
  18293188.179   -35453814.25949 -27590118.73649  18293188.1094   18293193.3544
  19133506.998   -34024518.64649 -26473818.17449  19133506.5494   19133511.1754
  18654838.891    -9804656.02549  -7616007.36049  18654838.3344   18654844.1654
  21505785.897   -10955269.77549  -8514307.33349  21505785.0154   21505790.1444
 97  1 14  2 28 29.9910000  0  7 24  2 26  4  9  7  5
  20214900.674   -20662206.10249 -16080101.84449  20214900.8454   20214905.9624
  19641242.892    -8732154.38049  -6795830.55449  19641242.5514   19641248.1514
  21886061.780    -4957575.22949  -3852807.31749  21886061.7054   21886066.9834
  18271411.051   -35568253.85249 -27679292.43149  18271410.9154   18271416.0614
  19110597.565   -34144908.59049 -26567628.51849  19110597.1294   19110602.0604
  18653126.321    -9813655.90749  -7623020.25149  18653125.4404   18653131.1454
  21477529.613   -11103756.43149  -8630011.16049  21477528.2874   21477534.1634
 97  1 14  2 28 59.9910000  0  7 24  2 26  4  9  7  5
  20183057.797   -20829541.33849 -16210492.91849  20183057.7904   20183063.4044
  19639010.415    -8743886.33549  -6804972.33549  19639010.1164   19639015.4544
  21887546.062    -4949776.31049  -3846730.26049  21887546.0974   21887551.6964
  18249736.242   -35682155.55749 -27768046.99549  18249736.3404   18249741.4474
  19087776.783   -34264832.41649 -26661075.65149  19087776.5674   19087781.7934
  18651449.791    -9822466.09949  -7629885.33649  18651448.9114   18651454.9364
  21449276.954   -11252224.35449  -8745700.44549  21449275.7554   21449282.0964
 97  1 14  2 29 29.9910000  0  7 24  2 26  4  9  7  5
  20151269.726   -20996588.90949 -16340659.82549  20151269.1174   20151274.9294
  19636839.131    -8755296.56049  -6813863.43749  19636838.3604   19636843.8874
  21889045.985    -4941894.16249  -3840588.36749  21889044.4904   21889052.0194
  18228171.078   -35795481.41049 -27856352.84149  18228171.3404   18228175.8114
  19065051.828   -34384252.99049 -26754130.65049  19065051.5494   19065056.1534
  18649815.225    -9831055.46649  -7636578.35449  18649814.5024   18649820.1144
  21421037.613   -11400623.36449  -8861336.00849  21421036.2354   21421041.7484
 97  1 14  2 29 59.9900000  0  7 24  2 26  4  9  7  5
  20119524.996   -21163408.21849 -16470648.88949  20119524.6934   20119529.7194
  19634721.167    -8766426.66349  -6822536.25949  19634719.9364   19634726.2254
  21890553.101    -4933973.44549  -3834416.41149  21890553.7054   21890558.9294
  18206708.400   -35908269.02049 -27944239.27549  18206708.8384   18206713.1724
  19042417.509   -34503197.17949 -26846814.42649  19042417.4594   19042421.7694
  18648211.303    -9839484.13649  -7643146.14949  18648210.6424   18648216.3414
  21392800.110   -11549011.84049  -8976963.33349  21392799.7134   21392806.1334
 97  1 14  2 30 29.9900000  0  7 24  2 26  4  9  7  5
  20087839.917   -21329914.01449 -16600393.64349  20087839.6884   20087844.8364
  19632677.459    -8777166.48149  -6830904.95749  19632676.9714   19632682.7844
  21892089.541    -4925899.75749  -3828125.26749  21892089.3624   21892094.9934
  18185368.963   -36020408.74549 -28031620.86749  18185369.4614   18185373.6404
  19019892.826   -34621565.48249 -26939049.46249  19019892.7324   19019897.3884
  18646659.938    -9847636.80049  -7649498.87049  18646658.9774   18646664.6264
  21364580.890   -11697305.09649  -9092516.49949  21364579.4994   21364585.8054
 97  1 14  2 30 59.9900000  0  7 24  2 26  4  9  7  5
  20056200.440   -21496180.51749 -16729951.93449  20056200.5814   20056205.2204
  19630696.512    -8787576.87549  -6839016.96949  19630695.6724   19630701.8164
  21893645.229    -4917723.80349  -3821754.41649  21893644.6254   21893651.7914
  18164143.334   -36131950.35349 -28118536.38349  18164143.1954   18164147.9804
  18997466.662   -34739415.89149 -27030880.94249  18997466.3084   18997470.8904
  18645151.024    -9855566.32349  -7655677.72049  18645150.4814   18645155.8524
  21336367.698   -11845567.09349  -9208045.25249  21336366.5114   21336372.5184
 97  1 14  2 31 29.9900000  0  7 24  2 26  4  9  7  5
  20024591.604   -21662285.74249 -16859384.54949  20024591.0944   20024596.6794
  19628760.338    -8797751.98649  -6846945.64649  19628760.5424   19628765.3474
  21895207.148    -4909516.45349  -3815359.08949  21895206.9344   21895212.3984
  18143016.233   -36242973.65749 -28205048.03649  18143016.2214   18143021.1214
  18975124.057   -34856827.07349 -27122370.17449  18975123.8854   18975128.4644
  18643671.898    -9863339.42749  -7661734.68049  18643671.0954   18643676.5104
  21308144.485   -11993882.05249  -9323615.31949  21308144.2894   21308149.5714
 97  1 14  2 31 59.9900000  0  7 24  2 26  4  9  7  5
  19993020.717   -21828191.94549 -16988662.08449  19993020.4304   19993025.0854
  19626875.030    -8807660.09349  -6854666.25649  19626874.1884   19626879.6734
  21896781.495    -4901242.23849  -3808911.65549  21896782.2834   21896788.1544
  18121995.601   -36353437.90349 -28291124.06249  18121995.3444   18122000.5684
  18952871.278   -34973766.03249 -27213491.43949  18952871.2804   18952875.4064
  18642227.555    -9870929.80949  -7667649.25949  18642226.8154   18642232.3234
  21279918.191   -12142212.02849  -9439197.10949  21279917.6004   21279923.4014
 97  1 14  2 32 29.9900000  0  7 24  2 26  4  9  7  5
  19961458.795   -21994051.39849 -17117903.16849  19961458.0104   19961463.0964
  19625006.336    -8817479.87849  -6862318.05249  19625005.3714   19625010.4784
  21898334.157    -4893083.85249  -3802554.48749  21898334.0694   21898339.2464
  18101049.702   -36463508.92349 -28376893.67649  18101049.1444   18101054.8994
  18930675.732   -35090404.52849 -27304378.57449  18930675.2764   18930680.2104
  18640785.860    -9878506.27949  -7673553.00249  18640785.1734   18640790.4924
  21251656.756   -12290727.44349  -9554923.37949  21251655.6554   21251662.0594
 97  1 14  2 32 59.9900000  0  7 24  2 26  4  9  7  5
  19929940.047   -22159683.54149 -17246967.11849  19929939.0304   19929944.7734
  19623187.515    -8827037.14749  -6869765.28949  19623186.9204   19623192.0194
  21899898.249    -4884864.74149  -3796150.00749  21899898.3264   21899903.4164
  18080213.692   -36573002.40949 -28462213.25949  18080213.2094   18080218.6944
  18908572.920   -35206555.45849 -27394885.78249  18908572.8374   18908577.3124
  18639377.011    -9885909.53349  -7679321.77649  18639376.1484   18639381.5744
  21223392.522   -12439258.33249  -9670661.69949  21223391.3724   21223396.2444
 97  1 14  2 33 29.9900000  0  7 24  2 26  4  9  7  5
  19898488.213   -22324963.00549 -17375756.27749  19898487.5644   19898492.9684
  19621439.905    -8836220.54649  -6876921.18649  19621439.5204   19621445.1194
  21901495.588    -4876470.22049  -3789608.83649  21901495.4104   21901501.2324
  18059509.688   -36681802.16749 -28546992.27749  18059509.6624   18059514.6854
  18886588.081   -35322086.68049 -27484910.11049  18886587.8274   18886592.5984
  18638020.897    -9893035.97649  -7684874.84949  18638020.0374   18638025.5884
  21195147.451   -12587687.01149  -9786320.40049  21195147.8644   21195151.8264
 97  1 14  2 33 59.9900000  0  7 24  2 26  4  9  7  5
  19867069.298   -22490070.02849 -17504411.07249  19867069.0744   19867074.0044
  19619731.405    -8845198.73049  -6883917.19449  19619731.4834   19619736.5794
  21903089.388    -4868095.05049  -3783082.73849  21903089.5574   21903094.2394
  18038906.116   -36790074.82349 -28631360.56749  18038906.0954   18038911.0604
  18864690.075   -35437161.77549 -27574579.01349  18864689.7274   18864694.4574
  18636680.241    -9900080.87049  -7690364.37449  18636679.3654   18636684.9414
  21166888.037   -12736190.73149  -9902037.56149  21166888.4384   21166892.4414
 97  1 14  2 34 29.9900000  0  7 24  2 26  4  9  7  5
  19835699.632   -22654918.53349 -17632864.41649  19835699.1214   19835704.0114
  19618078.680    -8853884.04149  -6890684.98349  19618078.1874   19618084.0974
  21904694.830    -4859658.16949  -3776508.55449  21904695.0354   21904700.7954
  18018419.520   -36897732.61649 -28715249.74249  18018419.3584   18018424.4204
  18842898.831   -35551675.86949 -27663810.76949  18842898.4734   18842903.2014
  18635372.315    -9906953.93449  -7695720.01249  18635371.4914   18635376.9854
  21138631.125   -12884681.75749 -10017744.85249  21138629.0124   21138636.4584
 97  1 14  2 34 59.9900000  0  7 24  2 26  4  9  7  5
  19804370.901   -22819552.10649 -17761150.29149  19804370.7194   19804375.5634
  19616473.781    -8862318.13249  -6897257.00149  19616473.0384   19616479.0854
  21906304.109    -4851202.16249  -3769919.47349  21906304.1414   21906309.4844
  17998040.214   -37004826.57449 -28798699.57249  17998040.3964   17998045.2924
  18821204.762   -35665679.08749 -27752644.44649  18821204.2614   18821209.1194
  18634086.870    -9913708.62049  -7700983.40649  18634085.9814   18634091.7864
  21110373.757   -13033174.63549 -10133453.58149  21110372.7334   21110378.8204
 97  1 14  2 35 29.9900000  0  7 24  2 26  4  9  7  5
  19773079.867   -22983987.30249 -17889281.58749  19773079.3424   19773084.9404
  19614912.665    -8870522.41449  -6903649.96949  19614912.4994   19614917.9684
  21907908.222    -4842771.98749  -3763350.51349  21907908.0014   21907915.2574
  17977762.780   -37111385.56249 -28881732.53649  17977763.0344   17977767.7074
  18799601.241   -35779206.29249 -27841107.20049  18799600.9174   18799605.5084
  18632819.820    -9920366.95749  -7706171.72349  18632819.0284   18632824.6114
  21082115.803   -13181671.28349 -10249165.22749  21082114.3264   21082120.6714
 97  1 14  2 35 59.9900000  0  7 24  2 26  4  9  7  5
  19741828.772   -23148212.08049 -18017248.91249  19741828.5274   19741833.3854
  19613399.224    -8878475.54949  -6909847.24149  19613398.3674   19613404.3594
  21909504.214    -4834385.39549  -3756815.52449  21909504.3964   21909510.2454
  17957586.923   -37217410.57849 -28964349.42649  17957587.3614   17957592.0764
  18778085.696   -35892271.38349 -27929209.85949  18778085.1724   18778089.8264
  18631572.820    -9926919.65749  -7711277.72449  18631571.9514   18631577.4844
  21053859.653   -13330157.68449 -10364868.91149  21053858.4674   21053864.1274
 97  1 14  2 36 29.9900000  0  7 24  2 26  4  9  7  5
  19710631.433   -23312155.20349 -18144996.77349  19710631.1644   19710636.8234
  19611945.953    -8886112.49649  -6915798.11849  19611945.1234   19611950.5794
  21911104.470    -4825975.87349  -3750262.67749  21911105.0784   21911110.5664
  17937522.609   -37322849.76149 -29046509.81149  17937522.7614   17937527.7954
  18756667.732   -36004823.31749 -28016912.66449  18756667.3994   18756672.2124
  18630358.891    -9933299.00849  -7716248.64449  18630357.9124   18630364.0684
  21025618.429   -13478566.38349 -10480512.05249  21025618.7974   21025623.6434
 97  1 14  2 36 59.9900000  0  7 24  2 26  4  9  7  5
  19679472.586   -23475896.52849 -18272587.38049  19679472.2054   19679477.6464
  19610540.243    -8893499.68249  -6921554.37649  19610539.5464   19610545.8904
  21912691.720    -4817635.42349  -3743763.62049  21912692.2994   21912697.6514
  17917552.977   -37427790.70849 -29128281.96749  17917552.9564   17917557.9384
  18735330.479   -36116951.45049 -28104285.24049  18735330.2114   18735335.0384
  18629163.012    -9939583.24149  -7721145.44749  18629161.8604   18629167.7514
  20997373.556   -13626994.11049 -10596169.99549  20997372.2624   20997379.3074
 97  1 14  2 37 29.9900000  0  7 24  2 26  4  9  7  5
  19648377.709   -23639300.96449 -18399915.47749  19648377.3114   19648382.5844
  19609208.705    -8900496.41849  -6927006.39949  19609207.9284   19609214.3764
  21914290.446    -4809234.79149  -3737217.71249  21914289.9534   21914296.0184
  17897705.065   -37532092.04149 -29209555.72749  17897705.2264   17897710.1504
  18714101.332   -36228511.69049 -28191215.30549  18714101.0074   18714105.8424
  18628011.663    -9945633.31849  -7725859.79749  18628010.8664   18628016.4474
  20969144.937   -13775336.28149 -10711761.30849  20969144.4634   20969149.4134
 97  1 14  2 37 59.9900000  0  7 24  2 26  4  9  7  5
  19617315.058   -23802536.10849 -18527111.65549  19617314.6764   19617320.2354
  19607918.799    -8907275.10049  -6932288.49749  19607918.1314   19607924.8204
  21915869.561    -4800937.03049  -3730751.92549  21915869.7394   21915875.8884
  17877948.087   -37635916.01349 -29290457.51749  17877948.4544   17877953.1064
  18692947.715   -36339674.91349 -28277836.00749  18692947.5024   18692952.0014
  18626872.235    -9951620.99749  -7730525.52049  18626871.2954   18626876.9674
  20940897.268   -13923778.28249 -10827430.38449  20940897.5984   20940903.1594
 97  1 14  2 38 29.9900000  0  7 24  2 26  4  9  7  5
  19586285.393   -23965598.03149 -18654172.87649  19586285.0474   19586290.2484
  19606667.690    -8913850.12349  -6937411.90749  19606666.6174   19606673.2154
  21917431.460    -4792729.67849  -3724356.61649  21917431.7184   21917436.2784
  17858284.627   -37739248.42549 -29370976.26449  17858284.4974   17858289.3804
  18671869.762   -36450440.04649 -28364146.50649  18671869.3044   18671874.1904
  18625743.232    -9957553.94849  -7735148.60349  18625742.5774   18625747.9374
  20912626.060   -14072344.47549 -10943196.23449  20912625.2514   20912631.0414
 97  1 14  2 38 59.9900000  0  7 24  2 26  4  9  7  5
  19555302.611   -24128413.70549 -18781042.20449  19555301.8864   19555307.5174
  19605465.981    -8920164.39149  -6942332.13949  19605464.9894   19605470.8984
  21918989.715    -4784539.67249  -3717974.79949  21918988.8704   21918996.4674
  17838730.156   -37842007.74449 -29451048.45449  17838730.0844   17838734.9884
  18650881.791   -36560732.45049 -28450088.64649  18650881.7034   18650886.1534
  18624639.042    -9963356.44349  -7739670.02649  18624638.2014   18624643.5974
  20884344.231   -14220966.55049 -11059005.61749  20884343.4304   20884349.2954
 97  1 14  2 39 29.9900000  0  7 24  2 26  4  9  7  5
  19524379.186   -24290917.69949 -18907668.67749  19524379.0744   19524383.4344
  19604322.070    -8926175.63849  -6947016.24249  19604320.8014   19604326.9484
  21920557.354    -4776301.67549  -3711555.58749  21920557.0244   21920563.4054
  17819298.359   -37944122.61749 -29530618.47549  17819298.3464   17819303.1044
  18629995.938   -36670488.33749 -28535612.70949  18629995.4334   18630000.3184
  18623572.720    -9968960.02449  -7744036.45549  18623571.8994   18623577.4094
  20856067.881   -14369559.46449 -11174792.29449  20856067.0354   20856072.6504
 97  1 14  2 39 59.9900000  0  7 24  2 26  4  9  7  5
  19493514.327   -24453113.87249 -19034055.28049  19493513.1024   19493519.1524
  19603232.663    -8931900.57049  -6951477.23849  19603231.5954   19603237.0704
  21922132.975    -4768021.63449  -3705103.63849  21922133.7534   21922138.3304
  17799988.120   -38045598.41149 -29609690.51649  17799987.9054   17799992.7904
  18609211.719   -36779710.01749 -28620720.51349  18609211.2714   18609216.2394
  18622543.671    -9974367.91849  -7748250.39949  18622542.9524   18622549.0424
  20827797.832   -14518119.66649 -11290553.46749  20827798.0454   20827803.4144
 97  1 14  2 40 29.9900000  0  7 24  2 26  4  9  7  5
  19462669.864   -24615202.44449 -19160358.03849  19462669.3444   19462674.3944
  19602158.001    -8937548.22949  -6955878.03649  19602157.2894   19602163.0194
  21923679.407    -4759895.19749  -3698771.34849  21923678.9434   21923685.7234
  17780758.669   -38146649.48749 -29688431.60649  17780758.2874   17780763.8234
  18588495.117   -36888576.33049 -28705551.41149  18588494.6234   18588499.4764
  18621515.127    -9979772.83049  -7752462.02049  18621514.4244   18621520.1834
  20799497.970   -14666836.46849 -11406436.65949  20799497.5474   20799503.4434
 97  1 14  2 40 59.9900000  0  6 24  2  4  9  7  5
  19431863.803   -24777088.11249 -19286502.69949  19431863.5714   19431868.8904
  19601115.271    -8943027.35049  -6960147.49349  19601115.0304   19601120.4094
  17761625.287   -38247195.60049 -29766779.22449  17761625.2634   17761630.1544
  18567866.612   -36996980.01049 -28790021.81949  18567866.1444   18567871.0554
  18620506.371    -9985073.89149  -7756592.71949  18620505.4724   18620511.0034
  20771192.487   -14815582.33349 -11522342.51549  20771191.5634   20771198.0114
 97  1 14  2 41 29.9900000  0  6 24  2  4  9  7  5
  19401114.899   -24938674.00549 -19412413.76449  19401114.4284   19401119.9464
  19600125.647    -8948228.06149  -6964200.00749  19600124.8164   19600130.9634
  17742605.137   -38347147.11949 -29844663.52349  17742605.2304   17742610.4594
  18547343.820   -37104827.85149 -28874059.10849  18547343.7914   18547348.3884
  18619532.609    -9990191.13749  -7760580.19349  18619531.8964   18619537.2624
  20742899.978   -14964259.92749 -11638195.18449  20742899.4304   20742904.6094
 97  1 14  2 41 59.9890000  0  6 24  2  4  9  7  5
  19370421.580   -25099967.80849 -19538097.22549  19370421.3164   19370426.9344
  19599186.818    -8953160.91449  -6968043.79849  19599185.5964   19599192.8864
  17723694.045   -38446525.52049 -29922101.23249  17723694.2924   17723699.1044
  18526924.984   -37212129.93049 -28957671.12649  18526924.5074   18526929.2294
  18618587.942    -9995155.05349  -7764448.17749  18618586.8014   18618592.4814
  20714615.643   -15112894.74849 -11754014.51249  20714615.6004   20714620.4714
 97  1 14  2 42 29.9890000  0  6 24  2  4  9  7  5
  19339803.532   -25260865.69549 -19663472.18549  19339803.1534   19339808.7104
  19598320.716    -8957712.21349  -6971590.27049  19598320.5454   19598326.4084
  17704910.530   -38545234.06749 -29999016.97649  17704910.6154   17704915.4614
  18506628.206   -37318789.91049 -29040782.81349  18506627.5684   18506632.3254
  18617694.003    -9999852.31749  -7768108.38949  18617693.2694   18617698.5714
  20686358.667   -15261385.74749 -11869721.78849  20686358.8124   20686364.7234
 97  1 14  2 42 59.9890000  0  6 24  2  4  9  7  5
  19309240.513   -25421475.48949 -19788622.65449  19309239.8214   19309245.4414
  19597511.365    -8961965.52849  -6974904.55449  19597510.8664   19597516.9614
  17686237.225   -38643363.14349 -30075481.18949  17686236.9634   17686241.7914
  18486431.259   -37424925.11349 -29123485.56949  18486430.7004   18486435.4204
  18616828.520   -10004400.06749  -7771652.09849  18616827.5584   18616833.3464
  20658106.741   -15409851.15749 -11985409.11449  20658107.4204   20658111.3164
 97  1 14  2 43 29.9890000  0  6 24  2  4  9  7  5
  19278735.795   -25581778.56749 -19913534.13549  19278735.4894   19278741.5104
  19596764.895    -8965888.86649  -6977961.71949  19596764.9824   19596770.0774
  17667682.065   -38740870.86949 -30151461.23149  17667681.9984   17667686.8124
  18466339.202   -37530509.64549 -29205759.23849  18466338.5504   18466343.3994
  18615993.494   -10008787.60049  -7775070.95249  18615992.5774   18615998.4484
  20629859.308   -15558292.34749 -12101077.56449  20629858.7864   20629864.5504
 97  1 14  2 43 59.9890000  0  6 24  2  4  9  7  5
  19248282.273   -25741813.07649 -20038236.34549  19248282.3014   19248287.1254
  19596069.916    -8969541.55349  -6980807.98649  19596069.4334   19596074.7494
  17649236.795   -38837801.41849 -30226991.51949  17649236.8184   17649241.5574
  18446344.652   -37635581.44049 -29287633.36549  18446344.3724   18446349.1654
  18615181.117   -10013056.62449  -7778397.46649  18615180.3494   18615186.6084
  20601606.444   -15706763.73049 -12216769.56749  20601604.5164   20601610.4624
 97  1 14  2 44 29.9890000  0  6 24  2  4  9  7  5
  19217853.751   -25901715.73349 -20162835.81749  19217853.0674   19217858.8904
  19595401.497    -8973054.90749  -6983545.68449  19595401.1964   19595405.8694
  17630875.383   -38934291.27749 -30302178.40949  17630875.4294   17630880.1784
  18426421.630   -37740277.57249 -29369214.76749  18426421.1244   18426426.0094
  18614362.027   -10017360.89349  -7781751.44449  18614361.4064   18614366.7914
  20573321.101   -15855402.87549 -12332592.25249  20573321.1364   20573326.6834
 97  1 14  2 44 59.9890000  0  6 24  2  4  9  7  5
  19187465.547   -26061406.96049 -20287270.53249  19187465.0244   19187471.1524
  19594773.420    -8976356.22349  -6986118.14149  19594772.8914   19594778.9704
  17612614.564   -39030252.77049 -30376953.59149  17612614.8604   17612619.3084
  18406585.643   -37844516.51749 -29450439.92049  18406585.4764   18406590.0654
  18613547.796   -10021639.55449  -7785085.46249  18613547.1994   18613553.3044
  20545020.298   -16004125.41149 -12448479.95649  20545018.3604   20545025.3464
 97  1 14  2 45 29.9890000  0  6 24  2  4  9  7  5
  19157135.105   -26220794.17949 -20411468.35349  19157134.9914   19157140.8264
  19594196.941    -8979385.86149  -6988478.91249  19594196.3004   19594201.5754
  17594468.102   -39125613.31849 -30451260.50249  17594467.9734   17594472.8624
  18386853.240   -37948211.12849 -29531240.91749  18386852.6274   18386857.7244
  18612754.442   -10025808.68449  -7788334.13749  18612753.5294   18612759.3184
  20516722.574   -16152830.61449 -12564354.11049  20516722.2994   20516727.9464
 97  1 14  2 45 59.9890000  0  6 24  2  4  9  7  5
  19126871.871   -26379827.80949 -20535390.66349  19126871.3334   19126877.1054
  19593680.114    -8982101.79249  -6990595.23449  19593679.6984   19593685.3204
  17576440.475   -39220349.33249 -30525080.76349  17576440.5834   17576445.2304
  18367228.864   -38051337.43349 -29611599.08049  18367228.4824   18367233.4594
  18611990.866   -10029821.43049  -7791460.95149  18611990.4974   18611995.8624
  20488438.957   -16301462.10549 -12680170.87949  20488439.1894   20488444.0124
 97  1 14  2 46 29.9890000  0  6 24  2  4  9  7  5
  19096641.557   -26538688.42749 -20659178.14849  19096641.2204   19096646.9294
  19593191.392    -8984670.00949  -6992596.45249  19593191.0064   19593196.2164
  17558497.951   -39314638.06749 -30598552.49549  17558497.9754   17558502.5614
  18347676.907   -38154083.55249 -29691660.98849  18347676.6784   18347681.4184
  18611224.644   -10033848.57449  -7794598.98249  18611223.8384   18611230.0574
  20460139.142   -16450178.85149 -12796054.05649  20460138.0914   20460142.7924
 97  1 14  2 46 59.9890000  0  6 24  2  4  9  7  5
  19066478.033   -26697199.07049 -20782692.92449  19066477.4524   19066482.7744
  19592763.522    -8986918.94849  -6994348.88249  19592763.1424   19592768.7844
  17540676.178   -39408292.21549 -30671529.74749  17540676.3624   17540680.9484
  18328230.469   -38256275.28149 -29771290.90849  18328230.2804   18328235.2034
  18610492.501   -10037696.37749  -7797597.26849  18610491.8654   18610497.5264
  20431857.663   -16598798.12249 -12911861.26149  20431857.4094   20431862.7554
 97  1 14  2 47 29.9890000  0  6 24  2  4  9  7  5
  19036366.818   -26855434.74749 -20905993.43849  19036366.6284   19036372.2554
  19592384.755    -8988909.60949  -6995900.05049  19592384.5944   19592389.1764
  17522961.027   -39501386.04249 -30744070.38049  17522960.9074   17522965.7324
  18308875.360   -38357986.85649 -29850546.67249  18308875.1104   18308880.1574
  18609782.095   -10041429.90749  -7800506.51349  18609781.1774   18609786.9684
  20403580.765   -16747395.53749 -13027651.47749  20403579.5164   20403585.0904
 97  1 14  2 47 59.9890000  0  6 24  2  4  9  7  5
  19006323.910   -27013310.98249 -21029013.87249  19006323.5864   19006329.3434
  19592070.855    -8990559.30749  -6997185.54849  19592070.0224   19592075.1634
  17505371.062   -39593821.61349 -30816098.08949  17505371.0644   17505375.9954
  18289627.245   -38459136.52549 -29929364.59549  18289626.6354   18289631.2604
  18609108.738   -10044968.36749  -7803263.75549  18609108.0534   18609113.5634
  20375322.819   -16895891.81549 -13143362.84849  20375322.6684   20375327.1884
 97  1 14  2 48 29.9890000  0  6 24  2  4  9  7  5
  18976342.994   -27170861.79149 -21151780.72549  18976342.1224   18976348.4524
  19591815.359    -8991901.25549  -6998231.22949  19591813.9694   19591821.3404
  17487904.647   -39685608.19249 -30887620.09249  17487904.5264   17487909.3644
  18270485.753   -38559725.90749 -30007745.93349  18270485.3664   18270490.3004
  18608467.213   -10048339.53349  -7805890.64149  18608465.9874   18608472.2634
  20347076.560   -17044327.48149 -13259026.99049  20347075.9824   20347081.6064
 97  1 14  2 48 59.9890000  0  6 24  2  4  9  7  5
  18946426.589   -27328072.81749 -21274282.80749  18946426.6424   18946432.1404
  19591619.106    -8992932.01649  -6999034.43649  19591618.7754   19591624.7384
  17470565.310   -39776727.34449 -30958622.01749  17470565.5194   17470569.7174
  18251455.011   -38659733.04549 -30085673.57849  18251454.5414   18251459.7704
  18607857.538   -10051543.22749  -7808387.02649  18607856.3894   18607862.7634
  20318840.782   -17192706.78849 -13374647.24149  20318840.4794   20318845.6724
 97  1 14  2 49 29.9890000  0  6 24  2  4  9  7  5
  18916577.360   -27484931.01949 -21396509.96649  18916576.9964   18916582.6754
  19591482.680    -8993648.97749  -6999593.11749  19591482.2194   19591487.7854
  17453353.588   -39867175.64149 -31029101.20149  17453353.5054   17453358.0214
  18232536.140   -38759152.30349 -30163143.12449  18232535.8084   18232540.7944
  18607279.358   -10054581.53349  -7810754.53649  18607278.5694   18607284.0844
  20290616.351   -17341027.39249 -13490221.71349  20290614.4204   20290621.5664
 97  1 14  2 49 59.9890000  0  6 24  2  4  9  7  5
  18886797.695   -27641424.15049 -21518452.65749  18886797.4424   18886803.6944
  19591403.545    -8994064.82849  -6999917.16649  19591401.6954   19591408.7364
  17436269.060   -39956955.36249 -31099059.41249  17436268.9924   17436273.6254
  18213730.972   -38857974.37849 -30240147.34449  18213730.7874   18213735.1104
  18606731.055   -10057463.01949  -7812999.85149  18606730.4894   18606736.3664
  20262401.981   -17489294.54549 -13605754.56249  20262401.4614   20262407.1244
 97  1 14  2 50 29.9890000  0  6 24  2  4  9  7  5
  18857094.510   -27797515.83449 -21640082.53049  18857094.8154   18857099.5134
  19591389.299    -8994139.53449  -6999975.38549  19591388.7744   19591393.8054
  17419314.467   -40046052.28549 -31168485.57649  17419314.2904   17419318.8574
  18195043.550   -38956177.21749 -30316669.02849  18195043.1044   18195047.8514
  18606216.075   -10060169.54149  -7815108.82749  18606215.2654   18606220.9054
  20234203.089   -17637480.68549 -13721224.23249  20234201.8144   20234208.3634
 97  1 14  2 50 59.9890000  0  6 24  2  4  9  7  5
  18827457.111   -27953262.77149 -21761443.75549  18827456.8534   18827462.4234
  19591427.450    -8993939.34249  -6999819.41149  19591427.1774   19591432.3934
  17402474.638   -40134545.85449 -31237441.58649  17402474.5284   17402479.2954
  18176459.378   -39053837.96749 -30392768.31049  18176459.2394   18176464.1344
  18605720.531   -10062773.45849  -7817137.85149  18605720.1584   18605725.3594
  20206010.087   -17785635.34949 -13836669.41849  20206010.2004   20206014.6944
 97  1 14  2 51 29.9890000  0  6 24  2  4  9  7  5
  18797864.210   -28108774.50849 -21882621.71449  18797864.2794   18797870.1094
  19591499.740    -8993559.74349  -6999523.63849  19591499.1274   19591504.6214
  17385728.890   -40222544.93549 -31306012.29149  17385728.6604   17385733.8994
  18157963.073   -39151037.12749 -30468507.91349  18157962.9444   18157967.6804
  18605226.885   -10065368.09949  -7819159.64849  18605226.4604   18605231.5394
  20177806.763   -17933844.34849 -13952156.93349  20177806.3254   20177812.0024
 97  1 14  2 51 59.9890000  0  6 24  2  4  9  7  5
  18768323.892   -28264009.91049 -22003584.34449  18768323.0604   18768329.3024
  19591614.655    -8992955.60049  -6999052.89349  19591613.6184   19591619.9554
  17369081.162   -40310029.13349 -31374181.78649  17369081.1254   17369086.1584
  18139563.643   -39247726.84049 -30543850.54749  18139563.3024   18139568.1954
  18604742.805   -10067912.25649  -7821142.10749  18604742.0254   18604747.7244
  20149601.476   -18082064.02749 -14067652.76749  20149600.4724   20149605.4854
 97  1 14  2 52 29.9890000  0  6 24  2  4  9  7  5
  18738852.092   -28418884.97549 -22124266.19349  18738851.4834   18738857.6764
  19591794.734    -8992008.49849  -6998314.91749  19591794.1534   19591799.6344
  17352550.141   -40396899.97249 -31441873.34349  17352549.7904   17352555.0124
  18121280.309   -39343806.17549 -30618717.56749  18121279.7394   18121284.8664
  18604289.745   -10070293.00249  -7822997.23849  18604289.0394   18604294.3584
  20121415.470   -18230182.91149 -14183070.07349  20121415.3944   20121420.0174
 97  1 14  2 52 59.9890000  0  6 24  2  4  9  7  5
  18709434.866   -28573473.35449 -22244724.65949  18709434.4384   18709440.7644
  19592026.953    -8990787.38649  -6997363.43049  19592025.9834   19592032.1924
  17336124.046   -40483219.40449 -31509135.22949  17336124.1014   17336128.9564
  18103102.577   -39439330.15249 -30693151.82649  18103102.2434   18103107.4134
  18603857.258   -10072565.52449  -7824768.03049  18603856.2584   18603862.3464
  20093234.595   -18378274.54749 -14298466.12649  20093234.0044   20093239.1814
 97  1 14  2 53 29.9890000  0  6 24  2  4  9  7  5
  18680076.914   -28727750.75649 -22364940.79349  18680076.5424   18680082.7204
  19592316.084    -8989267.92449  -6996179.44649  19592315.9124   19592321.9104
  17319808.400   -40568958.33149 -31575944.77049  17319808.2564   17319813.3984
  18085032.446   -39534289.35849 -30767146.01349  18085032.0434   18085036.9144
  18603448.197   -10074715.04249  -7826442.97649  18603447.3714   18603453.1614
  20065060.889   -18526327.90949 -14413832.35049  20065060.7674   20065065.0864
 97  1 14  2 53 59.9880000  0  6 24  2  4  9  7  5
  18650793.899   -28881633.81149 -22484849.66349  18650793.5644   18650799.1024
  19592672.154    -8987397.20049  -6994721.75949  19592670.5664   19592677.0484
  17303616.547   -40654046.87749 -31642247.52549  17303616.7654   17303621.4784
  18067074.459   -39628659.05349 -30840680.84149  18067073.7854   18067078.9694
  18603069.816   -10076703.27949  -7827992.25249  18603069.0334   18603074.5794
  20036903.187   -18674297.47249 -14529133.28549  20036902.5814   20036907.4684
 97  1 14  2 54 29.9880000  0  6 24  2  4  9  7  5
  18621579.471   -29035156.70549 -22604477.87849  18621579.5994   18621585.1084
  19593088.777    -8985207.01649  -6993015.14049  19593088.0574   19593093.6354
  17287548.214   -40738486.96049 -31708044.98649  17287548.5194   17287553.0974
  18049221.800   -39722475.05349 -30913784.21849  18049221.5044   18049226.5604
  18602716.020   -10078562.47949  -7829440.98449  18602715.0384   18602720.6714
  20008753.596   -18822225.07649 -14644401.53849  20008753.7184   20008757.9424
 97  1 14  2 54 59.9880000  0  6 24  2  4  9  7  5
  18592434.164   -29188316.35049 -22723823.04549  18592433.9864   18592440.0964
  19593556.998    -8982745.98849  -6991097.44549  19593556.1234   19593562.1884
  17271601.429   -40822287.94949 -31773344.44649  17271601.5994   17271606.0974
  18031470.298   -39815759.66049 -30986473.52349  18031469.8334   18031475.0864
  18602379.312   -10080331.83749  -7830819.70849  18602378.8514   18602384.2724
  19980606.384   -18970140.26949 -14759660.10749  19980605.5154   19980610.7584
 97  1 14  2 55 29.9880000  0  6 24  2  4  9  7  5
  18563370.303   -29341047.92249 -22842834.65149  18563369.7074   18563375.7074
  19594087.703    -8979956.25149  -6988923.65249  19594087.5654   19594093.4474
  17255787.491   -40905391.07949 -31838100.12549  17255787.6674   17255792.1934
  18013830.790   -39908455.72849 -31058704.22849  18013830.5554   18013835.7084
  18602071.509   -10081949.38349  -7832080.13949  18602071.2044   18602076.0604
  19952476.678   -19117962.71949 -14874846.42149  19952476.2584   19952480.7374
 97  1 14  2 55 59.9880000  0  6 24  2  4  9  7  5
  18534350.887   -29493545.64849 -22961664.02349  18534349.8574   18534355.7984
  19594643.162    -8977038.06849  -6986649.75349  19594643.1114   19594649.1204
  17240066.999   -40988002.64949 -31902472.76649  17240066.7604   17240071.6574
  17996270.551   -40000735.56649 -31130610.60049  17996270.1214   17996275.1674
  18601759.058   -10083591.09949  -7833359.40649  18601758.4914   18601763.5994
  19924330.927   -19265869.64149 -14990098.55249  19924330.2434   19924335.5324
 97  1 14  2 56 29.9880000  0  6 24  2  4  9  7  5
  18505391.333   -29645728.43349 -23080247.99749  18505390.8054   18505397.0674
  19595242.521    -8973888.49749  -6984195.55649  19595242.3364   19595248.8334
  17224457.404   -41070031.69049 -31966391.48949  17224457.2264   17224461.9234
  17978814.154   -40092469.74549 -31202091.78549  17978813.8364   17978818.8064
  18601465.002   -10085136.49149  -7834563.60549  18601464.5144   18601469.9094
  19896191.484   -19413742.95649 -15105324.49949  19896190.5844   19896195.9934
 97  1 14  2 56 59.9880000  0  6 24  2  4  9  7  5
  18476489.150   -29797610.35449 -23198597.53949  18476488.5934   18476494.9524
  19595884.274    -8970516.31249  -6981567.88249  19595883.7724   19595890.4564
  17208952.113   -41151512.20349 -32029882.79149  17208952.0204   17208956.6924
  17961460.022   -40183666.86749 -31273154.49049  17961460.0504   17961464.5744
  18601189.439   -10086584.58249  -7835691.99149  18601188.9154   18601194.3204
  19868059.720   -19561576.67349 -15220519.60249  19868059.5894   19868064.1764
 97  1 14  2 57 29.9880000  0  6 24  2  4  9  7  5
  18447637.108   -29949229.18849 -23316742.07649  18447636.4174   18447642.3014
  19596564.456    -8966942.29149  -6978782.93549  19596564.7214   19596570.6954
  17193542.634   -41232489.82249 -32092982.22549  17193542.6284   17193547.3124
  17944201.003   -40274364.04349 -31343827.61749  17944200.6384   17944205.2684
  18600926.851   -10087964.36849  -7836767.16249  18600926.1474   18600931.4604
  19839929.984   -19709399.31149 -15335706.06049  19839929.2534   19839934.3194
 97  1 14  2 57 59.9880000  0  6 24  2  4  9  7  5
  18418836.363   -30100577.74449 -23434676.01049  18418835.9254   18418842.1954
  19597284.068    -8963161.53349  -6975836.90549  19597283.7434   19597289.8684
  17178232.558   -41312944.81449 -32155674.41849  17178232.4974   17178237.2434
  17927039.888   -40364546.37749 -31414099.56649  17927039.2894   17927044.3994
  18600676.594   -10089279.67949  -7837792.07849  18600676.0904   18600681.6744
  19811798.341   -19857232.41349 -15450900.66649  19811797.7484   19811803.3074
 97  1 14  2 58 29.9880000  0  6 24  2  4  9  7  5
  18390111.764   -30251525.86149 -23552297.91549  18390110.7414   18390117.3514
  19598066.267    -8959051.31049  -6972634.15149  19598066.4414   19598071.5014
  17163049.230   -41392733.59049 -32217847.47949  17163048.9684   17163053.9824
  17909997.493   -40454104.92249 -31483885.45349  17909996.9274   17910001.5824
  18600460.074   -10090417.17449  -7838678.45049  18600459.3404   18600464.7324
  19783685.479   -20004966.20849 -15566017.90649  19783684.3504   19783690.3044
 97  1 14  2 58 59.9880000  0  6 24  2  4  9  7  5
  18361453.920   -30402123.75149 -23669646.90949  18361452.9814   18361459.2004
  19598897.203    -8954684.97649  -6969231.83849  19598896.7464   19598901.6474
  17147981.151   -41471916.67949 -32279548.58049  17147981.1304   17147985.7484
  17893055.979   -40543133.04049 -31553258.01249  17893055.5054   17893060.6664
  18600261.232   -10091461.99249  -7839492.59649  18600260.4584   18600266.5064
  19755575.151   -20152687.03449 -15681125.05649  19755574.6404   19755580.1574
 97  1 14  2 59 29.9880000  0  6 24  2  4  9  7  5
  18332877.243   -30552294.42049 -23786662.99249  18332876.4944   18332882.9594
  19599790.618    -8949990.19249  -6965573.58949  19599788.9584   19599795.5194
  17133045.329   -41550404.87249 -32340708.20349  17133045.5594   17133049.8754
  17876228.090   -40631563.91049 -31622165.19049  17876227.6454   17876232.8274
  18600089.415   -10092365.10949  -7840196.32549  18600088.8864   18600094.2004
  19727476.312   -20300346.79549 -15796184.59449  19727475.7234   19727481.5264
 97  1 14  2 59 59.9880000  0  6 24  2  4  9  7  5
  18304387.262   -30702009.52149 -23903324.11149  18304387.1264   18304393.6904
  19600749.468    -8944951.07649  -6961647.00849  19600748.3844   19600754.6164
  17118247.334   -41628168.86549 -32401303.51949  17118247.2644   17118252.0404
  17859519.150   -40719369.78949 -31690585.35949  17859518.9824   17859524.0324
  18599947.605   -10093110.46849  -7840777.13049  18599947.1454   18599952.6674
  19699394.056   -20447920.20549 -15911176.84949  19699392.9344   19699398.7854
 97  1 14  3  0 29.9880000  0  6 24  2  4  9  7  5
  18275959.626   -30851397.82149 -24019730.55449  18275959.2774   18275965.6374
  19601746.008    -8939715.20849  -6957567.12849  19601745.6144   19601750.7464
  17103556.956   -41705367.23749 -32461458.08949  17103557.1644   17103561.6634
  17842899.304   -40806707.38449 -31758640.63049  17842898.7584   17842903.9424
  18599806.860   -10093850.54849  -7841353.81749  18599806.1524   18599811.5984
  19671303.321   -20595537.90049 -16026203.61449  19671302.4114   19671308.2584
 97  1 14  3  0 59.9880000  0  6 24  2  4  9  7  5
  18247615.260   -31000348.30349 -24135795.86549  18247614.7994   18247621.2374
  19602801.864    -8934167.38949  -6953244.17949  19602800.8834   19602807.3014
  17088992.584   -41781903.72249 -32521096.90449  17088992.6774   17088997.5004
  17826391.370   -40893456.91449 -31826237.67549  17826391.3164   17826396.4104
  18599686.053   -10094485.39749  -7841848.50449  18599685.2164   18599690.7394
  19643224.940   -20743091.01449 -16141180.05749  19643224.3894   19643229.7504
 97  1 14  3  1 29.9880000  0  6 24  2  4  9  7  5
  18219333.823   -31148968.35949 -24251603.68849  18219333.3084   18219339.7964
  19603898.390    -8928405.30649  -6948754.24649  19603897.4344   19603904.7034
  17074531.857   -41857895.42249 -32580311.21249  17074532.0974   17074536.5264
  17809979.887   -40979699.94149 -31893440.04749  17809979.6884   17809985.0034
  18599567.403   -10095108.60149  -7842334.12149  18599566.8584   18599572.5334
  19615144.316   -20890655.62249 -16256165.47049  19615144.2384   19615148.7834
 97  1 14  3  1 59.9880000  0  6 24  2  4  9  7  5
  18191079.779   -31297444.23149 -24367299.15949  18191079.4584   18191085.4374
  19604998.812    -8922621.49649  -6944247.39949  19604997.3134   19605004.7344
  17060136.247   -41933545.20449 -32639259.08449  17060136.6634   17060140.8514
  17793629.469   -41065622.17249 -31960392.43349  17793629.5474   17793634.2894
  18599418.831   -10095889.35949  -7842942.50949  18599418.3714   18599423.9224
  19587031.830   -21038387.53749 -16371281.23949  19587030.9014   19587036.6984
 97  1 14  3  2 29.9880000  0  6 24  2  4  9  7  5
  18162855.729   -31445762.83349 -24482872.07549  18162855.3174   18162861.4484
  19606110.339    -8916780.72649  -6939696.17549  19606110.4424   19606115.5504
  17045808.144   -42008840.61249 -32697930.81949  17045808.3524   17045812.7854
  17777344.242   -41151201.44749 -32027077.58549  17777343.6214   17777349.0084
  18599245.490   -10096800.30849  -7843652.33549  18599244.7914   18599250.2034
  19558893.591   -21186254.17049 -16486501.99649  19558893.4604   19558898.6044
 97  1 14  3  2 59.9880000  0  6 24  2  4  9  7  5
  18134698.687   -31593728.93849 -24598170.33649  18134698.4204   18134704.4184
  19607276.386    -8910654.30049  -6934922.38349  19607276.4254   19607281.5034
  17031588.210   -42083566.78749 -32756158.99949  17031588.1474   17031592.7354
  17761167.667   -41236209.79449 -32093317.86349  17761167.3904   17761172.6424
  18599090.216   -10097616.33249  -7844288.20249  18599089.6484   18599095.4064
  19530772.603   -21334030.85449 -16601652.67249  19530771.6984   19530777.7354
 97  1 14  3  3 29.9880000  0  6 24  2  4  9  7  5
  18106616.658   -31741301.79049 -24713162.14649  18106616.8004   18106622.2704
  19608499.875    -8904226.19449  -6929913.48749  19608499.6984   19608504.4384
  17017482.443   -42157692.63149 -32813919.38749  17017482.2524   17017486.8004
  17745105.905   -41320615.07749 -32159088.21649  17745105.3794   17745110.6484
  18598959.196   -10098304.69949  -7844824.58249  18598958.4594   18598963.6784
  19502675.981   -21481678.75349 -16716702.98149  19502675.7194   19502680.7704
 97  1 14  3  3 59.9880000  0  6 24  2  4  9  7  5
  18078628.693   -31888379.62349 -24827768.23449  18078628.4164   18078634.2424
  19609796.020    -8897415.25849  -6924606.27849  19609795.7014   19609800.5654
  17003510.453   -42231115.63749 -32871132.11849  17003510.3954   17003514.9714
  17729174.567   -41404334.65649 -32224324.26549  17729174.2284   17729179.0914
  18598867.920   -10098784.15249  -7845198.18649  18598867.4724   18598873.1014
  19474615.923   -21629135.38049 -16831604.25149  19474615.4444   19474620.8864
 97  1 14  3  4 29.9880000  0  6 24  2  4  9  7  5
  18050716.137   -32035061.30449 -24942065.62249  18050716.2094   18050721.6284
  19611146.365    -8890319.52049  -6919077.14549  19611145.8764   19611150.5124
  16989655.472   -42303924.18349 -32927866.04049  16989655.1564   16989660.0924
  17713354.444   -41487470.11749 -32289105.15449  17713354.2404   17713359.0364
  18598794.487   -10099169.88449  -7845498.74749  18598793.8134   18598799.1944
  19446565.480   -21776541.34049 -16946466.02249  19446565.3334   19446570.4184
 97  1 14  3  4 59.9880000  0  6 24  2  4  9  7  5
  18022903.953   -32181215.26949 -25055951.81249  18022904.0134   18022909.5274
  19612570.714    -8882834.35949  -6913244.58049  19612568.8414   19612575.1514
  16975942.334   -42375986.81749 -32984018.74449  16975942.3804   16975946.6664
  17697669.044   -41569897.70549 -32353334.44349  17697668.4394   17697673.9084
  18598762.092   -10099339.86249  -7845631.20449  18598761.4054   18598767.2284
  19418546.953   -21923779.84049 -17061197.31549  19418545.9204   19418552.6784
 97  1 14  3  5 29.9880000  0  6 24  2  4  9  7  5
  17995183.079   -32326890.10049 -25169464.66349  17995183.1944   17995188.2924
  19614054.705    -8875035.20749  -6907167.33049  19614054.4334   19614059.7034
  16962360.958   -42447357.47949 -33039632.24249  16962360.9124   16962365.7234
  17682104.521   -41651689.66549 -32417068.45649  17682104.4144   17682108.9034
  18598759.525   -10099353.40249  -7845641.75449  18598759.2174   18598764.8564
  19390548.518   -22070912.66349 -17175846.25849  19390548.2434   19390552.7904
 97  1 14  3  5 59.9880000  0  6 24  2  4  9  7  5
  17967535.092   -32472181.61849 -25282678.81949  17967535.3744   17967540.5994
  19615587.858    -8866978.69349  -6900889.52449  19615586.2224   19615593.2434
  16948898.603   -42518102.64849 -33094758.33949  16948898.6124   16948903.4004
  17666647.493   -41732917.10449 -32480362.57549  17666647.5344   17666652.6474
  18598772.501   -10099284.70549  -7845588.22949  18598771.9284   18598777.7604
  19362554.754   -22218021.81149 -17290476.76449  19362553.8334   19362559.4744
 97  1 14  3  6 29.9870000  0  6 24  2  4  9  7  5
  17939943.548   -32617176.07849 -25395661.50549  17939943.4664   17939948.0644
  19617157.224    -8858731.24049  -6894462.96149  19617156.3254   19617162.3934
  16935543.215   -42588285.17749 -33149446.01849  16935543.2174   16935548.0324
  17651285.290   -41813646.43949 -32543268.55449  17651285.0304   17651290.2334
  18598788.403   -10099200.55749  -7845522.66349  18598787.1284   18598793.8874
  19334559.124   -22365139.53049 -17405113.93849  19334558.1944   19334564.5534
 97  1 14  3  6 59.9870000  0  6 24  2  4  9  7  5
  17912430.335   -32761759.47449 -25508323.86749  17912429.8334   17912435.3484
  19618786.467    -8850169.31349  -6887791.34049  19618784.8284   19618791.3024
  16922315.257   -42657798.60549 -33203612.31749  16922315.1154   16922319.8084
  17636040.351   -41893759.22649 -32605694.10049  17636039.9844   17636045.2994
  18598831.258   -10098974.68949  -7845346.65949  18598830.3584   18598835.9124
  19306590.289   -22512116.57149 -17519641.49549  19306590.1364   19306595.7254
 97  1 14  3  7 29.9870000  0  6 24  2  4  9  7  5
  17884984.951   -32905985.45149 -25620707.72249  17884984.2834   17884989.9194
  19620465.256    -8841346.80049  -6880916.66249  19620464.2054   19620470.1864
  16909203.310   -42726702.27049 -33257303.47949  16909203.2124   16909207.7984
  17620900.187   -41973321.49649 -32667690.68349  17620900.3154   17620904.8784
  18598888.244   -10098674.88449  -7845113.04449  18598887.1084   18598893.7864
  19278634.838   -22659023.38549 -17634114.32649  19278634.4294   19278639.7674
 97  1 14  3  7 59.9870000  0  6 24  2  4  9  7  5
  17857606.368   -33049860.67749 -25732818.27549  17857605.8274   17857611.7474
  19622193.688    -8832264.03149  -6873839.19649  19622193.9484   19622198.1594
  16896203.896   -42795014.18349 -33310533.53849  16896203.7924   16896208.6994
  17605864.334   -42052335.84049 -32729260.31449  17605864.0744   17605868.8064
  18598956.073   -10098317.94949  -7844834.91449  18598954.9514   18598961.1824
  19250691.337   -22805867.91849 -17748538.62449  19250690.6244   19250696.0704
 97  1 14  3  8 29.9870000  0  6 24  2  4  9  7  5
  17830298.792   -33193362.13249 -25844637.57849  17830298.0624   17830304.4114
  19623972.190    -8822918.83849  -6866557.24949  19623972.4974   19623977.4514
  16883314.625   -42862747.50149 -33363312.74149  16883314.4854   16883319.6294
  17590931.132   -42130810.76549 -32790409.62349  17590930.9924   17590935.7074
  18599034.023   -10097908.02049  -7844515.49549  18599033.4674   18599039.7854
  19222760.380   -22952646.53549 -17862911.57249  19222759.8304   19222765.3394
 97  1 14  3  8 59.9870000  0  6 24  2  4  9  7  5
  17803058.484   -33336510.13349 -25956181.46149  17803058.0194   17803063.8744
  19625791.802    -8813357.52449  -6859106.91249  19625791.0684   19625796.9974
  16870523.143   -42929966.91349 -33415691.49449  16870523.0304   16870527.7324
  17576091.936   -42208791.61149 -32851173.92949  17576091.7754   17576096.5524
  18599110.306   -10097507.00549  -7844203.02049  18599109.1954   18599116.0814
  19194825.310   -23099446.67049 -17977301.27849  19194825.1394   19194830.0534
 97  1 14  3  9 29.9870000  0  6 24  2  4  9  7  5
  17775898.040   -33479239.02749 -26067398.76649  17775897.6024   17775903.9074
  19627663.953    -8803518.91149  -6851440.49749  19627662.0124   19627669.1504
  16857841.992   -42996606.99049 -33467618.81749  16857842.1094   16857846.5394
  17561360.295   -42286207.27949 -32911497.83949  17561360.3034   17561364.9474
  18599195.939   -10097057.35249  -7843852.65249  18599195.4754   18599201.7114
  19166893.982   -23246227.10649 -18091675.63049  19166894.0154   19166898.9844
 97  1 14  3  9 59.9870000  0  6 24  2  4  9  7  5
  17748817.165   -33621549.67749 -26178290.17149  17748816.9604   17748822.6524
  19629589.024    -8793401.55249  -6843556.85149  19629589.1984   19629593.6534
  16845271.697   -43062664.45049 -33519092.15849  16845271.8714   16845276.3004
  17546738.348   -42363046.47749 -32971372.55849  17546738.2264   17546742.7094
  18599291.420   -10096555.90149  -7843461.91649  18599290.9294   18599296.7274
  19138969.594   -23392971.07849 -18206021.57749  19138968.9774   19138974.1254
 97  1 14  3 10 29.9870000  0  6 24  2  4  9  7  5
  17721819.932   -33763421.00649 -26288839.24949  17721819.5104   17721825.5134
  19631567.674    -8783003.95549  -6835454.87349  19631568.4284   19631572.3664
  16832817.210   -43128113.22249 -33570091.19949  16832817.2034   16832822.0174
  17532228.731   -42439295.26149 -33030787.20549  17532228.4214   17532233.0094
  18599400.248   -10095984.12649  -7843016.37849  18599399.7534   18599405.6814
  19111054.306   -23539666.89849 -18320329.99449  19111053.8034   19111059.1654
 97  1 14  3 10 59.9870000  0  6 24  2  4  9  7  5
  17694875.216   -33905015.87449 -26399172.89649  17694874.6734   17694880.8284
  19633566.030    -8772502.88549  -6827272.24749  19633565.5854   19633571.4334
  16820450.859   -43193098.83949 -33620729.33449  16820450.8544   16820455.5804
  17517802.660   -42515104.71549 -33089859.51849  17517802.3484   17517807.3114
  18599497.059   -10095475.53349  -7842620.07349  18599496.1974   18599502.6224
  19083121.262   -23686455.86949 -18434711.01949  19083120.5514   19083125.2114
 97  1 14  3 11 29.9870000  0  6 24  2  4  9  7  5
  17667990.514   -34046295.83549 -26509261.16149  17667990.2454   17667996.1354
  19635590.612    -8761863.57249  -6818981.86749  19635590.3244   19635595.6974
  16808185.737   -43257552.08249 -33670952.63049  16808185.1764   16808190.4624
  17503469.517   -42590426.01549 -33148551.44749  17503469.1504   17503473.7794
  18599597.025   -10094950.19049  -7842210.71549  18599596.3574   18599602.3124
  19055187.894   -23833246.63349 -18549093.42649  19055187.6884   19055192.1074
 97  1 14  3 11 59.9870000  0  6 24  2  4  9  7  5
  17641189.597   -34187136.20549 -26619006.89749  17641189.3394   17641195.1164
  19637662.741    -8750974.96649  -6810497.25549  19637661.3504   19637668.0014
  16796045.308   -43321349.94749 -33720665.24949  16796045.2004   16796049.7224
  17489250.779   -42665145.62549 -33206774.52849  17489250.5644   17489255.1644
  18599725.015   -10094277.95949  -7841686.90549  18599724.8784   18599730.7914
  19027281.144   -23979897.44849 -18663366.78549  19027280.5784   19027285.3994
 97  1 14  3 12 29.9870000  0  6 24  2  4  9  7  5
  17614467.124   -34327563.84949 -26728431.02549  17614467.0684   17614472.4664
  19639775.160    -8739872.83049  -6801846.25149  19639774.2574   19639780.7704
  16784021.082   -43384537.79749 -33769902.53049  16784021.1244   16784025.7504
  17475138.961   -42739303.52849 -33264559.91349  17475138.6434   17475143.4454
  18599874.785   -10093490.84149  -7841073.57049  18599874.4454   18599879.7054
  18999394.852   -24126440.90849 -18777556.48949  18999394.6334   18999399.1034
 97  1 14  3 12 59.9870000  0  6 24  2  4  9  7  5
  17587838.396   -34467499.24949 -26837471.58949  17587838.2134   17587843.7864
  19641947.552    -8728456.29249  -6792950.26349  19641946.8834   19641952.6364
  16772128.515   -43447033.74749 -33818600.67249  16772128.7474   16772132.9974
  17461150.804   -42812812.07849 -33321839.31149  17461150.3574   17461155.1924
  18600061.363   -10092510.76349  -7840309.87449  18600060.7364   18600065.9584
  18971545.984   -24272787.97149 -18891593.16649  18971544.7834   18971550.0564
 97  1 14  3 13 29.9870000  0  6 24  2  4  9  7  5
  17561298.150   -34606969.58649 -26946149.76349  17561297.8564   17561303.4204
  19644176.419    -8716742.93149  -6783822.99049  19644175.9004   19644182.5114
  16760359.404   -43508881.11549 -33866793.42249  16760359.1654   16760364.2474
  17447279.401   -42885707.00049 -33378640.56149  17447279.1404   17447283.8074
  18600271.000   -10091409.44349  -7839451.70449  18600271.2204   18600276.0814
  18943725.294   -24418986.30649 -19005513.94849  18943724.6424   18943730.0954
 97  1 14  3 13 59.9870000  0  6 24  2  4  9  7  5
  17534819.098   -34746117.74649 -27054576.88949  17534818.2984   17534824.4054
  19646437.618    -8704860.71249  -6774564.13249  19646437.5644   19646443.8564
  16748682.848   -43570241.25549 -33914606.51249  16748682.4584   16748687.4454
  17433498.106   -42958128.03949 -33435072.54449  17433497.7414   17433502.4994
  18600468.172   -10090373.69549  -7838644.62649  18600467.9144   18600473.1044
  18915901.860   -24565199.27549 -19119446.12849  18915901.5344   18915906.1934
 97  1 14  3 14 29.9870000  0  6 24  2  4  9  7  5
  17508410.506   -34884895.40649 -27162715.32049  17508409.8804   17508415.9244
  19648743.441    -8692744.11249  -6765122.63549  19648742.6394   19648748.1244
  16737109.061   -43631061.40549 -33961998.83249  16737108.6714   16737114.0034
  17419816.444   -43030025.55749 -33491096.59349  17419815.9624   17419821.0234
  18600661.363   -10089358.75549  -7837853.77149  18600661.3704   18600666.1794
  18888081.916   -24711393.94449 -19233364.04549  18888081.4534   18888085.9814
 97  1 14  3 14 59.9870000  0  6 24  2  4  9  7  5
  17482088.582   -35023217.55449 -27270498.80449  17482087.8624   17482093.8214
  19651109.897    -8680307.91349  -6755432.11649  19651108.8704   19651115.5434
  16725656.541   -43691244.62749 -34008894.84949  16725656.6594   16725661.6394
  17406251.552   -43101309.18349 -33546642.27749  17406251.1334   17406255.9574
  18600866.249   -10088282.28849  -7837014.97249  18600865.4394   18600871.6374
  18860282.025   -24857483.36149 -19347199.95249  18860280.7994   18860286.9884
 97  1 14  3 15 29.9870000  0  6 24  2  4  9  7  5
  17455851.194   -35161095.19749 -27377935.92749  17455850.3864   17455856.5384
  19653532.574    -8667576.65449  -6745511.68549  19653532.3634   19653538.2774
  16714323.176   -43750802.21149 -34055303.35149  16714323.6354   16714328.0764
  17392800.655   -43171994.17449 -33601721.49949  17392800.4654   17392805.0744
  18601080.996   -10087153.91849  -7836135.72949  18601080.7204   18601086.1004
  18832499.952   -25003479.47549 -19460963.15549  18832498.6424   18832504.1154
 97  1 14  3 15 59.9870000  0  6 24  2  4  9  7  5
  17429680.896   -35298620.46049 -27485098.46449  17429680.5734   17429686.6644
  19655992.577    -8654649.12549  -6735438.30649  19655991.7704   19655998.1964
  16703092.916   -43809818.33649 -34101289.93949  16703093.0794   16703097.6124
  17379444.910   -43242179.32949 -33656411.22749  17379444.4714   17379449.2174
  18601293.547   -10086036.81949  -7835265.25549  18601292.7634   18601298.2514
  18804718.061   -25149473.90449 -19574725.05449  18804717.6254   18804722.6494
 97  1 14  3 16 29.9870000  0  6 24  2  4  9  7  5
  17403560.974   -35435881.42649 -27592055.05449  17403560.4964   17403566.6574
  19658472.286    -8641618.81349  -6725284.83249  19658471.9534   19658478.0674
  16691949.423   -43868377.89249 -34146920.75949  16691949.3744   16691954.2544
  17366165.024   -43311965.45049 -33710790.02749  17366164.7744   17366169.0044
  18601492.146   -10084992.56849  -7834451.55849  18601491.4654   18601497.0934
  18776919.672   -25295555.37249 -19688554.75649  18776918.5604   18776924.2474
 97  1 14  3 16 59.9870000  0  6 24  2  4  9  7  5
  17377527.263   -35572689.88749 -27698659.04949  17377527.2684   17377532.9874
  19661004.813    -8628310.38849  -6714914.66849  19661004.3004   19661009.9194
  16680925.547   -43926308.56949 -34192061.54149  16680925.7654   16680930.7634
  17352995.340   -43381172.83649 -33764717.86149  17352994.8924   17352999.6624
  18601708.941   -10083853.05849  -7833563.63149  18601708.3954   18601714.1764
  18749141.939   -25441528.10249 -19802299.73949  18749141.6794   18749147.2194
 97  1 14  3 17 29.9870000  0  6 24  2  4  9  7  5
  17351570.791   -35709092.65049 -27804946.91149  17351570.7884   17351576.3024
  19663580.396    -8614776.08049  -6704368.46049  19663579.8174   19663585.7314
  16670009.318   -43983673.72649 -34236761.65649  16670009.0034   16670014.1694
  17339925.431   -43449855.59349 -33818236.89249  17339925.2604   17339929.9034
  18601933.179   -10082674.48849  -7832645.26549  18601932.9704   18601938.2414
  18721376.397   -25587437.55649 -19915995.42349  18721375.5314   18721380.7494
 97  1 14  3 17 59.9870000  0  6 24  2  4  9  7  5
  17325703.666   -35845025.21449 -27910868.38549  17325703.2854   17325709.1424
  19666211.174    -8600951.83949  -6693596.36249  19666211.0054   19666215.3264
  16659208.136   -44040434.42749 -34280990.77449  16659208.3204   16659213.2444
  17326966.883   -43517953.33649 -33871300.07549  17326966.4314   17326971.1674
  18602175.376   -10081402.03549  -7831653.75449  18602174.7824   18602180.8314
  18693635.337   -25733217.79349 -20029590.41649  18693634.8664   18693639.9344
 97  1 14  3 18 29.9860000  0  6 24  2  4  9  7  5
  17299912.962   -35980556.01749 -28016476.78949  17299912.7704   17299918.7274
  19668882.279    -8586915.54949  -6682659.00149  19668881.9464   19668886.8564
  16648506.386   -44096672.33749 -34324812.52049  16648506.1194   16648511.1974
  17314107.233   -43585531.03649 -33923958.02049  17314106.6234   17314111.9494
  18602417.830   -10080128.50549  -7830661.39049  18602417.4944   18602422.3484
  18665907.791   -25878927.54849 -20143130.49249  18665907.2714   18665912.5364
 97  1 14  3 18 59.9860000  0  6 24  2  4  9  7  5
  17274200.096   -36115678.06449 -28121766.69249  17274199.8104   17274205.7914
  19671593.350    -8572669.99649  -6671558.58349  19671593.2994   19671597.8044
  16637903.568   -44152389.78149 -34368228.71149  16637903.4794   16637908.5484
  17301349.000   -43652575.93949 -33976200.80749  17301348.6564   17301353.8104
  18602659.301   -10078860.01549  -7829672.95349  18602658.3184   18602663.9914
  18638195.702   -26024555.77049 -20256607.03949  18638195.0864   18638200.1764
 97  1 14  3 19 29.9860000  0  6 24  2  4  9  7  5
  17248574.407   -36250341.68649 -28226699.37749  17248574.1214   17248580.0154
  19674350.631    -8558181.03049  -6660268.51349  19674349.9514   19674355.9614
  16627407.069   -44207548.86149 -34411209.81049  16627407.1464   16627412.1774
  17288702.696   -43719032.96649 -34027985.50549  17288702.4804   17288707.4614
  18602910.323   -10077540.79049  -7828644.98649  18602909.8444   18602915.3704
  18610508.469   -26170053.51249 -20369981.91649  18610507.6044   18610512.8564
 97  1 14  3 19 59.9860000  0  6 24  2  4  9  7  5
  17223043.932   -36384505.38549 -28331242.50649  17223043.5554   17223049.2854
  19677161.062    -8543412.21949  -6648760.34949  19677160.6554   19677166.4974
  16617026.573   -44262098.84949 -34453716.28549  16617027.0124   16617031.4934
  17276176.554   -43784858.29949 -34079277.97249  17276176.0724   17276181.1114
  18603179.026   -10076129.21849  -7827545.06349  18603178.6074   18603183.9704
  18582850.734   -26315395.92949 -20483235.75049  18582849.7114   18582854.9154
 97  1 14  3 20 29.9860000  0  6 24  2  4  9  7  5
  17197608.513   -36518169.07649 -28435396.01949  17197608.2044   17197614.3044
  19680021.275    -8528381.63749  -6637048.28549  19680021.5754   19680025.5624
  16606764.271   -44316028.58049 -34495739.44749  16606764.8764   16606769.3024
  17263770.047   -43850054.98649 -34130080.59349  17263769.8514   17263774.5484
  18603465.528   -10074623.35949  -7826371.67249  18603464.7594   18603470.5314
  18555219.222   -26460600.52149 -20596382.19449  18555218.5304   18555223.7254
 97  1 14  3 20 59.9860000  0  6 24  2  4  9  7  5
  17172255.023   -36651402.08749 -28539213.93649  17172254.4564   17172260.9104
  19682919.204    -8513153.72849  -6625182.41349  19682917.6904   19682924.1924
  16596607.627   -44369402.53449 -34537329.52849  16596608.1474   16596612.5354
  17251471.047   -43914686.98049 -34180443.18249  17251470.4764   17251475.6514
  18603757.912   -10073086.57749  -7825174.17349  18603756.7874   18603762.6364
  18527599.824   -26605741.60149 -20709479.13549  18527599.2204   18527603.9084
 97  1 14  3 21 29.9860000  0  6 24  2  4  9  7  5
  17147000.901   -36784113.35849 -28642625.30849  17147000.4794   17147006.3724
  19685875.182    -8497619.92449  -6613078.15649  19685874.6634   19685879.8804
  16586579.487   -44422101.47249 -34578393.62949  16586579.9404   16586584.3004
  17239296.569   -43978664.33749 -34230295.67249  17239296.5334   17239301.1644
  18604077.155   -10071408.60649  -7823866.67349  18604076.6064   18604082.2434
  18500007.301   -26750741.40949 -20822465.98849  18500006.6524   18500011.3164
 97  1 14  3 21 59.9860000  0  6 24  2  4  9  7  5
  17121828.581   -36916394.82149 -28745701.76249  17121828.3154   17121834.1074
  19688875.570    -8481851.42249  -6600791.08849  19688873.6064   19688880.0484
  16576667.361   -44474190.40649 -34618982.40249  16576667.3024   16576671.8154
  17227227.776   -44042086.31449 -34279715.39249  17227227.2194   17227232.0844
  18604407.224   -10069674.29149  -7822515.25749  18604407.0974   18604412.7674
  18472425.225   -26895686.33949 -20935410.09749  18472425.0564   18472429.9594
 97  1 14  3 22 29.9860000  0  6 24  2  4  9  7  5
  17096752.917   -37048168.18649 -28848382.29249  17096752.6844   17096758.8454
  19691937.990    -8465757.40049  -6588250.29849  19691937.7854   19691942.1884
  16566883.459   -44525604.99849 -34659045.71449  16566883.1554   16566888.0304
  17215277.796   -44104883.74749 -34328648.45849  17215277.2224   17215282.2504
  18604761.938   -10067810.40949  -7821062.88649  18604761.3324   18604766.7204
  18444873.001   -27040474.10349 -21048231.73149  18444872.2414   18444877.5504
 97  1 14  3 22 59.9860000  0  7 24  2  4  9  7  5 16
  17071750.967   -37179553.90649 -28950760.76049  17071750.6534   17071756.7384
  19695045.654    -8449426.18549  -6575524.68549  19695044.5044   19695050.6604
  16557206.553   -44576457.23349 -34698670.82449  16557206.5444   16557211.3124
  17203424.012   -44167175.13549 -34377187.19849  17203423.2184   17203428.2584
  18605118.266   -10065937.76149  -7819603.68249  18605117.8454   18605123.9564
  18417331.891   -27185203.69749 -21161008.04049  18417331.2974   18417336.8244
  20636136.144   -12516992.28249  -9737863.60849  20636135.0314   20636141.5194
 97  1 14  3 23 29.9860000  0  7 24  2  4  9  7  5 16
  17046825.877   -37310536.64249 -29052825.21649  17046825.6084   17046831.8234
  19698198.462    -8432857.93149  -6562614.41049  19698197.4224   19698203.1054
  16547637.139   -44626744.86649 -34737855.98049  16547637.2294   16547641.7194
  17191668.068   -44228953.00649 -34425325.80049  17191667.7564   17191672.6114
  18605478.188   -10064047.09949  -7818130.44549  18605477.6264   18605483.1674
  18389804.525   -27329860.81749 -21273727.86549  18389803.8444   18389809.0894
  20621648.476   -12593124.41749  -9797187.35349  20621647.5014   20621655.8664
 97  1 14  3 23 59.9860000  0  7 24  2  4  9  7  5 16
  17021996.571   -37441015.89449 -29154497.34549  17021996.5874   17022002.2714
  19701412.669    -8415966.44949  -6549452.23049  19701412.2164   19701417.6904
  16538188.861   -44676395.88849 -34776545.08449  16538188.7604   16538193.2974
  17180031.087   -44290105.55349 -34472977.13949  17180030.6824   17180035.3014
  18605856.751   -10062057.76649  -7816580.32449  18605856.1744   18605861.7964
  18362312.071   -27474334.41649 -21386304.68849  18362310.9874   18362316.6734
  20607258.031   -12668745.28449  -9856112.68649  20607256.1134   20607264.3334
 97  1 14  3 24 29.9860000  0  7 24  2  4  9  7  5 16
  16997246.045   -37571081.22049 -29255846.93849  16997245.6924   16997251.8284
  19704666.745    -8398865.85649  -6536127.13049  19704665.9544   19704673.2904
  16528840.982   -44725518.95549 -34814822.79949  16528841.0814   16528845.6014
  17168497.704   -44350714.11949 -34520204.60049  17168497.9364   17168502.4894
  18606234.910   -10060070.68949  -7815031.95449  18606234.2724   18606239.0794
  18334835.478   -27618724.99849 -21498816.83249  18334835.2784   18334840.0134
  20592944.988   -12743958.41749  -9914720.28249  20592943.4524   20592950.4624
 97  1 14  3 24 59.9860000  0  7 24  2  4  9  7  5 16
  16972585.100   -37700675.01749 -29356829.10449  16972584.6144   16972590.9014
  19707968.731    -8381513.74349  -6522606.00949  19707968.3174   19707974.4794
  16519608.042   -44774038.77649 -34852630.44349  16519608.3434   16519612.5454
  17157080.678   -44410711.20849 -34566955.58949  17157080.3704   17157085.0184
  18606626.207   -10058014.42349  -7813429.66049  18606625.9214   18606631.1664
  18307383.876   -27762984.70749 -21611226.98849  18307383.0124   18307388.6004
  20578723.645   -12818688.50849  -9972951.50949  20578722.1074   20578729.4934
 97  1 14  3 25 29.9860000  0  7 24  2  4  9  7  5 16
  16948024.682   -37829740.24149 -29457399.40049  16948024.2374   16948030.4744
  19711324.373    -8363880.62849  -6508865.94249  19711324.4944   19711330.7284
  16510497.829   -44821913.20149 -34889935.18649  16510497.9204   16510502.3814
  17145790.424   -44470041.57749 -34613187.04649  17145789.8274   17145794.9294
  18607040.006   -10055840.03949  -7811735.33949  18607039.4854   18607044.8264
  18279965.845   -27907067.43549 -21723499.24549  18279965.0744   18279969.9574
  20564609.683   -12892857.80749 -10030745.74049  20564608.9874   20564617.2194
 97  1 14  3 25 59.9860000  0  7 24  2  4  9  7  5 16
  16923545.508   -37958378.83449 -29557637.26049  16923545.1334   16923550.9564
  19714718.360    -8346045.78349  -6494968.70749  19714718.2354   19714723.9624
  16501489.616   -44869251.78449 -34926822.39149  16501489.6664   16501494.1044
  17134604.429   -44528824.34349 -34658991.80649  17134604.1204   17134608.9414
  18607456.038   -10053653.54149  -7810031.58149  18607455.7764   18607460.6604
  18252563.390   -28051067.99649 -21835707.46849  18252562.7544   18252567.4814
  20550584.973   -12966560.16749 -10088176.14049  20550586.0154   20550592.9204
 97  1 14  3 26 29.9860000  0  7 24  2  4  9  7  5 16
  16899145.253   -38086603.06549 -29657552.23849  16899145.0554   16899150.9824
  19718148.878    -8328018.69949  -6480921.62849  19718147.8304   19718155.0494
  16492580.415   -44916070.02349 -34963304.12649  16492580.2244   16492585.1534
  17123515.745   -44587095.72349 -34704398.08449  17123515.1574   17123520.0134
  18607873.301   -10051460.68449  -7808322.86449  18607872.7284   18607878.2844
  18225172.662   -28195007.39649 -21947868.03049  18225172.1264   18225177.5174
  20536646.342   -13039809.96849 -10145253.91749  20536645.0364   20536653.0264
 97  1 14  3 26 59.9860000  0  7 24  2  4  9  7  5 16
  16874809.221   -38214489.75749 -29757204.19649  16874808.7134   16874815.0784
  19721602.024    -8309872.81649  -6466782.00949  19721602.1294   19721607.6804
  16483754.901   -44962448.35549 -34999443.08149  16483754.7244   16483759.2454
  17112506.783   -44644948.02649 -34749477.80349  17112506.5684   17112511.4544
  18608277.060   -10049339.25049  -7806669.78749  18608276.4884   18608281.8884
  18197779.371   -28338959.73349 -22060038.66049  18197779.0104   18197784.0554
  20522781.503   -13112670.28249 -10202028.15949  20522780.8344   20522788.3344
 97  1 14  3 27 29.9860000  0  7 24  2  4  9  7  5 16
  16850577.517   -38341828.11949 -29856428.88949  16850577.1784   16850583.5354
  19725117.111    -8291401.59149  -6452388.87949  19725115.6974   19725122.5454
  16475049.915   -45008193.52349 -35035088.67149  16475050.3704   16475054.3644
  17101614.936   -44702185.58449 -34794078.51249  17101614.8684   17101619.8534
  18608702.918   -10047101.39749  -7804926.02449  18608702.3134   18608708.0624
  18170421.030   -28482728.90049 -22172066.56649  18170420.1304   18170425.4024
  20509027.226   -13184950.16249 -10258350.11049  20509028.2154   20509033.4934
 97  1 14  3 27 59.9860000  0  7 24  2  4  9  7  5 16
  16826429.939   -38468724.48749 -29955309.16649  16826429.5554   16826435.8174
  19728670.889    -8272725.53749  -6437836.11249  19728669.6764   19728675.9444
  16466444.329   -45053416.85249 -35070327.62349  16466444.4984   16466448.7934
  17090817.578   -44758926.03249 -34838291.85849  17090817.6034   17090822.3974
  18609129.950   -10044857.81349  -7803177.77749  18609129.8474   18609135.1514
  18143076.300   -28626426.17849 -22284038.45449  18143075.2504   18143080.6514
  20495359.580   -13256775.74849 -10314318.09349  20495359.6284   20495366.1774
 97  1 14  3 28 29.9860000  0  7 24  2  4  9  7  5 16
  16802362.046   -38595202.07349 -30053863.12249  16802361.5874   16802367.6144
  19732252.964    -8253901.52349  -6423168.07349  19732252.8864   19732258.6134
  16457936.093   -45098128.17249 -35105167.60549  16457936.0284   16457940.3854
  17080113.937   -44815174.24849 -34882121.64649  17080113.7534   17080118.8584
  18609554.813   -10042625.31149  -7801438.16449  18609554.3244   18609559.5004
  18115739.812   -28770080.94949 -22395977.21949  18115738.8254   18115743.7294
  20481773.367   -13328172.59149 -10369951.98249  20481772.7944   20481778.4974
 97  1 14  3 28 59.9860000  0  7 24  2  4  9  7  5 16
  16778383.461   -38721210.23749 -30152051.29749  16778383.2874   16778389.1314
  19735874.793    -8234868.66149  -6408337.28149  19735872.4304   19735879.1924
  16449536.507   -45142268.24449 -35139562.46149  16449536.1134   16449540.8004
  17069516.338   -44870864.99449 -34925517.04649  17069516.1204   17069521.2924
  18609985.412   -10040362.50049  -7799674.94449  18609985.3954   18609990.5294
  18088425.027   -28913621.01049 -22507826.60049  18088423.9254   18088429.2414
  20468278.373   -13399089.66549 -10425212.03149  20468278.6564   20468282.1364
 97  1 14  3 29 29.9860000  0  7 24  2  4  9  7  5 16
  16754483.431   -38846806.04849 -30249918.15749  16754483.0234   16754489.1694
  19739524.347    -8215689.17649  -6393392.28749  19739523.7224   19739529.9394
  16441231.119   -45185912.77549 -35173571.18649  16441230.8734   16441235.6484
  17059014.104   -44926054.93249 -34968522.20849  17059014.3304   17059019.0154
  18610408.871   -10038137.71849  -7797941.35449  18610408.5824   18610414.0554
  18061121.531   -29057101.44849 -22619629.52749  18061120.7764   18061125.8344
  20454860.205   -13469603.10649 -10480157.58149  20454858.8664   20454864.1544
 97  1 14  3 29 59.9860000  0  7 24  2  4  9  7  5 16
  16730661.035   -38971993.28449 -30347466.64849  16730660.7954   16730666.4734
  19743202.933    -8196359.74049  -6378330.39749  19743203.3754   19743208.1704
  16433019.248   -45229065.88249 -35207196.97849  16433018.8684   16433023.9924
  17048608.595   -44980736.61249 -35011131.32849  17048608.1444   17048613.3224
  18610827.413   -10035938.01849  -7796227.29849  18610827.1824   18610832.1054
  18033832.433   -29200506.79949 -22731373.94649  18033831.9284   18033836.7064
  20441518.723   -13539709.64649 -10534785.99749  20441516.4834   20441524.0334
 97  1 14  3 30 29.9850000  0  7 24  2  4  9  7  5 16
  16706919.840   -39096754.24649 -30444682.97849  16706919.6004   16706925.4644
  19746919.787    -8176827.01249  -6363110.15249  19746919.4824   19746924.7594
  16424908.207   -45271689.28249 -35240410.01449  16424908.3734   16424912.9814
  17038306.508   -45034874.53949 -35053316.73849  17038306.1964   17038311.1024
  18611247.296   -10033731.55349  -7794507.98049  18611247.0124   18611252.3174
  18006565.981   -29343792.24249 -22843024.93249  18006565.0544   18006569.9874
  20428261.430   -13609377.06649 -10589072.24249  20428261.7294   20428267.8824
 97  1 14  3 30 59.9850000  0  7 24  2  4  9  7  5 16
  16683281.050   -39220976.97649 -30541479.89649  16683280.5154   16683286.8324
  19750700.957    -8156956.08849  -6347626.40649  19750699.8354   19750705.9824
  16416918.289   -45313676.72149 -35273127.48549  16416918.5444   16416922.9234
  17028127.754   -45088364.60449 -35094997.32549  17028127.7324   17028132.2484
  18611690.009   -10031405.17749  -7792695.21149  18611688.6664   18611694.7074
  17979342.372   -29486853.17049 -22954500.96849  17979341.6214   17979346.9114
  20415110.972   -13678484.91149 -10642922.56149  20415110.6734   20415116.5024
 97  1 14  3 31 29.9850000  0  7 24  2  4  9  7  5 16
  16659760.567   -39344577.60249 -30637792.07149  16659760.2984   16659766.3314
  19754558.158    -8136685.80549  -6331831.38549  19754557.4144   19754563.2944
  16409065.181   -45354945.22649 -35305284.76049  16409065.1214   16409069.8564
  17018087.772   -45141125.39249 -35136109.64449  17018087.7434   17018092.2794
  18612174.605   -10028858.36749  -7790710.70149  18612173.5804   18612178.7884
  17952174.412   -29629622.02949 -23065749.42049  17952173.9794   17952179.0414
  20402083.708   -13746943.50949 -10696266.89849  20402082.5624   20402090.0144
 97  1 14  3 31 59.9850000  0  7 24  2  4  9  7  5 16
  16636329.654   -39467707.54849 -30733737.48149  16636329.4194   16636335.6924
  19758464.350    -8116157.50749  -6315835.30949  19758462.6914   19758469.4544
  16401323.513   -45395627.66649 -35336985.35749  16401323.3404   16401327.9324
  17008157.707   -45193307.94749 -35176771.38949  17008157.3884   17008162.1324
  18612675.560   -10026225.94849  -7788659.45949  18612675.3734   18612680.3834
  17925033.818   -29772247.08549 -23176885.82249  17925033.1684   17925037.9434
  20389153.484   -13814892.40949 -10749214.07249  20389153.6834   20389160.7644
 97  1 14  3 32 29.9850000  0  7 24  2  4  9  7  5 16
  16612965.168   -39590489.17849 -30829411.47049  16612965.2144   16612970.8744
  19762392.572    -8095513.68149  -6299749.24949  19762391.7114   19762398.3894
  16393667.514   -45435860.00849 -35368335.23749  16393667.5104   16393672.0204
  16998311.440   -45245050.63649 -35217090.38449  16998310.8844   16998315.6914
  18613165.248   -10023652.66949  -7786654.30849  18613164.4544   18613169.7594
  17897894.765   -29914863.74749 -23288015.68849  17897894.1264   17897899.2604
  20376293.051   -13882475.61749 -10801876.28649  20376292.1074   20376298.9474
 97  1 14  3 32 59.9850000  0  7 24  2  4  9  7  5 16
  16589683.783   -39712833.95049 -30924745.04949  16589683.5114   16589689.6824
  19766351.794    -8074707.01049  -6283536.31649  19766351.6694   19766357.8844
  16386106.404   -45475593.71449 -35399296.56249  16386106.5644   16386111.4204
  16988560.665   -45296291.25949 -35257018.15349  16988560.3744   16988565.1894
  18613653.937   -10021084.12449  -7784652.85049  18613653.3864   18613658.8034
  17870767.698   -30057417.50149 -23399096.53949  17870767.0454   17870771.8564
  20363513.203   -13949633.65549 -10854207.20649  20363512.9134   20363519.2694
 97  1 14  3 33 29.9850000  0  7 24  2  4  9  7  5 16
  16566492.594   -39834704.44249 -31019709.05849  16566492.2864   16566497.8774
  19770348.294    -8053707.31149  -6267172.88149  19770347.6334   19770353.6114
  16378648.013   -45514788.16049 -35429837.68549  16378648.6274   16378652.7944
  16978911.995   -45346995.53449 -35296527.99049  16978911.7944   16978916.6034
  18614146.920   -10018493.62449  -7782634.28349  18614145.9754   18614151.8174
  17843663.211   -30199852.66349 -23510084.97449  17843662.3904   17843667.6074
  20350818.589   -14016345.67249 -10906190.63549  20350819.1314   20350826.3154
 97  1 14  3 33 59.9850000  0  7 24  2  4  9  7  5 16
  16543401.421   -39956049.41849 -31114263.57849  16543401.2224   16543406.8814
  19774389.789    -8032469.44849  -6250623.94649  19774389.3454   19774395.8764
  16371299.048   -45553407.71549 -35459930.84049  16371299.0364   16371303.2504
  16969371.574   -45397130.97549 -35335594.57849  16969371.1394   16969376.1474
  18614645.722   -10015872.14449  -7780591.57149  18614644.7104   18614651.2494
  17816590.211   -30342122.48149 -23620944.57649  17816589.7524   17816594.1504
  20338215.524   -14082574.95249 -10957797.84149  20338212.5884   20338222.1744
 97  1 14  3 34 29.9850000  0  7 24  2  4  9  7  5 16
  16520414.581   -40076845.76349 -31208390.59849  16520414.3354   16520419.9524
  19778479.896    -8010976.70449  -6233876.38649  19778479.2344   19778484.6614
  16364063.726   -45591429.72049 -35489558.37249  16364063.5454   16364068.2524
  16959943.984   -45446673.05749 -35374198.80349  16959943.2364   16959948.6984
  18615152.004   -10013212.18249  -7778518.87649  18615151.2394   18615156.5974
  17789552.334   -30484207.24649 -23731659.97349  17789551.8604   17789556.4124
  20325708.906   -14148292.75949 -11009006.41649  20325707.7954   20325716.0064
 97  1 14  3 34 59.9850000  0  7 24  2  4  9  7  5 16
  16497518.792   -40197164.04749 -31302145.09549  16497518.5564   16497524.4284
  19782610.227    -7989271.88449  -6216963.52749  19782610.0144   19782616.3624
  16356933.289   -45628899.83149 -35518755.86049  16356933.2814   16356938.0054
  16950619.997   -45495670.35449 -35412378.52449  16950619.4804   16950624.8584
  18615655.958   -10010563.58249  -7776455.04349  18615655.3404   18615660.5724
  17762540.500   -30626155.86349 -23842269.28449  17762539.6304   17762544.7124
  20313296.557   -14213522.20549 -11059834.63149  20313297.0474   20313302.2214
 97  1 14  3 35 29.9850000  0  7 24  2  4  9  7  5 16
  16474690.867   -40317125.23149 -31395621.34149  16474690.6494   16474696.7724
  19786760.074    -7967465.19649  -6199971.34649  19786759.2924   19786765.9504
  16349887.966   -45665923.50249 -35547605.47249  16349888.0084   16349892.8924
  16941377.859   -45544238.23149 -35450223.63649  16941377.2994   16941382.4714
  18616139.179   -10008024.15049  -7774476.26849  18616138.1864   18616144.5764
  17735533.274   -30768079.84849 -23952859.39949  17735532.2864   17735537.6994
  20300958.990   -14278357.87549 -11110355.94849  20300957.9494   20300965.6154
 97  1 14  3 35 59.9850000  0  7 24  2  4  9  7  5 16
  16451955.210   -40436602.35949 -31488720.39149  16451955.0194   16451960.9934
  19790954.357    -7945424.47349  -6182796.76249  19790953.8384   19790959.8054
  16342948.767   -45702389.41249 -35576020.46249  16342948.8024   16342953.2234
  16932242.670   -45592243.99249 -35487630.73449  16932242.7724   16932247.5644
  18616628.393   -10005453.13549  -7772472.88549  18616628.4364   18616632.8864
  17708551.222   -30909871.25849 -24063346.20249  17708550.7554   17708555.4714
  20288722.685   -14342660.08849 -11160461.48649  20288722.4604   20288729.5964
 97  1 14  3 36 29.9850000  0  7 24  2  4  9  7  5 16
  16429321.310   -40555544.36349 -31581402.45949  16429321.1084   16429327.0454
  19795204.615    -7923088.87849  -6165392.41249  19795203.6664   19795209.9534
  16336124.213   -45738252.84049 -35603965.98049  16336124.4164   16336128.8474
  16923227.851   -45639617.90149 -35524545.48049  16923227.6534   16923232.4784
  18617138.685   -10002771.70149  -7770383.46249  18617137.2144   18617144.4414
  17681606.445   -31051467.07349 -24173680.60249  17681605.7694   17681610.2994
  20276599.746   -14406367.25449 -11210103.46049  20276598.3434   20276605.8174
 97  1 14  3 36 59.9850000  0  7 24  2  4  9  7  5 16
  16406797.983   -40673905.29649 -31673631.74549  16406797.3114   16406803.5624
  19799517.092    -7900426.64849  -6147733.55049  19799516.0004   19799521.0774
  16329419.114   -45773488.53049 -35631422.35849  16329419.2884   16329423.7204
  16914340.322   -45686322.69749 -35560938.83949  16914340.0364   16914344.7844
  18617678.976    -9999931.83349  -7768170.59349  18617678.5194   18617684.2364
  17654709.669   -31192810.64549 -24283818.44349  17654709.1394   17654713.4544
  20264597.043   -14469439.97049 -11259250.99849  20264595.7624   20264604.2194
 97  1 14  3 37 29.9850000  0  7 24  2  4  9  7  5 16
  16384365.936   -40791786.25149 -31765487.02249  16384365.3104   16384371.8104
  19803867.648    -7877563.32249  -6129917.98549  19803867.7584   19803874.0444
  16322807.809   -45808231.21949 -35658494.57549  16322807.5154   16322812.3044
  16905555.307   -45732488.35649 -35596912.09449  16905554.8584   16905560.0704
  18618228.119    -9997046.03049  -7765921.92549  18618227.4694   18618233.0654
  17627838.472   -31334019.62049 -24393851.40549  17627837.7824   17627842.6344
  20252689.949   -14532012.31949 -11308008.67149  20252689.6554   20252696.8894
 97  1 14  3 37 59.9850000  0  7 24  2  4  9  7  5 16
  16362005.512   -40909290.44049 -31857048.71849  16362004.8704   16362011.2394
  19808238.933    -7854593.25949  -6112019.24949  19808239.1514   19808245.1454
  16316271.725   -45842578.19549 -35685258.44649  16316271.6204   16316276.3634
  16896854.910   -45778209.39849 -35632538.88449  16896854.5214   16896859.6714
  18618766.530    -9994217.01249  -7763717.49349  18618766.4064   18618772.0174
  17600977.002   -31475177.46249 -24503844.52149  17600976.0484   17600980.9404
  20240858.939   -14594185.96049 -11356455.66449  20240858.1954   20240864.7144
 97  1 14  3 38 29.9850000  0  7 24  2  4  9  7  5 16
  16339732.616   -41026334.70549 -31948252.03449  16339732.0894   16339738.3774
  19812643.078    -7831449.47749  -6093985.18049  19812641.9934   19812649.9094
  16309827.544   -45876442.30749 -35711646.06449  16309827.2224   16309832.2864
  16888252.442   -45823415.70749 -35667764.58449  16888252.1864   16888257.0124
  18619308.071    -9991371.82549  -7761500.48249  18619308.1614   18619313.3564
  17574144.188   -31616184.70349 -24613720.28649  17574143.8434   17574148.4154
  20229119.267   -14655878.41649 -11404527.71149  20229118.5634   20229124.5924
 97  1 14  3 38 59.9850000  0  7 24  2  4  9  7  5 16
  16317557.335   -41142865.74449 -32039055.43549  16317556.9504   16317563.4014
  19817088.671    -7808087.55549  -6075781.08949  19817087.3464   19817094.2974
  16303487.230   -45909760.50449 -35737608.29649  16303487.0314   16303492.0004
  16879755.334   -45868068.09849 -35702558.66749  16879754.8994   16879759.6334
  18619861.156    -9988465.34049  -7759235.70249  18619860.7694   18619865.3004
  17547347.356   -31757002.94149 -24723448.77349  17547346.6254   17547351.1354
  20217479.158   -14717047.11749 -11452191.61749  20217477.9814   20217485.4764
 97  1 14  3 39 29.9850000  0  7 24  2  4  9  7  5 16
  16295483.766   -41258862.99549 -32129442.89249  16295483.2624   16295490.0774
  19821582.577    -7784470.40649  -6057378.18849  19821582.3144   19821588.9254
  16297256.367   -45942503.54249 -35763122.35149  16297256.3244   16297261.3704
  16871368.514   -45912140.94849 -35736901.15949  16871367.9054   16871373.0574
  18620426.873    -9985492.77049  -7756919.41849  18620426.3574   18620432.1794
  17520585.777   -31897636.21249 -24833033.13349  17520585.1714   17520589.4844
  20205939.338   -14777689.05449 -11499445.08649  20205938.7304   20205945.6414
 97  1 14  3 39 59.9850000  0  7 24  2  4  9  7  5 16
  16273532.014   -41374219.95949 -32219331.42349  16273531.7084   16273538.2304
  19826146.262    -7760489.64549  -6038691.83749  19826146.1754   19826152.2584
  16291157.905   -45974551.23449 -35788094.57149  16291157.8864   16291162.7214
  16863111.915   -45955529.41349 -35770710.34949  16863111.2914   16863116.7114
  18621021.470    -9982367.62349  -7754484.25149  18621020.0964   18621026.9174
  17493877.996   -32037986.31849 -24942396.83749  17493877.6514   17493882.2054
  20194517.112   -14837711.65349 -11546215.93049  20194515.8284   20194524.2954
 97  1 14  3 40 29.9850000  0  7 24  2  4  9  7  5 16
  16251691.537   -41488992.28449 -32308764.39049  16251691.3184   16251697.6834
  19830765.749    -7736214.02749  -6019775.80449  19830764.4474   19830772.4284
  16285179.992   -46005965.40349 -35812573.14449  16285180.0844   16285184.8974
  16854973.298   -45998297.62049 -35804036.22749  16854973.0354   16854977.9784
  18621629.932    -9979169.64549  -7751992.33149  18621629.1244   18621635.0384
  17467211.248   -32178121.01649 -25051592.69949  17467210.4824   17467215.1944
  20183198.155   -14897194.60749 -11592566.30549  20183198.7524   20183203.5684
 97  1 14  3 40 59.9850000  0  7 24  2  4  9  7  5 16
  16229949.189   -41603248.90549 -32397795.51549  16229949.0204   16229954.9334
  19835429.687    -7711701.27449  -6000674.96549  19835429.1884   19835437.8514
  16279309.371   -46036815.70049 -35836612.33949  16279309.7584   16279314.2564
  16846940.974   -46040507.91849 -35836927.38049  16846940.5164   16846945.5434
  18622238.178    -9975973.34649  -7749501.70749  18622236.8644   18622244.2424
  17440571.243   -32318115.19049 -25160679.06549  17440570.7444   17440575.0334
  20171968.240   -14956207.86849 -11638550.67049  20171968.7374   20171975.8994
 97  1 14  3 41 29.9850000  0  7 24  2  4  9  7  5 16
  16208306.267   -41716983.10149 -32486419.55149  16208306.0434   16208312.2924
  19840138.281    -7686958.12749  -5981394.71349  19840139.1974   19840145.6304
  16273546.346   -46067101.23749 -35860211.45149  16273546.6684   16273550.9144
  16839014.391   -46082162.37149 -35869385.39649  16839014.3034   16839019.1434
  18622847.009    -9972773.91949  -7747008.67449  18622845.1434   18622851.8334
  17413961.324   -32457951.33849 -25269642.29149  17413960.7764   17413965.2974
  20160831.307   -15014734.53749 -11684155.86149  20160830.6974   20160836.3374
 97  1 14  3 41 59.9850000  0  7 24  2  4  9  7  5 16
  16186732.676   -41830353.19749 -32574759.87249  16186732.6484   16186738.9414
  19844857.534    -7662158.64949  -5962070.36249  19844857.3914   19844863.3494
  16267860.470   -46096980.96149 -35883494.34549  16267860.4154   16267865.0094
  16831163.107   -46123421.91649 -35901535.69749  16831162.7094   16831167.6924
  18623430.104    -9969709.26349  -7744620.63149  18623429.6784   18623435.0614
  17387356.975   -32597758.14549 -25378582.65549  17387356.5344   17387361.1074
  20149761.366   -15072906.67249 -11729484.79249  20149761.1014   20149766.9234
 97  1 14  3 42 29.9840000  0  7 24  2  4  9  7  5 16
  16165260.206   -41943191.92849 -32662686.15049  16165260.3134   16165266.3894
  19849618.133    -7637140.85349  -5942576.03049  19849617.7364   19849625.4514
  16262282.902   -46126291.35949 -35906333.61949  16262282.5964   16262287.4274
  16823421.579   -46164103.93349 -35933235.98849  16823421.4384   16823426.4414
  18624024.834    -9966583.84349  -7742185.23949  18624024.4064   18624030.1084
  17360794.317   -32737345.47849 -25487352.00649  17360793.4234   17360797.9384
  20138796.357   -15130529.59749 -11774385.77349  20138795.5024   20138801.8924
 97  1 14  3 42 59.9840000  0  7 24  2  4  9  7  5 16
  16143895.837   -42055462.99749 -32750170.08149  16143895.8434   16143901.8874
  19854429.786    -7611855.27659  -5922873.00349  19854426.0174   19854437.8674
  16256819.481   -46155001.63749 -35928705.26349  16256819.2684   16256824.1334
  16815796.851   -46204171.88049 -35964457.77449  16815796.5464   16815801.9904
  18624644.871    -9963325.66749  -7739646.41149  18624643.9874   18624650.3974
  17334280.252   -32876677.54249 -25595922.44649  17334279.7184   17334284.4574
  20127949.234   -15187531.40649 -11818802.78849  20127948.2314   20127953.4554
 97  1 14  3 43 29.9840000  0  7 24  2  4  9  7  5 16
  16122623.703   -42167249.28249 -32837276.26649  16122623.5904   16122629.2744
  19859276.629    -7586379.62849  -5903021.93149  19859277.0494   19859282.7354
  16251455.370   -46183190.22749 -35950670.39849  16251455.4424   16251459.9744
  16808272.196   -46243714.33349 -35995270.08649  16808271.6664   16808277.2194
  18625276.923    -9960004.57949  -7737058.54349  18625276.2204   18625282.0544
  17307801.634   -33015823.62049 -25704347.96849  17307801.0894   17307805.5844
  20117204.676   -15243993.73949 -11862799.39249  20117204.1194   20117211.5194
 97  1 14  3 43 59.9840000  0  7 24  2  4  9  7  5 16
  16101412.333   -42278716.28949 -32924133.66049  16101412.3144   16101417.7974
  19864133.139    -7560862.45149  -5883138.44649  19864134.6464   19864141.2354
  16246158.965   -46211023.04649 -35972358.30849  16246159.1884   16246163.5974
  16800819.473   -46282878.82349 -36025787.88649  16800819.2154   16800824.1534
  18625890.349    -9956781.60449  -7734547.13949  18625889.7154   18625896.3294
  17281329.607   -33154935.08949 -25812746.51749  17281328.9354   17281333.6674
  20106531.646   -15300080.81749 -11906503.60849  20106531.7484   20106536.7814
 97  1 14  3 44 29.9840000  0  6 24  4  9  7  5 16
  16080293.700   -42389695.77449 -33010611.17049  16080293.6144   16080299.4544
  16240960.539   -46238341.07849 -35993645.07949  16240960.6674   16240965.1954
  16793468.799   -46321506.95049 -36055887.73349  16793468.6344   16793473.5034
  18626514.507    -9953500.75949  -7731990.64649  18626513.8834   18626519.7424
  17254893.383   -33293858.31849 -25920998.38249  17254892.8764   17254897.5634
  20095957.602   -15355648.17349 -11949802.83249  20095956.8694   20095964.4734
 97  1 14  3 44 59.9840000  0  7 24 30  4  9  7  5 16
  16059282.491   -42500110.44349 -33096648.56349  16059282.0304   16059288.3174
  20011771.292    -7491450.15449  -5800804.97049  20011770.8894   20011777.4444
  16235872.531   -46265078.50449 -36014479.43549  16235872.6794   16235877.1454
  16786232.038   -46359536.52849 -36085521.18249  16786231.6744   16786236.9224
  18627158.975    -9950114.34549  -7729351.89149  18627159.0964   18627163.5224
  17228503.859   -33432536.37449 -26029059.20649  17228503.3454   17228508.0534
  20085492.102   -15410644.20749 -11992656.86149  20085491.4144   20085499.1794
 97  1 14  3 45 29.9840000  0  7 24 30  4  9  7  5 16
  16038364.393   -42610035.48149 -33182304.42249  16038363.8324   16038369.9264
  19980555.182    -7655492.69649  -5928630.25949  19980554.1004   19980560.0484
  16230880.004   -46291314.58949 -36034923.13549  16230880.0264   16230884.5614
  16779094.481   -46397044.42449 -36114748.12349  16779094.2754   16779099.3944
  18627805.195    -9946718.73849  -7726705.96649  18627805.1494   18627810.5544
  17202146.364   -33571045.72749 -26136988.56949  17202145.4134   17202150.3484
  20075114.068   -15465179.82549 -12035152.17249  20075112.2394   20075121.1924
 97  1 14  3 45 59.9840000  0  7 24 30  4  9  7  5 16
  16017559.039   -42719367.85449 -33267498.46849  16017558.5654   16017564.9274
  19949348.988    -7819482.67749  -6056414.54349  19949348.3144   19949353.7804
  16225997.738   -46316970.85449 -36054915.03149  16225997.7854   16226002.4844
  16772073.042   -46433942.86949 -36143500.17449  16772072.7464   16772077.7064
  18628468.127    -9943234.98449  -7723991.36949  18628466.9114   18628473.3004
  17175836.583   -33709304.21849 -26244722.46449  17175835.8964   17175840.7934
  20064840.236   -15519168.31249 -12077221.14649  20064838.6214   20064847.4614
 97  1 14  3 46 29.9840000  0  7 24 30  4  9  7  5 16
  15996853.386   -42828176.85849 -33352284.69849  15996852.9794   15996859.2204
  19918139.364    -7983488.45749  -6184211.20749  19918140.5484   19918144.5914
  16221210.338   -46342128.75249 -36074518.58649  16221210.4004   16221214.8504
  16765150.921   -46470318.73749 -36171845.02049  16765150.7784   16765155.9624
  18629133.739    -9939737.08749  -7721265.72649  18629132.6604   18629139.2734
  17149558.716   -33847395.17749 -26352325.80949  17149557.8884   17149563.1724
  20054657.345   -15572679.67849 -12118918.28949  20054656.7704   20054663.5924
 97  1 14  3 46 59.9840000  0  7 24 30  4  9  7  5 16
  15976254.239   -42936425.87149 -33436634.57349  15976253.9704   15976259.8694
  19886937.849    -8147454.24549  -6311976.72649  19886936.9804   19886942.8274
  16216524.488   -46366752.95049 -36093706.26649  16216524.2844   16216528.8084
  16758335.565   -46506133.41649 -36199752.57849  16758334.8764   16758339.9904
  18629810.075    -9936183.36849  -7718496.60049  18629808.9324   18629814.8734
  17123321.924   -33985270.08049 -26459760.80249  17123320.9524   17123326.1044
  20044575.505   -15625660.07349 -12160201.69549  20044574.8104   20044582.4064
 97  1 14  3 47 29.9840000  0  6 24 30  4  9  7  5
  15955755.642   -43044146.99749 -33520573.10149  15955755.0614   15955761.3444
  19855733.990    -8311431.28449  -6439750.95649  19855734.8814   19855739.6194
  16211934.343   -46390873.93749 -36112501.84149  16211934.3414   16211938.7924
  16751621.809   -46541413.67149 -36227243.69649  16751621.4444   16751626.5474
  18630493.634    -9932591.28049  -7715697.56749  18630492.9684   18630499.6634
  17097125.874   -34122931.18449 -26567029.19249  17097125.0874   17097130.2664
 97  1 14  3 47 59.9840000  0  6 24 30  4  9  7  5
  15935379.035   -43151226.43349 -33604011.61949  15935378.7074   15935384.8624
  19824551.970    -8475294.24149  -6567436.36349  19824550.6194   19824557.0094
  16207462.487   -46414373.93049 -36130813.53049  16207462.3074   16207467.2504
  16745030.658   -46576050.27349 -36254233.27249  16745030.4474   16745035.6834
  18631206.315    -9928846.14249  -7712779.29849  18631205.9354   18631212.5184
  17070994.177   -34260254.16049 -26674034.11949  17070993.8874   17070998.5204
 97  1 14  3 48 29.9840000  0  6 24 30  4  9  7  5
  15915091.404   -43257838.22449 -33687085.73649  15915090.8224   15915097.0274
  19793364.510    -8639184.94049  -6695143.35549  19793365.7584   19793370.0974
  16203078.729   -46437410.67249 -36148764.24349  16203078.8924   16203083.2374
  16738534.276   -46610189.54649 -36280835.30949  16738534.1544   16738538.8374
  18631919.553    -9925098.80849  -7709859.28749  18631918.6914   18631923.9434
  17044897.293   -34397394.29349 -26780896.56149  17044896.7744   17044901.7924
 97  1 14  3 48 59.9840000  0  6 24 30  4  9  7  5
  15894882.043   -43364039.06449 -33769839.62849  15894881.6924   15894887.8304
  19762157.926    -8803177.20249  -6822929.57049  19762158.8324   19762161.8274
  16198772.154   -46460042.10249 -36166399.11749  16198772.4034   16198776.6974
  16732120.900   -46643892.60049 -36307097.43249  16732120.7844   16732125.7674
  18632620.251    -9921416.52249  -7706989.98449  18632619.6364   18632624.9964
  17018825.500   -34534402.62549 -26887656.29549  17018824.8434   17018830.0794
 97  1 14  3 49 29.9840000  0  6 24 30  4  9  7  5
  15874729.619   -43469940.69449 -33852360.36949  15874729.0444   15874735.4384
  19730908.880    -8967392.12349  -6950889.21849  19730910.3254   19730913.6004
  16194522.510   -46482374.53649 -36183801.01349  16194522.7854   16194526.8254
  16725769.919   -46677267.00749 -36333103.46849  16725769.7714   16725774.8834
  18633285.384    -9917921.27849  -7704266.41749  18633285.1454   18633290.5964
  16992755.727   -34671400.40649 -26994407.81549  16992755.2204   16992760.2644
 97  1 14  3 49 59.9840000  0  6 24 30  4  9  7  5
  15854654.231   -43575437.52849 -33934565.69049  15854653.8024   15854660.0624
  19699640.232    -9131711.03349  -7078929.94749  19699639.5434   19699644.7584
  16190349.077   -46504306.14349 -36200890.57549  16190349.1944   16190353.7144
  16719498.836   -46710221.27049 -36358782.12249  16719497.9024   16719503.4134
  18633930.712    -9914530.16249  -7701623.99749  18633930.0594   18633935.2134
  16966702.388   -34808311.81149 -27101092.02649  16966701.9374   16966707.0284
 97  1 14  3 50 29.9840000  0  6 24 30  4  9  7  5
  15834660.660   -43680504.30849 -34016435.90049  15834660.5234   15834666.5294
  19668353.300    -9296125.22549  -7207044.91649  19668353.2024   19668356.7254
  16186253.996   -46525826.21549 -36217659.45449  16186254.0594   16186258.2804
  16713311.789   -46742734.12749 -36384116.82549  16713311.5054   16713316.4934
  18634559.291    -9911227.71649  -7699050.65849  18634558.8734   18634564.3394
  16940665.719   -34945135.71449 -27207708.04949  16940665.2614   16940670.0614
 97  1 14  3 50 59.9840000  0  6 24 30  4  9  7  5
  15814772.070   -43785019.16049 -34097876.03849  15814771.6014   15814777.8564
  19637065.929    -9460541.14149  -7335161.21349  19637064.5534   19637070.7024
  16182257.159   -46546829.52849 -36234025.67049  16182257.2264   16182261.5494
  16707224.612   -46774722.58749 -36409042.91349  16707224.3394   16707229.4284
  18635189.784    -9907914.59849  -7696469.03849  18635189.4274   18635194.2474
  16914665.350   -35081768.71149 -27314175.31349  16914664.5614   16914669.8074
 97  1 14  3 51 29.9840000  0  6 24 30  4  9  7  5
  15795019.727   -43888818.50249 -34178758.63849  15795019.3864   15795025.4964
  19605811.652    -9624783.02049  -7463141.92249  19605811.6994   19605816.0634
  16178390.087   -46567151.21349 -36249860.74849  16178390.0244   16178394.3694
  16701270.139   -46806014.08349 -36433425.90749  16701270.1614   16701274.8444
  18635855.867    -9904414.68649  -7693741.84549  18635855.5364   18635860.6064
  16888732.439   -35218047.01649 -27420366.20149  16888731.9444   16888736.6654
 97  1 14  3 51 59.9840000  0  6 24 30  4  9  7  5
  15775365.480   -43992102.52149 -34259239.68149  15775365.3824   15775370.9364
  19574550.667    -9789059.93249  -7591149.90349  19574550.2114   19574554.9154
  16174611.120   -46587009.29149 -36265334.57549  16174610.9604   16174615.6074
  16695408.474   -46836818.00049 -36457428.95549  16695408.0504   16695412.8634
  18636522.548    -9900911.23049  -7691011.85749  18636522.0644   18636528.1314
  16862830.121   -35354164.55549 -27526431.80849  16862829.6364   16862834.4734
 97  1 14  3 52 29.9840000  0  6 24 30  4  9  7  5
  15755817.824   -44094826.27849 -34339284.15349  15755817.5944   15755823.7034
  19543291.683    -9953326.35849  -7719149.69849  19543292.8304   19543297.1584
  16170930.028   -46606353.17249 -36280407.72649  16170929.8084   16170934.2654
  16689649.882   -46867079.94249 -36481009.68949  16689649.7564   16689654.5864
  18637204.156    -9897329.12149  -7688220.62249  18637203.6424   18637208.7164
  16836970.255   -35490058.99149 -27632323.57049  16836969.4194   16836974.5754
 97  1 14  3 52 59.9840000  0  6 24 30  4  9  7  5
  15736327.483   -44197248.83349 -34419093.91949  15736327.0374   15736333.3394
  19511990.630   -10117815.05749  -7847322.72949  19511989.2214   19511996.2664
  16167301.067   -46625423.17049 -36295267.45949  16167301.1204   16167305.6154
  16683947.755   -46897045.03549 -36504359.10749  16683947.2544   16683952.4874
  18637854.417    -9893911.25949  -7685557.38449  18637854.7924   18637859.2194
  16811111.318   -35625948.43449 -27738211.42949  16811110.4304   16811115.8534
 97  1 14  3 53 29.9840000  0  6 24 30  4  9  7  5
  15716927.761   -44299194.88849 -34498532.39849  15716927.4684   15716933.4144
  19480683.494   -10282336.04649  -7975520.87249  19480682.9744   19480688.3414
  16163756.599   -46644049.26949 -36309781.30449  16163756.7944   16163760.9724
  16678338.881   -46926519.91049 -36527326.55249  16678338.6164   16678343.4634
  18638506.258    -9890486.28449  -7682888.55349  18638505.8214   18638511.0744
  16785289.840   -35761641.11249 -27843945.97349  16785289.3364   16785294.2804
 97  1 14  3 53 59.9840000  0  6 24 30  4  9  7  5
  15697634.613   -44400581.10149 -34577534.62749  15697634.2644   15697640.1914
  19449385.094   -10446809.26349  -8103681.80049  19449385.8704   19449389.6114
  16160311.186   -46662155.07149 -36323889.71549  16160311.3094   16160315.6444
  16672836.108   -46955437.04049 -36549859.38149  16672835.9264   16672840.7224
  18639171.724    -9886988.92249  -7680163.34549  18639169.9514   18639175.2474
  16759520.600   -35897059.17949 -27949466.53249  16759520.1064   16759525.2244
 97  1 14  3 54 29.9830000  0  7 24 30 10  4  9  7  5
  15678424.221   -44501532.19849 -34656197.80949  15678423.9534   15678429.8114
  19418074.284   -10611349.70549  -8231895.15049  19418074.2874   19418079.5574
  19820647.237    -9488330.66049  -7357023.59949  19820646.3924   19820652.8384
  16156942.736   -46679856.62449 -36337683.12749  16156942.8414   16156947.1574
  16667414.216   -46983928.96549 -36572060.88749  16667413.3404   16667418.9244
  18639823.303    -9883564.08249  -7677494.65149  18639821.8204   18639828.8664
  16733781.398   -36032319.96949 -28054864.54349  16733780.4654   16733785.6084
 97  1 14  3 54 59.9830000  0  7 24 30 10  4  9  7  5
  15659319.686   -44601927.14349 -34734427.62649  15659319.2294   15659325.2124
  19386772.075   -10775844.50449  -8360072.88349  19386771.3084   19386778.7134
  19790337.487    -9647608.95149  -7481136.54649  19790337.3454   19790343.7924
  16153671.928   -46697044.98349 -36351076.65049  16153671.9264   16153676.4164
  16662095.590   -47011877.80449 -36593839.21549  16662094.9624   16662100.8274
  18640481.888    -9880103.17949  -7674797.84449  18640481.1534   18640487.2624
  16708094.923   -36167303.27849 -28160046.33949  16708094.2174   16708099.2664
 97  1 14  3 55 29.9830000  0  7 24 30 10  4  9  7  5
  15640305.626   -44701846.19749 -34812286.61649  15640305.2824   15640311.5674
  19355459.245   -10940393.69249  -8488292.99849  19355460.4144   19355463.4474
  19760009.282    -9806985.05749  -7605325.71949  19760007.1624   19760015.1094
  16150480.564   -46713815.50249 -36364144.57949  16150480.4554   16150485.1044
  16656862.405   -47039378.73649 -36615268.52849  16656862.0844   16656867.3164
  18641132.719    -9876683.62749  -7672133.29549  18641132.2734   18641137.0964
  16682440.434   -36302118.46049 -28265097.12049  16682439.8074   16682444.8154
 97  1 14  3 55 59.9830000  0  7 24 30 10  4  9  7  5
  15621382.986   -44801285.04549 -34889771.42849  15621382.5324   15621388.7244
  19324138.561   -11104986.16649  -8616546.85749  19324138.4274   19324144.6594
  19729663.191    -9966453.87449  -7729587.06149  19729662.6794   19729669.1084
  16147373.590   -46730142.34049 -36376866.79649  16147373.6464   16147378.1284
  16651715.767   -47066424.62849 -36636343.26449  16651715.0384   16651720.6094
  18641781.965    -9873271.55349  -7669474.53049  18641781.6234   18641787.6774
  16656817.819   -36436766.12249 -28370017.36649  16656817.3854   16656822.2954
 97  1 14  3 56 29.9830000  0  7 24 30 10  4  9  7  5
  15602507.228   -44900478.01349 -34967064.63849  15602507.0294   15602512.9984
  19292766.367   -11269848.84549  -8745011.29149  19292765.1174   19292770.4104
  19699255.689   -10126244.62849  -7854099.31849  19699254.4304   19699260.8884
  16144307.042   -46746257.28249 -36389423.89249  16144307.3994   16144311.6004
  16646612.122   -47093244.13649 -36657241.58449  16646611.8804   16646617.2084
  18642388.167    -9870086.38949  -7666992.62749  18642387.6244   18642392.9824
  16631183.554   -36571474.95449 -28474985.28049  16631182.6424   16631187.8734
 97  1 14  3 56 59.9830000  0  7 24 30 10  4  9  7  5
  15583696.422   -44999329.23549 -35044091.56149  15583696.2224   15583702.2444
  19261360.735   -11434887.11149  -8873612.51049  19261358.8894   19261365.7734
  19668800.868   -10286284.05849  -7978805.31649  19668800.4634   19668807.0644
  16141297.867   -46762070.75649 -36401746.07949  16141298.0524   16141302.4724
  16641570.373   -47119739.19249 -36677887.09849  16641569.9414   16641575.5244
  18642969.337    -9867032.34949  -7664612.88249  18642968.4424   18642973.3464
  16605554.159   -36706158.09849 -28579933.18149  16605553.2954   16605558.4034
 97  1 14  3 57 29.9830000  0  7 24 30 10  4  9  7  5
  15564969.525   -45097740.27349 -35120775.47949  15564969.5064   15564975.3344
  19229940.913   -11599998.75449  -9002270.90849  19229942.2584   19229945.2024
  19638310.872   -10446510.45049  -8103657.04549  19638309.9514   19638318.1984
  16138366.011   -46777477.91749 -36413751.65649  16138366.2024   16138370.6524
  16636607.243   -47145820.60849 -36698210.29649  16636606.9374   16636611.9674
  18643542.175    -9864022.12049  -7662267.24049  18643541.1354   18643547.6134
  16579945.342   -36840733.55449 -28684797.16849  16579944.8134   16579949.5114
 97  1 14  3 57 59.9830000  0  7 24 30 10  4  9  7  5
  15546298.984   -45195854.86949 -35197228.39949  15546298.7014   15546304.4874
  19198484.062   -11765305.68449  -9131081.50749  19198483.9264   19198488.1854
  19607755.906   -10607078.75449  -8228775.17849  19607755.8234   19607762.6034
  16135482.512   -46792630.92449 -36425559.18749  16135482.5284   16135487.2634
  16631695.968   -47171629.62849 -36718321.23049  16631695.4974   16631700.8394
  18644075.562    -9861219.21749  -7660083.20449  18644075.0654   18644078.6404
  16554333.199   -36975326.45449 -28789674.75149  16554332.6744   16554337.6574
 97  1 14  3 58 29.9830000  0  7 24 30 10  4  9  7  5
  15527724.005   -45293466.81849 -35273289.65249  15527723.6214   15527729.8564
  19167029.308   -11930601.67149  -9259883.56949  19167029.0424   19167033.2854
  19577175.703   -10767778.92649  -8353996.05549  19577175.3444   19577182.0364
  16132684.030   -46807336.82749 -36437018.33649  16132683.7554   16132688.7604
  16626875.669   -47196960.13749 -36738059.30349  16626875.2844   16626880.7434
  18644604.354    -9858440.44349  -7657917.93349  18644604.5294   18644609.5614
  16528759.009   -37109719.94449 -28894396.95149  16528758.4594   16528763.0344
 97  1 14  3 58 59.9830000  0  7 24 30 10  4  9  7  5
  15509237.956   -45390611.82849 -35348987.05649  15509237.9084   15509243.8264
  19135570.655   -12095918.05249  -9388701.52149  19135569.5414   19135575.3994
  19546564.769   -10928642.02749  -8479343.92149  19546564.4354   19546569.8714
  16129962.095   -46821640.34749 -36448163.94349  16129962.1504   16129966.6704
  16622140.516   -47221843.52649 -36757448.97249  16622140.3324   16622145.5664
  18645121.262    -9855724.54949  -7655801.64349  18645121.0714   18645126.1984
  16503217.721   -37243940.42249 -28998984.33149  16503216.9814   16503221.9224
 97  1 14  3 59 29.9830000  0  7 24 30 10  4  9  7  5
  15490836.533   -45487312.20949 -35424337.98849  15490836.3174   15490842.4564
  19104106.843   -12261260.42849  -9517539.71749  19104105.0634   19104111.6844
  19515924.871   -11089657.12149  -8604810.21549  19515923.8474   19515931.0534
  16127311.857   -46835567.51849 -36459016.27849  16127311.8344   16127316.7694
  16617489.399   -47246285.61749 -36776494.77049  16617489.1124   16617494.4714
  18645626.579    -9853068.22849  -7653731.82049  18645625.6524   18645631.8924
  16477709.207   -37377988.53649 -29103437.40849  16477708.6604   16477713.3934
 97  1 14  3 59 59.9830000  0  7 24 30 10  4  9  7  5
  15472523.534   -45583547.99449 -35499326.90649  15472523.2554   15472529.2434
  19072641.605   -12426611.22149  -9646384.53449  19072641.1254   19072646.7674
  19485267.667   -11250760.79049  -8730345.52649  19485266.9204   19485273.7794
  16124736.635   -46849100.30049 -36469561.30749  16124736.7074   16124741.2384
  16612928.271   -47270254.84449 -36795172.10149  16612928.2494   16612933.1964
  18646128.814    -9850428.81049  -7651675.12249  18646128.3444   18646134.3244
  16452244.971   -37511804.20549 -29207709.36149  16452244.4684   16452249.1694
 97  1 14  4  0 29.9830000  0  7 24 30 10  4  9  7  5
  15454285.726   -45679388.58449 -35574007.87249  15454285.4414   15454291.3114
  19041156.393   -12592066.57949  -9775310.77749  19041157.0114   19041160.5604
  19454583.188   -11412009.91549  -8855994.21049  19454582.6834   19454589.2184
  16122222.448   -46862312.85149 -36479856.79349  16122222.6484   16122227.3524
  16608440.727   -47293837.47649 -36813548.19349  16608440.6264   16608445.6834
  18646615.705    -9847870.64949  -7649681.76949  18646616.3464   18646619.7124
  16426812.106   -37645454.54249 -29311852.48149  16426811.3654   16426816.3314
 97  1 14  4  0 59.9830000  0  7 24 30 10  4  9  7  5
  15436125.548   -45774821.31849 -35648371.03749  15436125.1834   15436131.1544
  19009650.504   -12757631.20749  -9904322.20649  19009652.0624   19009654.9834
  19423871.047   -11573403.14849  -8981755.15949  19423870.3544   19423876.6064
  16119769.574   -46875202.98749 -36489901.05049  16119769.8664   16119774.0454
  16604025.219   -47317041.91549 -36831629.58149  16604025.1634   16604030.0464
  18647090.686    -9845374.23049  -7647736.50949  18647088.6694   18647095.9674
  16401413.267   -37778926.36149 -29415856.50149  16401412.7084   16401417.5504
 97  1 14  4  1 29.9830000  0  7 24 30 10  4  9  7  5
  15418061.321   -45869749.48049 -35722341.02349  15418061.2184   15418066.8484
  18978138.872   -12923225.97849 -10033357.08149  18978139.2284   18978144.7074
  19393149.056   -11734848.14049  -9107556.45349  19393148.5234   19393155.1864
  16117396.236   -46887674.99749 -36499619.49749  16117396.2894   16117401.0474
  16599697.842   -47339782.74949 -36849349.70849  16599697.8084   16599702.5624
  18647571.145    -9842849.36049  -7645769.10849  18647569.8964   18647576.2864
  16376065.767   -37912128.53849 -29519650.40849  16376065.1664   16376070.0364
 97  1 14  4  1 59.9830000  0  7 24 30 10  4  9  7  5
  15400085.373   -45964213.88549 -35795949.64049  15400085.1534   15400090.7684
  18946610.615   -13088908.20349 -10162460.13549  18946611.4044   18946615.9194
  19362406.139   -11896403.43049  -9233443.69749  19362405.6164   19362411.8624
  16115093.889   -46899773.85549 -36509047.17849  16115093.6434   16115098.5094
  16595444.496   -47362134.46749 -36866766.63049  16595444.0534   16595448.9304
  18648040.981    -9840379.82349  -7643844.76849  18648040.7504   18648046.1624
  16350756.964   -38045127.39449 -29623285.88349  16350756.1174   16350760.9524
 97  1 14  4  2 29.9830000  0  7 24 30 10  4  9  7  5
  15382203.798   -46058182.28049 -35869171.75249  15382203.4924   15382209.1844
  18915072.451   -13254642.04549 -10291603.36249  18915071.4094   18915076.9274
  19331644.060   -12058059.35649  -9359409.35549  19331642.8924   19331649.6104
  16112865.400   -46911484.40249 -36518172.27849  16112865.3154   16112870.2124
  16591269.647   -47384073.42049 -36883861.92949  16591269.5034   16591274.1504
  18648504.720    -9837944.12349  -7641946.81549  18648504.8294   18648510.1154
  16325484.470   -38177935.39349 -29726772.63149  16325483.7934   16325488.6734
 97  1 14  4  2 59.9830000  0  7 24 30 10  4  9  7  5
  15364428.704   -46151590.67749 -35941957.51249  15364428.2884   15364434.3524
  18883541.629   -13420337.05349 -10420716.35249  18883541.2464   18883545.6424
  19300876.035   -12219746.57349  -9485399.41749  19300875.2224   19300881.7924
  16110724.419   -46922735.50649 -36526939.37649  16110724.3784   16110729.1654
  16587187.950   -47405522.82949 -36900575.77449  16587187.1694   16587192.3764
  18648975.045    -9835472.46649  -7640020.89949  18648974.4844   18648980.3314
  16300258.265   -38310499.85949 -29830069.61749  16300257.5764   16300262.4614
 97  1 14  4  3 29.9830000  0  7 24 30 10  4  9  7  5
  15346756.953   -46244455.76349 -36014319.90549  15346756.2724   15346762.8134
  18852022.690   -13585969.97049 -10549780.91949  18852024.1554   18852027.3784
  19270104.226   -12381453.40349  -9611404.72149  19270103.7754   19270110.4574
  16108669.117   -46933536.13049 -36535355.44449  16108669.2404   16108673.7004
  16583199.090   -47426484.19749 -36916909.32249  16583198.7304   16583203.6414
  18649447.528    -9832989.36849  -7638085.99749  18649447.4664   18649452.5134
  16275075.809   -38442834.50549 -29933187.52249  16275075.1904   16275079.9254
 97  1 14  4  3 59.9830000  0  7 24 30 10  4  9  7  5
  15329182.190   -46336811.58549 -36086285.47349  15329182.0184   15329187.9794
  18820513.904   -13751550.56849 -10678804.77249  18820512.3704   18820518.7704
  19239324.001   -12543205.08649  -9737445.00449  19239322.6744   19239329.9844
  16106693.747   -46943916.85649 -36543444.32049  16106693.9084   16106698.0294
  16579297.414   -47446987.35249 -36932885.80149  16579296.9924   16579302.4074
  18649917.937    -9830517.49549  -7636159.83949  18649916.8214   18649923.8384
  16249931.322   -38574969.61749 -30036149.94049  16249930.5474   16249935.4454
 97  1 14  4  4 29.9830000  0  7 24 30 10  4  9  7  5
  15311692.273   -46428721.69849 -36157903.73849  15311692.2464   15311697.9024
  18789004.367   -13917134.78149 -10807831.39749  18789005.1424   18789009.2844
  19208525.068   -12705054.47749  -9863561.44349  19208523.8864   19208530.9634
  16104786.984   -46953936.87749 -36551252.12949  16104786.8684   16104791.5644
  16575473.640   -47467081.40449 -36948543.51849  16575473.2594   16575478.5014
  18650380.168    -9828088.27449  -7634266.95049  18650379.6114   18650386.8044
  16224819.079   -38706935.48349 -30138980.48149  16224818.4624   16224823.2954
 97  1 14  4  4 59.9830000  0  7 24 30 10  4  9  7  5
  15294300.465   -46520116.79149 -36229120.68849  15294300.1164   15294305.9464
  18757508.074   -14082648.51449 -10936803.12449  18757507.7184   18757513.3794
  19177723.121   -12866919.17349  -9989689.76349  19177721.7994   19177728.6834
  16102966.630   -46963502.75349 -36558706.06649  16102966.7984   16102971.5074
  16571740.215   -47486700.55549 -36963831.17549  16571739.8834   16571744.9024
  18650846.616    -9825636.46949  -7632356.47549  18650845.4284   18650851.8884
  16199758.531   -38838629.70549 -30241599.35749  16199757.8814   16199762.4044
 97  1 14  4  5 29.9830000  0  7 24 30 10  4  9  7  5
  15277012.859   -46610963.31449 -36299910.17749  15277012.5544   15277018.4314
  18726028.549   -14248074.54349 -11065706.52249  18726029.6294   18726033.0574
  19146923.641   -13028771.72549 -10115808.63549  19146922.2624   19146930.4364
  16101237.360   -46972589.91549 -36565786.97649  16101237.4754   16101242.1954
  16568104.769   -47505805.16449 -36978717.89549  16568104.4504   16568109.0784
  18651323.107    -9823132.72849  -7630405.51149  18651323.0584   18651328.5014
  16174758.269   -38970007.07349 -30343971.33049  16174757.4084   16174762.3194
 97  1 14  4  5 59.9820000  0  7 24 30 10  4  9  7  5
  15259839.593   -46701209.36749 -36370231.76249  15259839.0934   15259845.2194
  18694567.778   -14413401.50449 -11194532.68249  18694567.1904   18694572.0224
  19116130.368   -13190590.60249 -10241901.28249  19116129.5294   19116136.8504
  16099604.362   -46981171.14949 -36572473.65249  16099604.5364   16099609.1284
  16564572.974   -47524364.86249 -36993180.00949  16564572.2654   16564577.6584
  18651818.166    -9820531.91649  -7628378.91349  18651819.5444   18651823.2774
  16149825.545   -39101029.01149 -30446066.33949  16149824.8394   16149829.5074
 97  1 14  4  6 29.9820000  0  7 24 30 10  4  9  7  5
  15242779.444   -46790860.85549 -36440090.06349  15242779.1044   15242784.8964
  18663121.117   -14578654.85749 -11323301.53949  18663120.3414   18663126.6154
  19085340.548   -13352391.68249 -10367980.04849  19085339.1954   19085346.7164
  16098064.954   -46989260.85649 -36578777.32649  16098065.0714   16098069.7574
  16561144.539   -47542381.22649 -37007218.75349  16561144.3184   16561149.3104
  18652329.736    -9817844.75949  -7626285.02649  18652328.0824   18652336.0594
  16124958.855   -39231704.32549 -30547891.25349  16124958.1644   16124962.8554
 97  1 14  4  6 59.9820000  0  7 24 30 10  4  9  7  5
  15225814.220   -46880014.26449 -36509560.24149  15225814.2684   15225819.6724
  18631672.111   -14743920.03849 -11452079.57249  18631671.6324   18631676.9774
  19054535.697   -13514272.34849 -10494120.81649  19054534.9504   19054542.0494
  16096597.323   -46996973.17149 -36584786.92249  16096597.4674   16096602.0514
  16557799.412   -47559959.44349 -37020916.07649  16557798.5754   16557804.2904
  18652836.037    -9815184.44149  -7624212.07049  18652836.0504   18652841.8524
  16100134.781   -39362155.25649 -30649541.32049  16100134.1494   16100138.9714
 97  1 14  4  7 29.9820000  0  7 24 30 10  4  9  7  5
  15208944.316   -46968666.51649 -36578639.91549  15208944.1674   15208949.9784
  18600221.573   -14909193.60749 -11580864.15249  18600221.8444   18600226.5834
  19023715.646   -13676233.42849 -10620324.27049  19023713.5274   19023720.3804
  16095197.690   -47004328.29749 -36590518.18749  16095197.8264   16095202.6674
  16554534.756   -47577115.40049 -37034284.36849  16554534.3444   16554539.5274
  18653337.853    -9812547.78049  -7622157.57449  18653337.9934   18653343.6444
  16075353.004   -39492384.64349 -30751018.76649  16075352.2854   16075357.0564
 97  1 14  4  7 59.9820000  0  7 24 30 10  4  9  7  5
  15192180.095   -47056763.41649 -36647286.84349  15192179.7134   15192185.4394
  18568782.760   -15074405.92749 -11709601.00849  18568782.1004   18568788.2154
  18992890.327   -13838220.99949 -10746548.33549  18992888.2974   18992895.8724
  16093876.866   -47011269.30149 -36595926.76449  16093877.1514   16093881.6064
  16551354.753   -47593826.38749 -37047305.91349  16551354.3264   16551359.6544
  18653846.009    -9809878.03549  -7620077.26449  18653845.7514   18653850.0834
  16050623.793   -39622337.33749 -30852280.60049  16050623.0654   16050627.8284
 97  1 14  4  8 29.9820000  0  7 24 30 10  4  9  7  5
  15175496.076   -47144438.15449 -36715604.81149  15175495.9334   15175501.3514
  18537336.667   -15239656.92949 -11838368.03849  18537335.4604   18537341.5344
  18962040.047   -14000339.26149 -10872874.24149  18962038.8444   18962045.4364
  16092614.633   -47017902.72749 -36601095.66349  16092614.6654   16092619.3754
  16548236.755   -47610211.30849 -37060073.39449  16548236.1544   16548241.4304
  18654338.839    -9807288.55749  -7618059.50149  18654338.2204   18654344.6374
  16025925.110   -39752129.91449 -30953417.67249  16025924.2734   16025929.0254
 97  1 14  4  8 59.9820000  0  7 24 30 10  4  9  7  5
  15158886.321   -47231722.66649 -36783618.70949  15158886.0524   15158891.8814
  18505878.847   -15404968.60649 -11967182.31749  18505878.7474   18505884.1494
  18931162.335   -14162602.82049 -10999313.35249  18931159.8014   18931166.8474
  16091407.185   -47024247.86549 -36606039.92749  16091407.2814   16091412.1564
  16545173.657   -47626308.24749 -37072616.46949  16545173.4754   16545178.2524
  18654812.298    -9804800.75049  -7616120.97249  18654811.7134   18654817.7364
  16001252.830   -39881783.56349 -31054446.49249  16001252.3144   16001256.8314
 97  1 14  4  9 29.9820000  0  7 24 30 10  4  9  7  5
  15142384.359   -47318441.21749 -36851191.59549  15142383.8564   15142389.7884
  18474441.912   -15570171.23549 -12095911.62949  18474442.0304   18474446.9904
  18900293.293   -14324820.48649 -11125716.68649  18900291.1914   18900298.3394
  16090290.603   -47030115.61649 -36610612.20049  16090290.6444   16090295.4034
  16542200.924   -47641930.09749 -37084789.35649  16542200.3134   16542205.8164
  18655300.505    -9802234.42149  -7614121.25449  18655298.8154   18655305.4394
  15976644.576   -40011100.86149 -31155213.21249  15976643.7604   15976648.3724
 97  1 14  4  9 59.9820000  0  7 24 30 10  4  9  7  5
  15125994.420   -47404570.91649 -36918305.64049  15125994.1124   15125999.8014
  18443031.634   -15735233.22349 -12224531.33949  18443031.8454   18443036.3134
  18869441.292   -14486948.02349 -11252049.80149  18869439.3394   18869446.7934
  16089271.881   -47035469.35249 -36614783.94349  16089271.9194   16089276.6744
  16539329.964   -47657016.99549 -37096545.38749  16539329.7704   16539335.2104
  18655810.633    -9799554.45549  -7612032.99049  18655809.0924   18655814.4024
  15952104.607   -40140059.09649 -31255700.14149  15952103.7384   15952108.5804
 97  1 14  4 10 29.9820000  0  7 24 30 10  4  9  7  5
  15109699.709   -47490200.15049 -36985029.71849  15109699.0434   15109705.2074
  18411628.787   -15900255.95449 -12353120.47149  18411628.2854   18411633.5274
  18838594.217   -14649050.80449 -11378363.62049  18838593.6034   18838599.7524
  16088332.668   -47040405.12349 -36618630.00249  16088332.6394   16088337.1614
  16536547.173   -47671640.75149 -37107940.53349  16536547.0374   16536552.0654
  18656324.756    -9796852.07949  -7609927.27849  18656323.9264   18656330.5954
  15927615.731   -40268748.96949 -31355977.96849  15927614.9824   15927620.0324
 97  1 14  4 10 59.9820000  0  7 24 30 10  4  9  7  5
  15093470.743   -47575483.52449 -37051484.28949  15093470.6784   15093476.1644
  18380202.735   -16065401.11949 -12481805.02249  18380201.6114   18380207.1954
  18807722.130   -14811286.20649 -11504780.77549  18807721.5454   18807727.1724
  16087441.197   -47045090.24349 -36622280.74249  16087441.3264   16087445.7194
  16533820.354   -47685970.28949 -37119106.40449  16533820.2744   16533825.3864
  18656809.675    -9794303.28949  -7607941.21149  18656809.2004   18656814.9404
  15903148.441   -40397325.28749 -31456167.29749  15903147.7204   15903152.5414
 97  1 14  4 11 29.9820000  0  7 24 30 10  4  9  7  5
  15077330.785   -47660299.88449 -37117574.94749  15077330.3014   15077336.4864
  18348778.093   -16230539.53349 -12610484.29149  18348778.2654   18348782.9114
  18776844.984   -14973547.10549 -11631217.82149  18776843.9414   18776850.1984
  16086618.484   -47049413.98949 -36625649.88749  16086618.5164   16086622.9514
  16531171.731   -47699889.09349 -37129952.23049  16531171.3984   16531176.8044
  18657286.957    -9791795.12149  -7605986.79749  18657286.5594   18657292.6074
  15878723.915   -40525676.88249 -31556181.51649  15878723.4194   15878728.3734
 97  1 14  4 11 59.9820000  0  7 24 30 10  4  9  7  5
  15061297.063   -47744557.45149 -37183230.19249  15061296.5614   15061302.5464
  18317373.586   -16395571.02249 -12739080.26449  18317372.9674   18317378.5534
  18745978.005   -15135753.96249 -11757612.74149  18745977.1004   18745983.3824
  16085878.926   -47053300.47149 -36628678.31849  16085879.1984   16085883.4074
  16528615.126   -47713323.82549 -37140420.86649  16528614.7384   16528619.7874
  18657773.921    -9789235.48849  -7603992.29849  18657773.6924   18657779.6294
  15854358.478   -40653718.24349 -31655954.00649  15854357.8764   15854362.9804
 97  1 14  4 12 29.9820000  0  7 24 30 10  4  9  7  5
  15045351.271   -47828353.27849 -37248525.63249  15045351.1104   15045356.9944
  18285971.635   -16560589.42049 -12867666.00349  18285972.3754   18285976.5044
  18715100.233   -15298018.23449 -11884052.42049  18715099.5864   18715105.4804
  16085202.014   -47056857.66649 -36631450.15149  16085202.0564   16085206.3064
  16526128.477   -47726391.35949 -37150603.36949  16526128.3494   16526133.6024
  18658250.802    -9786729.71949  -7602039.77149  18658250.2724   18658255.8244
  15830036.627   -40781530.28349 -31755547.79949  15830035.8944   15830040.8694
 97  1 14  4 12 59.9820000  0  7 24 30 10  4  9  7  5
  15029496.040   -47911673.15749 -37313450.20849  15029496.0164   15029501.4134
  18254578.217   -16725563.19049 -12996217.00049  18254578.3484   18254583.0454
  18684212.021   -15460336.60749 -12010534.24349  18684211.3404   18684217.7884
  16084589.884   -47060074.29749 -36633956.61649  16084589.6704   16084594.2244
  16523715.618   -47739071.25649 -37160483.82549  16523715.2304   16523721.0164
  18658720.045    -9784263.14549  -7600117.75049  18658719.0284   18658725.4494
  15805762.867   -40909089.69949 -31854944.74749  15805762.2684   15805767.2984
 97  1 14  4 13 29.9820000  0  7 24 30 10  4  9  7  5
  15013731.202   -47994517.83049 -37378004.49049  15013730.9804   15013736.8484
  18223190.982   -16890505.07149 -13124743.13649  18223191.9074   18223195.1584
  18653311.792   -15622718.14849 -12137065.29249  18653311.1914   18653317.2404
  16084039.468   -47062966.68549 -36636210.42049  16084039.4314   16084043.9404
  16521376.429   -47751364.49749 -37170062.98349  16521376.0394   16521381.1644
  18659184.267    -9781823.39949  -7598216.66149  18659183.6764   18659189.4954
  15781537.982   -41036392.53249 -31954141.76049  15781537.4494   15781542.3374
 97  1 14  4 13 59.9820000  0  7 24 30 10  4  9  7  5
  14998058.078   -48076880.80349 -37442183.41849  14998057.6814   14998063.6024
  18191808.005   -17055423.46449 -13253250.95949  18191807.2944   18191811.4204
  18622405.434   -15785132.59649 -12263621.99949  18622403.9984   18622410.7304
  16083552.259   -47065526.86449 -36638205.36349  16083552.2984   16083557.1014
  16519112.475   -47763262.13449 -37179333.87549  16519112.6964   16519116.6894
  18659644.926    -9779402.45449  -7596330.23549  18659644.4274   18659651.3804
  15757365.610   -41163419.20349 -32053123.57749  15757364.8534   15757369.9374
 97  1 14  4 14 29.9820000  0  7 24 30 10  4  9  7  5
  14982470.384   -48158794.35149 -37506012.15249  14982469.9724   14982475.8384
  18160421.478   -17220360.87249 -13381773.61849  18160421.4524   18160425.4884
  18591488.002   -15947605.10649 -12390223.92849  18591486.7324   18591493.3414
  16083122.443   -47067785.27049 -36639965.16149  16083122.5164   16083127.1204
  16516918.481   -47774791.90249 -37188318.12349  16516918.3654   16516923.2784
  18660095.890    -9777032.84449  -7594483.79149  18660095.5254   18660100.8644
  15733239.684   -41290201.80149 -32151915.21249  15733239.0254   15733244.1494
 97  1 14  4 14 59.9820000  0  7 24 30 10  4  9  7  5
  14966956.462   -48240320.58749 -37569539.08449  14966956.1924   14966961.6574
  18129015.013   -17385402.94849 -13510377.82649  18129014.3554   18129019.8664
  18560546.471   -16110202.53749 -12516923.20049  18560545.1524   18560552.2524
  16082735.094   -47069821.08449 -36641551.50949  16082735.2444   16082739.6074
  16514778.174   -47786039.08849 -37197082.17549  16514777.9074   16514783.0674
  18660523.646    -9774785.65049  -7592732.73849  18660522.5794   18660528.4474
  15709145.718   -41416816.42349 -32250575.96049  15709145.0654   15709150.0524
 97  1 14  4 15 29.9820000  0  7 24 30 10  4  9  7  5
  14951537.865   -48321346.09549 -37632675.83449  14951537.8664   14951543.0514
  18097611.298   -17550430.00849 -13638970.35649  18097611.4844   18097615.3914
  18529604.679   -16272802.77649 -12643624.67149  18529603.0934   18529610.4034
  16082412.933   -47071513.99449 -36642870.65249  16082413.0274   16082417.6654
  16512711.529   -47796899.21649 -37205544.61849  16512711.2584   16512716.0674
  18660950.341    -9772543.04749  -7590985.26149  18660949.6034   18660955.1634
  15685105.216   -41543149.82249 -32349017.56749  15685104.5884   15685109.5904
 97  1 14  4 15 59.9820000  0  7 24 30 10  4  9  7  5
  14936188.729   -48402006.55349 -37695528.13249  14936188.3424   14936194.0994
  18066191.189   -17715543.93349 -13767630.57249  18066192.3654   18066195.6214
  18498640.331   -16435521.66449 -12770418.57049  18498639.2394   18498646.5394
  16082132.561   -47072987.46549 -36644018.81049  16082132.7214   16082137.2324
  16510693.211   -47807505.33049 -37213809.13749  16510692.3964   16510697.6814
  18661349.889    -9770443.14749  -7589349.01149  18661349.6464   18661356.3894
  15661091.515   -41669342.56949 -32447349.57449  15661090.8524   15661095.9804
 97  1 14  4 16 29.9820000  0  7 24 30 10  4  9  7  5
  14920934.474   -48482168.12749 -37757991.68549  14920934.3924   14920939.6914
  18034780.833   -17880606.24949 -13896250.53249  18034780.7114   18034785.7384
  18467674.430   -16598249.06049 -12897219.10649  18467673.2564   18467679.6744
  16081917.453   -47074118.14949 -36644899.86249  16081917.5904   16081922.0034
  16508746.165   -47817736.58949 -37221781.55849  16508746.1134   16508750.5734
  18661745.766    -9768362.82849  -7587727.95849  18661745.3134   18661749.5854
  15637129.171   -41795265.59249 -32545471.40949  15637128.5614   15637133.8774
 97  1 14  4 16 59.9820000  0  7 24 30 10  4  9  7  5
  14905769.922   -48561858.56949 -37820088.12549  14905769.6004   14905775.2674
  18003377.104   -18045633.48549 -14024843.18249  18003376.7924   18003381.2734
  18436702.103   -16761009.49749 -13024045.38749  18436700.7984   18436707.3934
  16081761.936   -47074935.10049 -36645536.44149  16081761.8184   16081766.5144
  16506863.086   -47827632.71149 -37229492.83949  16506862.5474   16506867.3904
  18662131.786    -9766334.23249  -7586147.23149  18662131.8054   18662138.3984
  15613212.274   -41920950.05349 -32643407.34749  15613211.6884   15613216.6604
 97  1 14  4 17 29.9820000  0  7 24 30 10  4  9  7  5
  14890702.061   -48641041.01249 -37881788.71249  14890701.7924   14890707.5914
  17971993.006   -18210557.78649 -14153355.60249  17971993.2584   17971997.3354
  18405733.592   -16923748.89149 -13150855.25649  18405731.6074   18405739.6194
  16081676.843   -47075381.79649 -36645884.51749  16081676.5874   16081681.2864
  16505054.148   -47837138.46549 -37236899.91649  16505053.8094   16505058.8594
  18662517.253    -9764308.52649  -7584568.76649  18662516.9184   18662521.9954
  15589349.218   -42046351.22949 -32741122.54249  15589348.4194   15589353.5424
 97  1 14  4 17 59.9810000  0  7 24 30 10  4  9  7  5
  14875713.396   -48719806.99749 -37943164.80049  14875712.9484   14875718.4814
  17940608.430   -18375484.76249 -14281870.13249  17940608.8554   17940613.1644
  18374752.623   -17086553.92949 -13277716.31749  18374751.2344   18374756.8924
  16081642.048   -47075564.33049 -36646026.75549  16081642.0814   16081646.7894
  16503300.912   -47846351.96149 -37244079.27449  16503301.1024   16503305.9434
  18662884.790    -9762375.98049  -7583062.89849  18662884.1644   18662891.8494
  15565524.429   -42171551.15849 -32838680.93149  15565523.8824   15565528.7574
 97  1 14  4 18 29.9810000  0  7 24 30 10  4  9  7  5
  14860778.208   -48798291.80949 -38004321.78649  14860777.6184   14860783.5094
  17909191.828   -18540580.24749 -14410515.95649  17909192.0444   17909196.3854
  18343731.433   -17249571.37249 -13404742.85749  18343730.5704   18343737.4834
  16081629.575   -47075630.06449 -36646077.96949  16081629.7294   16081634.1954
  16501577.887   -47855407.17449 -37251135.29549  16501577.2964   16501582.6174
  18663211.190    -9760660.47949  -7581726.17549  18663210.8184   18663215.7824
  15541715.276   -42296668.97949 -32936175.33149  15541714.7554   15541719.7624
 97  1 14  4 18 59.9810000  0  7 24 30 10  4  9  7  5
  14845902.745   -48876462.60849 -38065234.09549  14845902.3664   14845908.1834
  17877753.740   -18705787.76649 -14539249.09849  17877754.6684   17877758.3824
  18312682.417   -17412734.27449 -13531882.78749  18312681.8144   18312687.7364
  16081647.128   -47075537.86449 -36646006.12349  16081647.3274   16081651.8204
  16499895.608   -47864247.58349 -37258023.93449  16499895.0104   16499900.5934
  18663506.317    -9759110.23949  -7580518.16349  18663504.7054   18663511.2274
  15517933.301   -42421644.47349 -33033558.83049  15517932.9094   15517937.6234
 97  1 14  4 19 29.9810000  0  7 24 30 10  4  9  7  5
  14831120.883   -48954141.86749 -38125763.38149  14831120.7094   14831126.3284
  17846329.412   -18870923.86549 -14667926.56449  17846329.1634   17846334.0024
  18281644.221   -17575841.43849 -13658979.27049  18281643.6414   18281648.8584
  16081730.531   -47075099.45049 -36645664.50149  16081730.4904   16081735.2404
  16498292.866   -47872669.84449 -37264586.74849  16498292.6204   16498297.8004
  18663806.287    -9757532.51049  -7579288.80449  18663807.2554   18663812.8004
  15494216.400   -42546277.88849 -33130675.77249  15494215.9384   15494220.7734
 97  1 14  4 19 59.9810000  0  7 24 30 10  4  9  7  5
  14816426.030   -49031363.62749 -38185936.17749  14816425.7524   14816431.3144
  17814911.082   -19036029.60249 -14796580.40849  17814910.9144   17814915.8144
  18250613.401   -17738911.10949 -13786046.53749  18250611.3454   18250618.2814
  16081871.871   -47074356.91849 -36645085.90349  16081871.9324   16081876.2954
  16496764.119   -47880703.41849 -37270846.69649  16496763.6784   16496768.9904
  18664105.345    -9755961.87549  -7578064.94649  18664105.1294   18664110.6004
  15470559.225   -42670597.22049 -33227547.98149  15470558.5954   15470563.4474
 97  1 14  4 20 29.9810000  0  7 24 30 10  4  9  7  5
  14801805.885   -49108192.69749 -38245802.97749  14801805.4134   14801811.1234
  17783488.765   -19201154.52449 -14925249.16449  17783487.8384   17783493.0494
  18219576.739   -17902010.03849 -13913136.58649  18219575.8404   18219581.9664
  16082059.243   -47073372.38449 -36644318.72749  16082059.3324   16082063.8334
  16495296.330   -47888416.49449 -37276856.89249  16495295.9544   16495301.1704
  18664385.808    -9754488.99949  -7576917.23549  18664385.2554   18664392.2314
  15446946.240   -42794684.19749 -33324239.13149  15446945.4124   15446950.5624
 97  1 14  4 20 59.9810000  0  7 24 30 10  4  9  7  5
  14787267.537   -49184591.90549 -38305334.82749  14787267.2484   14787273.0144
  17752073.839   -19366241.40949 -15053888.32849  17752074.4454   17752078.2664
  18188544.415   -18065087.05649 -14040209.59449  18188543.6634   18188549.3194
  16082303.679   -47072088.33449 -36643318.16849  16082303.6934   16082308.3594
  16493897.004   -47895770.36249 -37282587.17949  16493896.2834   16493901.8384
  18664654.651    -9753076.83449  -7575816.91349  18664654.8884   18664660.6964
  15423379.951   -42918525.91049 -33420739.17649  15423379.2074   15423384.3854
 97  1 14  4 21 29.9810000  0  7 24 30 10  4  9  7  5
  14772798.876   -49260624.89049 -38364581.30249  14772798.4544   14772804.0934
  17720651.572   -19531367.62149 -15182558.09349  17720652.2984   17720655.0824
  18157501.497   -18228219.64249 -14167325.86949  18157500.3044   18157506.3274
  16082590.349   -47070581.98649 -36642144.38449  16082590.6544   16082594.9054
  16492546.626   -47902866.42649 -37288116.58649  16492546.2884   16492551.7754
  18664897.659    -9751800.53149  -7574822.43349  18664898.4704   18664901.7664
  15399842.098   -43042218.19349 -33517122.77749  15399841.6314   15399846.5814
 97  1 14  4 21 59.9810000  0  7 24 30 10  4  9  7  5
  14758413.432   -49336220.87949 -38423487.26249  14758413.0934   14758418.7784
  17689232.295   -19696476.77649 -15311214.58549  17689232.7894   17689236.4474
  18126454.641   -18391372.34849 -14294457.83649  18126453.4374   18126459.2354
  16082927.725   -47068809.37349 -36640763.11649  16082927.7114   16082931.9794
  16491249.898   -47909680.68149 -37293426.39349  16491249.6554   16491255.0724
  18665122.391    -9750620.46249  -7573902.84949  18665121.4554   18665127.9094
  15376342.184   -43165711.32749 -33613351.18849  15376341.4104   15376346.3744
 97  1 14  4 22 29.9810000  0  7 24 30 10  4  9  7  5
  14744118.008   -49411343.80649 -38482024.60149  14744117.3704   14744123.3514
  17657823.260   -19861532.84649 -15439829.70449  17657824.5824   17657828.1394
  18095407.945   -18554523.67749 -14421588.72649  18095406.5714   18095412.2544
  16083323.866   -47066727.89249 -36639141.17849  16083323.9474   16083328.4604
  16490011.512   -47916188.62049 -37298497.51949  16490011.4234   16490016.4264
  18665336.585    -9749495.12549  -7573026.04249  18665337.1864   18665340.6434
  15352886.872   -43288969.67849 -33709396.65149  15352886.2784   15352891.2534
 97  1 14  4 22 59.9810000  0  7 24 30 10  4  9  7  5
  14729912.551   -49485993.75949 -38540193.38949  14729911.9744   14729917.7784
  17626422.394   -20026545.67449 -15568411.13449  17626423.2714   17626426.7154
  18064362.859   -18717665.43049 -14548712.15249  18064361.5034   18064367.9414
  16083777.153   -47064345.95949 -36637285.12349  16083777.2034   16083781.5294
  16488831.726   -47922389.02849 -37303329.01449  16488831.7394   16488836.6304
  18665543.688    -9748407.52749  -7572178.57049  18665542.9344   18665548.8024
  15329479.550   -43411976.12449 -33805245.83549  15329478.6934   15329483.7814
 97  1 14  4 23 29.9810000  0  7 24 30 10  4  9  7  5
  14715791.094   -49560202.10849 -38598018.06849  14715790.4604   14715796.7064
  17595021.243   -20191560.05849 -15696993.76349  17595020.9104   17595025.4614
  18033311.336   -18880842.84349 -14675863.35449  18033310.8894   18033316.9424
  16084277.729   -47061715.05649 -36635235.06949  16084277.4964   16084282.1854
  16487702.599   -47928322.98349 -37307952.89049  16487702.4214   16487707.4984
  18665735.022    -9747402.35649  -7571395.34649  18665735.3404   18665739.6704
  15306115.480   -43534754.97049 -33900917.66449  15306114.9074   15306119.8884
 97  1 14  4 23 59.9810000  0  7 24 30 10  4  9  7  5
  14701755.578   -49633958.86849 -38655490.86249  14701755.3474   14701761.2674
  17563623.467   -20356555.76049 -15825561.85249  17563624.8464   17563628.3614
  18002257.890   -19044029.98549 -14803022.13449  18002256.9474   18002262.7584
  16084828.606   -47058819.89949 -36632979.10349  16084828.3654   16084832.7944
  16486632.167   -47933948.13949 -37312336.14149  16486632.0424   16486636.8474
  18665913.736    -9746463.90349  -7570664.09949  18665912.7284   18665918.2324
  15282801.572   -43657270.20149 -33996384.07449  15282800.7974   15282806.0394
 97  1 14  4 24 29.9810000  0  7 24 30 10  4  9  7  5
  14687800.991   -49707290.80449 -38712632.62249  14687800.9674   14687806.6994
  17532229.110   -20521534.24949 -15954116.52149  17532229.3204   17532233.5264
  17971204.402   -19207217.02849 -14930180.85249  17971202.5554   17971208.9904
  16085425.316   -47055683.91149 -36630535.47149  16085425.1924   16085429.8194
  16485621.959   -47939257.07349 -37316472.98349  16485622.0714   16485626.9314
  18666081.616    -9745582.19849  -7569977.05649  18666082.3504   18666086.3904
  15259537.905   -43779521.17649 -34091644.57349  15259537.4724   15259542.2314
 97  1 14  4 24 59.9810000  0  7 24 30 10  4  9  7  5
  14673916.479   -49780254.37649 -38769487.35149  14673916.4094   14673921.8144
  17500828.738   -20686545.35949 -16082696.62449  17500829.8984   17500832.8794
  17940141.797   -19370451.75849 -15057376.73449  17940141.7484   17940145.9244
  16086054.594   -47052376.88849 -36627958.57249  16086054.5464   16086059.0554
  16484660.595   -47944309.26649 -37320409.76949  16484660.3974   16484665.2234
  18666228.504    -9744811.27149  -7569376.38949  18666227.5404   18666232.6834
  15236315.516   -43901555.71949 -34186736.42549  15236314.9494   15236319.9074
 97  1 14  4 25 29.9810000  0  7 24 30 10  4  9  7  5
  14660109.946   -49852808.19349 -38826022.77949  14660109.4374   14660115.4634
  17469434.314   -20851524.23049 -16211251.57049  17469433.7434   17469438.8564
  17909079.881   -19533682.44349 -15184569.44049  17909079.0234   17909084.5034
  16086725.006   -47048853.96549 -36625213.43349  16086724.8524   16086729.8594
  16483755.471   -47949065.84049 -37324116.18249  16483754.7844   16483759.9344
  18666364.022    -9744098.29649  -7568820.80249  18666362.6864   18666367.7514
  15213146.036   -44023312.29349 -34281611.67949  15213145.5784   15213150.3144
 97  1 14  4 25 59.9810000  0  7 24 30 10  4  9  7  5
  14646357.175   -49925079.08449 -38882337.74749  14646356.5784   14646362.8014
  17438024.741   -21016582.12449 -16339868.11949  17438024.4274   17438028.5364
  17877997.929   -19697019.26149 -15311844.88649  17877997.0504   17878003.3064
  16087413.082   -47045238.20649 -36622395.95549  16087412.9964   16087417.4554
  16482882.603   -47953652.69649 -37327690.35149  16482881.9684   16482887.6244
  18666466.743    -9743557.43549  -7568399.41349  18666466.2044   18666471.4364
  15190010.800   -44144888.88449 -34376346.67749  15190010.2054   15190015.1374
 97  1 14  4 26 29.9810000  0  7 24 30 10  4  9  7  5
  14632660.361   -49997056.17949 -38938423.78949  14632659.8704   14632665.9904
  17406602.645   -21181706.79149 -16468536.69449  17406603.9894   17406607.0824
  17846894.983   -19860466.81049 -15439206.58849  17846894.8724   17846900.4294
  16088119.386   -47041525.99649 -36619503.33249  16088119.1874   16088124.2764
  16482038.681   -47958086.98749 -37331145.64349  16482038.6224   16482043.4434
  18666538.392    -9743181.43249  -7568106.45949  18666538.1254   18666540.9914
  15166909.712   -44266286.19049 -34470941.98549  15166909.1874   15166914.0984
 97  1 14  4 26 59.9810000  0  7 24 30 10  4  9  7  5
  14619014.287   -50068766.74449 -38994302.14649  14619014.0974   14619019.5444
  17375161.447   -21346931.58749 -16597283.28949  17375161.1264   17375165.4704
  17815762.067   -20024071.42949 -15566690.67349  17815761.2754   17815766.9804
  16088838.743   -47037745.26049 -36616557.30349  16088838.8394   16088843.6414
  16481215.241   -47962414.31749 -37334517.58749  16481214.7024   16481219.8524
  18666568.374    -9743023.12449  -7567983.05849  18666567.7444   18666570.5354
  15143833.441   -44387552.98549 -34565435.59349  15143832.8134   15143837.8874
 97  1 14  4 27 29.9810000  0  7 24 30 10  4  9  7  5
  14605418.627   -50140212.86349 -39049974.43949  14605418.6294   14605424.3764
  17343702.108   -21512251.87749 -16726104.29549  17343701.7454   17343706.2744
  17784598.897   -20187834.55449 -15694298.28949  17784598.4194   17784604.8704
  16089571.111   -47033896.38749 -36613558.19149  16089570.7824   16089575.8964
  16480412.651   -47966632.20349 -37337804.26749  16480412.3684   16480417.5064
  18666555.399    -9743091.21549  -7568036.13449  18666555.5424   18666560.1664
  15120780.288   -44508698.19249 -34659834.45149  15120779.7924   15120784.4704
 97  1 14  4 27 59.9810000  0  7 24 30 10  4  9  7  5
  14591908.765   -50211208.32149 -39105295.56449  14591908.4524   14591914.1804
  17312257.991   -21677491.15349 -16854862.16049  17312258.4034   17312261.9704
  17753439.719   -20351577.20549 -15821889.91049  17753439.4904   17753444.3184
  16090351.852   -47029793.25349 -36610360.94949  16090351.7414   16090356.5294
  16479666.220   -47970554.11649 -37340860.30449  16479665.5254   16479670.5834
  18666533.874    -9743203.50749  -7568123.62949  18666532.9384   18666538.1714
  15097781.258   -44629559.21849 -34754011.87349  15097780.5244   15097785.4544
 97  1 14  4 28 29.9810000  0  7 24 30 10  4  9  7  5
  14578486.125   -50281744.77049 -39160259.01549  14578486.0244   14578491.8014
  17280831.357   -21842639.21449 -16983548.95749  17280831.9994   17280835.4244
  17722287.857   -20515282.54049 -15949452.50049  17722287.0964   17722293.1544
  16091182.995   -47025425.14949 -36606957.23049  16091183.0664   16091188.0304
  16478979.463   -47974162.72549 -37343672.21849  16478979.4504   16478984.1084
  18666506.109    -9743347.70649  -7568236.06649  18666505.9574   18666510.8644
  15074834.479   -44750144.88849 -34847974.71949  15074833.6004   15074838.9384
 97  1 14  4 28 59.9800000  0  7 24 30 10  4  9  7  5
  14565149.186   -50351830.99549 -39214871.65949  14565149.0674   14565154.6554
  17249418.951   -22007712.26649 -17112177.30349  17249419.1464   17249423.7274
  17691144.838   -20678939.98449 -16076977.75349  17691144.0264   17691149.8204
  16092063.042   -47020800.56649 -36603353.66649  16092062.9274   16092067.5244
  16478351.497   -47977463.44049 -37346244.21549  16478351.8644   16478356.4744
  18666470.119    -9743537.69749  -7568384.12949  18666468.5134   18666474.3584
  15051940.286   -44870454.24849 -34941722.27749  15051939.5894   15051944.6684
 97  1 14  4 29 29.9800000  0  7 24 30 10  4  9  7  5
  14551863.093   -50421650.05349 -39269276.10649  14551862.3854   14551868.6884
  17217984.922   -22172898.79649 -17240894.06549  17217985.0374   17217990.4914
  17659980.949   -20842708.07949 -16204589.24249  17659980.5704   17659985.5964
  16092959.215   -47016090.96249 -36599683.84749  16092959.2464   16092964.1184
  16477747.860   -47980636.20749 -37348716.50849  16477747.3334   16477752.9114
  18666394.622    -9743933.81849  -7568692.78149  18666395.2434   18666397.5904
  15029067.481   -44990651.66849 -35035382.59449  15029066.8344   15029071.8774
 97  1 14  4 29 59.9800000  0  7 24 30 10  4  9  7  5
  14538621.973   -50491232.03449 -39323495.82549  14538621.5724   14538627.5604
  17186523.570   -22338229.09449 -17369722.85449  17186523.4074   17186527.8874
  17628793.339   -21006600.52149 -16332297.61549  17628792.7714   17628798.1214
  16093866.324   -47011323.90049 -36595969.25249  16093866.6884   16093870.9354
  16477160.341   -47983723.54749 -37351122.23749  16477159.7104   16477164.9064
  18666274.771    -9744564.50749  -7569184.18249  18666273.4984   18666279.5444
  15006210.570   -45110765.44049 -35128977.73149  15006209.9374   15006215.0754
 97  1 14  4 30 29.9800000  0  7 24 30 10  4  9  7  5
  14525433.122   -50560539.66049 -39377501.76049  14525432.7124   14525438.7554
  17155042.225   -22503664.64249 -17498633.64849  17155042.5914   17155046.0334
  17597589.917   -21170575.71449 -16460070.47049  17597588.6934   17597594.6264
  16094791.399   -47006462.58549 -36592181.21449  16094791.4584   16094796.5614
  16476594.565   -47986696.50749 -37353438.82949  16476594.4814   16476599.1154
  18666117.427    -9745391.37249  -7569828.52449  18666116.3474   18666121.4214
  14983380.436   -45230738.73649 -35222463.41049  14983379.6324   14983384.6074
 97  1 14  4 30 59.9800000  0  6 24 30 10  4  9  5
  14512314.342   -50629479.14549 -39431220.83649  14512314.2444   14512320.0584
  17123561.225   -22669098.17749 -17627542.87049  17123561.3854   17123565.3864
  17566387.720   -21334544.23649 -16587838.12049  17566386.4444   17566392.6784
  16095753.189   -47001407.82949 -36588242.44249  16095753.3124   16095758.0824
  16476065.939   -47989475.07549 -37355603.96249  16476065.5874   16476070.2204
  14960597.231   -45350465.10549 -35315756.68149  14960596.8744   14960601.5094
 97  1 14  4 31 29.9800000  0  6 24 30 10  4  9  5
  14499288.587   -50697930.52649 -39484559.56749  14499288.3224   14499294.3734
  17092107.569   -22834388.31449 -17756340.36149  17092107.9704   17092112.0804
  17535209.128   -21498388.74749 -16715509.14349  17535208.2684   17535213.4934
  16096775.777   -46996033.75249 -36584054.85149  16096775.7244   16096780.6504
  16475599.451   -47991926.86649 -37357514.46349  16475599.5004   16475604.0194
  14937885.750   -45469815.13349 -35408756.70049  14937884.9574   14937890.1164
 97  1 14  4 31 59.9800000  0  6 24 30 10  4  9  5
  14486363.281   -50765853.55449 -39537486.60249  14486363.0704   14486368.8734
  17060689.430   -22999491.85449 -17884992.45549  17060690.0804   17060693.4924
  17504057.044   -21662094.04949 -16843071.70349  17504055.9944   17504061.8214
  16097866.487   -46990302.00249 -36579588.55649  16097866.4594   16097871.1244
  16475204.896   -47994000.12349 -37359129.99349  16475204.9434   16475209.6904
  14915253.139   -45588749.98749 -35501433.20849  14915252.2764   14915257.4874
 97  1 14  4 32 29.9800000  0  6 24 30 10  4  9  5
  14473514.083   -50833376.35049 -39590101.76449  14473513.6654   14473519.5004
  17029282.487   -23164536.56749 -18013598.70649  17029282.4734   17029286.0504
  17472907.191   -21825788.71849 -16970625.96449  17472905.4894   17472911.4814
  16098996.670   -46984362.82249 -36574960.62349  16098996.8564   16099001.4704
  16474859.826   -47995813.89249 -37360543.32349  16474859.1324   16474864.5414
  14892677.467   -45707385.96749 -35593876.82349  14892676.8844   14892681.6744
 97  1 14  4 32 59.9800000  0  6 24 30 10  4  9  5
  14460738.440   -50900513.07149 -39642416.08949  14460738.1594   14460743.7264
  16997882.193   -23329546.39249 -18142177.78049  16997881.6714   16997885.7474
  17441758.192   -21989477.20149 -17098175.42249  17441756.4234   17441762.2054
  16100160.324   -46978247.95949 -36570195.80249  16100160.5014   16100165.4644
  16474561.662   -47997381.18249 -37361764.60049  16474561.6484   16474565.9834
  14870153.581   -45825750.10849 -35686108.62349  14870152.9674   14870157.7274
 97  1 14  4 33 29.9800000  0  6 24 30 10  4  9  5
  14448029.789   -50967297.17249 -39694455.64249  14448029.7174   14448035.3264
  16966480.760   -23494561.77549 -18270761.19049  16966480.4504   16966484.9294
  17410608.349   -22153169.56549 -17225727.90749  17410607.1184   17410612.7864
  16101349.138   -46972001.12749 -36565328.13749  16101348.9984   16101354.0574
  16474306.636   -47998721.44749 -37362808.96549  16474306.6454   16474310.6154
  14847675.439   -45943873.73649 -35778153.00149  14847674.7094   14847679.5944
 97  1 14  4 33 59.9800000  0  6 24 30 10  4  9  5
  14435387.632   -51033732.32949 -39746223.29149  14435387.4094   14435393.0944
  16935077.264   -23659587.88649 -18399352.94049  16935077.6704   16935081.8674
  17379461.426   -22316847.33149 -17353269.02549  17379460.3304   17379465.9214
  16102559.632   -46965640.21549 -36560371.58449  16102559.9804   16102564.2374
  16474091.278   -47999853.76749 -37363691.29049  16474091.4544   16474096.0824
  14825241.593   -46061764.10849 -35870015.61549  14825240.8794   14825245.7654
 97  1 14  4 34 29.9800000  0  7 24 30 10  4  9  5  6
  14422783.012   -51099970.08949 -39797837.12349  14422782.3064   14422788.3784
  16903643.939   -23824771.53449 -18528067.46649  16903643.5014   16903647.9044
  17348291.106   -22480648.82149 -17480906.54649  17348290.3394   17348295.6434
  16103763.045   -46959316.74049 -36555444.19749  16103763.0474   16103768.1774
  16473882.174   -48000952.08549 -37364547.11749  16473881.7194   16473886.3124
  14802824.477   -46179566.77849 -35961809.89849  14802823.7184   14802828.5114
  18953933.258    18953944.477                                    18954014.0764
 97  1 14  4 34 59.9800000  0  7 24 30 10  4  9  5  6
  14410219.058   -51165993.54349 -39849283.96849  14410218.4534   14410224.5364
  16872188.745   -23990069.59349 -18656871.14649  16872188.6774   16872193.6844
  17317101.609   -22644551.19649 -17608622.66249  17317101.2804   17317106.1704
  16104969.635   -46952976.41049 -36550503.67949  16104969.8314   16104974.2034
  16473682.290   -48002001.75849 -37365365.05549  16473681.7874   16473687.1864
  14780428.184   -46297259.71949 -36053518.67549  14780427.4834   14780432.4104
  18926420.405    18926433.783                                    18926425.5054
 97  1 14  4 35 29.9800000  0  7 24 30 10  4  9  5  6
  14397736.212   -51231591.26949 -39900399.07949  14397735.9354   14397741.9684
  16840756.629   -24155246.46049 -18785580.38749  16840756.2174   16840760.9164
  17285931.679   -22808350.50349 -17736258.46749  17285930.2404   17285936.6884
  16106220.606   -46946402.54649 -36545381.19349  16106220.9854   16106225.4164
  16473529.619   -48002804.38849 -37365990.51049  16473529.7934   16473534.6554
  14758095.148   -46414620.60449 -36144968.71449  14758094.6544   14758099.5034
  18898907.824     -256334.28359  18898905.220                    18898911.3234
 97  1 14  4 35 59.9800000  0  7 24 30 10  4  9  5  6
  14385317.223   -51296853.85849 -39951253.04249  14385317.2724   14385322.6854
  16809330.291   -24320392.82749 -18914265.87049  16809330.3534   16809334.6164
  17254757.141   -22972173.37249 -17863912.61949  17254757.2504   17254761.6294
  16107497.005   -46939695.25649 -36540154.72949  16107497.0224   16107501.5784
  16473399.986   -48003485.56949 -37366521.29949  16473399.7734   16473405.0184
  14735806.147   -46531750.57149 -36236238.81149  14735805.7744   14735810.3214
  18871371.324     -517648.01059   -369099.06549  18871369.8534   18871375.5454
 97  1 14  4 36 29.9800000  0  7 24 30 10  4  9  5  6
  14372975.261   -51361711.65349 -40001791.57649  14372974.9664   14372980.4184
  16777924.220   -24485433.16349 -19042868.71649  16777923.9154   16777928.6914
  17223589.555   -23135960.73449 -17991539.10549  17223588.6084   17223594.2354
  16108811.872   -46932785.80549 -36534770.74149  16108811.8524   16108816.1824
  16473307.758   -48003969.81949 -37366898.64449  16473306.6874   16473312.7424
  14713573.761   -46648582.71749 -36327276.84349  14713573.3454   14713577.9994
  18843822.477     -662420.51049   -481908.84649  18843819.7954   18843825.1214
 97  1 14  4 36 59.9800000  0  7 24 30 10  4  9  5  6
  14360705.731   -51426188.45849 -40052033.23349  14360705.4804   14360711.2154
  16746535.027   -24650384.77149 -19171402.42949  16746535.0754   16746539.1184
  17192428.249   -23299714.99049 -18119139.79349  17192427.1304   17192432.9864
  16110157.705   -46925713.38649 -36529259.76749  16110157.5604   16110162.3744
  16473251.430   -48004265.43549 -37367129.00549  16473250.9864   16473255.9924
  14691395.003   -46765132.86649 -36418095.13549  14691394.2794   14691399.1024
  18816260.033     -807255.18949   -594767.01649  18816258.9154   18816263.9984
 97  1 14  4 37 29.9800000  0  7 24 30 10  4  9  5  6
  14348496.287   -51490349.67449 -40102028.97749  14348496.1934   14348501.6804
  16715146.543   -24815332.00549 -19299932.72749  16715146.5054   16715151.2864
  17161261.298   -23463498.72549 -18246763.45949  17161260.2574   17161265.1594
  16111515.931   -46918575.99049 -36523698.16049  16111516.0704   16111520.7824
  16473216.185   -48004451.15149 -37367273.73349  16473215.8804   16473221.1564
  14669259.060   -46881457.82649 -36508737.96749  14669258.3844   14669263.1564
  18788675.495     -952212.40049   -707720.71549  18788675.1914   18788679.3544
 97  1 14  4 37 59.9800000  0  7 24 30 10  4  9  5  6
  14336338.737   -51554238.11249 -40151812.17149  14336338.8294   14336344.1184
  16683750.393   -24980320.24349 -19428494.98849  16683750.7704   16683754.5524
  17130086.440   -23627323.09649 -18374418.81249  17130085.1094   17130091.2264
  16112882.309   -46911395.85649 -36518103.25949  16112882.2244   16112887.0934
  16473197.607   -48004549.15649 -37367350.11549  16473197.8624   16473201.8454
  14647159.836   -46997590.06849 -36599230.63149  14647159.5124   14647164.0434
  18761059.419    -1097334.82249   -820803.14249  18761058.1304   18761064.2854
 97  1 14  4 38 29.9800000  0  7 24 30 10  4  9  5  6
  14324239.174   -51617822.01149 -40201358.05749  14324238.9964   14324244.7504
  16652352.216   -25145318.79049 -19557065.26449  16652351.7074   16652356.4664
  17098918.395   -23791112.66349 -18502047.02849  17098916.8264   17098922.3714
  16114265.673   -46904126.18649 -36512438.57749  16114265.2264   16114270.3414
  16473206.537   -48004502.50249 -37367313.77349  16473206.0174   16473211.1084
  14625107.859   -47113474.26449 -36689530.00149  14625107.1994   14625111.9644
  18733418.830    -1242585.81149   -933985.74249  18733418.9144   18733423.1134
 97  1 14  4 38 59.9800000  0  7 24 30 10  4  9  5  6
  14312215.754   -51681006.01049 -40250592.33749  14312215.8494   14312221.1164
  16620968.452   -25310241.26349 -19685576.26649  16620968.9234   16620972.8224
  17067776.241   -23954764.86649 -18629568.21249  17067774.6254   17067780.4684
  16115685.717   -46896663.51349 -36506623.51449  16115685.7634   16115690.4104
  16473258.604   -48004228.98749 -37367100.66449  16473258.2414   16473263.2784
  14603122.198   -47229009.61249 -36779557.54349  14603121.4394   14603126.3094
  18705770.027    -1387881.17949  -1047202.92949  18705769.1454   18705774.3184
 97  1 14  4 39 29.9800000  0  7 24 30 10  4  9  5  6
  14300248.883   -51743892.94749 -40299595.13449  14300248.7344   14300253.8234
  16589579.386   -25475191.68749 -19814109.04649  16589579.9634   16589583.9734
  17036637.448   -24118399.42949 -18757075.64349  17036636.6524   17036642.1044
  16117124.444   -46889102.97649 -36500732.19249  16117124.5874   16117129.0554
  16473332.985   -48003838.02449 -37366796.02849  16473333.0094   16473337.8794
  14581177.328   -47344330.53749 -36869418.00249  14581176.3624   14581181.3014
  18678090.364    -1533338.44449  -1160546.25649  18678090.5074   18678094.8944
 97  1 14  4 39 59.9790000  0  7 24 30 10  4  9  5  6
  14288354.334   -51806398.99149 -40348301.13249  14288354.0484   14288359.4284
  16558201.376   -25640083.53649 -19942596.18349  16558201.3164   16558206.0454
  17005516.854   -24281938.66849 -18884508.81249  17005516.2464   17005521.7744
  16118597.802   -46881360.44249 -36494699.04949  16118598.0674   16118602.7854
  16473448.771   -48003230.61949 -37366322.74249  16473448.7594   16473453.4014
  14559284.984   -47459375.30049 -36959063.26449  14559284.1974   14559289.1124
  18650393.753    -1678886.19449  -1273960.10249  18650393.4014   18650398.1844
 97  1 14  4 40 29.9790000  0  7 24 30 10  4  9  5  6
  14276530.536   -51868533.07249 -40396717.29349  14276529.9944   14276535.7334
  16526831.743   -25804931.85249 -20071049.40549  16526831.7824   16526835.9724
  16974407.056   -24445422.32849 -19011898.66149  16974406.1234   16974411.8604
  16120099.416   -46873469.38849 -36488550.18249  16120099.4874   16120104.1304
  16473603.432   -48002418.06749 -37365689.60149  16473602.8824   16473607.3864
  14537441.293   -47574164.70449 -37048509.55349  14537440.8694   14537445.6654
  18622674.514    -1824551.20149  -1387465.32849  18622673.6914   18622679.0304
 97  1 14  4 40 59.9790000  0  7 24 30 10  4  9  5  6
  14264774.371   -51930311.96649 -40444856.68549  14264774.3224   14264779.9054
  16495472.328   -25969726.95749 -20199461.16449  16495472.2924   16495476.6304
  16943302.640   -24608876.56749 -19139265.59449  16943301.4864   16943307.1744
  16121623.171   -46865461.83949 -36482310.54049  16121623.0334   16121627.7894
  16473794.270   -48001414.88149 -37364907.89649  16473793.8804   16473799.1894
  14515642.737   -47688716.81649 -37137770.93549  14515642.0604   14515646.9394
  18594933.436    -1970332.32049  -1501060.98249  18594932.3664   18594937.5904
 97  1 14  4 41 29.9790000  0  7 24 30 10  4  9  5  6
  14253117.001   -51991571.84449 -40492591.64749  14253116.7134   14253122.4104
  16464154.897   -26134300.96449 -20327700.61549  16464154.9834   16464159.7984
  16912235.723   -24772134.35149 -19266479.43849  16912234.4444   16912240.1364
  16123197.770   -46857187.41749 -36475862.94049  16123197.9624   16123202.4424
  16474052.865   -48000055.47249 -37363848.62549  16474051.8514   16474057.5084
  14493923.366   -47802852.81149 -37226708.07249  14493922.5164   14493927.5714
  18567203.153    -2116054.79449  -1614610.96549  18567201.7744   18567207.3914
 97  1 14  4 41 59.9790000  0  7 24 30 10  4  9  5  6
  14241525.862   -52052483.37849 -40540055.17849  14241525.4174   14241531.0654
  16432849.263   -26298812.85849 -20455891.68449  16432848.7664   16432853.8864
  16881177.361   -24935346.82849 -19393657.99049  16881176.4254   16881182.5084
  16124791.323   -46848813.45849 -36469337.78449  16124791.3594   16124795.8894
  16474344.459   -47998523.04349 -37362654.54749  16474344.2094   16474348.8754
  14472261.119   -47916688.46949 -37315411.18149  14472260.3834   14472265.3624
  18539453.410    -2261880.45849  -1728241.32949  18539452.5644   18539457.5844
 97  1 14  4 42 29.9790000  0  7 24 30 10  4  9  5  6
  14230014.948   -52112973.69249 -40587190.48649  14230014.5264   14230020.2284
  16401572.645   -26463172.96449 -20583964.48849  16401572.3484   16401576.7344
  16850144.771   -25098423.26649 -19520730.53749  16850143.6484   16850149.3214
  16126417.104   -46840269.87649 -36462680.45249  16126417.4634   16126421.8194
  16474677.131   -47996774.68649 -37361292.19949  16474677.0984   16474682.1334
  14450674.513   -48030126.77549 -37403804.66849  14450674.0374   14450678.8354
  18511700.446    -2407721.86049  -1841883.96949  18511699.6974   18511705.5404
 97  1 14  4 42 59.9790000  0  7 24 30 10  4  9  5  6
  14218556.825   -52173186.48049 -40634109.54049  14218556.4884   14218562.1674
  16370298.949   -26627517.38549 -20712025.05649  16370298.7184   16370303.7374
  16819114.603   -25261487.75749 -19647793.77349  16819114.4394   16819120.0284
  16128049.308   -46831692.98349 -36455997.15749  16128049.3544   16128053.8214
  16475020.272   -47994971.16249 -37359886.85549  16475019.7914   16475025.1424
  14429137.536   -48143304.35849 -37491995.00149  14429136.8864   14429141.6584
  18483919.579    -2553710.20849  -1955641.09049  18483920.1784   18483923.1584
 97  1 14  4 43 29.9790000  0  7 24 30 10  4  9  5  6
  14207176.990   -52232988.07749 -40680708.17949  14207176.8464   14207182.2924
  16339052.595   -26791717.91649 -20839973.51249  16339052.2794   16339056.8894
  16788113.189   -25424401.63549 -19774739.64549  16788111.8224   16788117.5714
  16129715.407   -46822937.54749 -36449174.73449  16129715.2704   16129720.2154
  16475396.370   -47992993.60549 -37358345.88449  16475395.6414   16475401.3384
  14407675.583   -48256087.46449 -37579877.93649  14407674.9544   14407679.9634
  18456135.055    -2699718.78349  -2069413.99849  18456135.0844   18456139.9704
 97  1 14  4 43 59.9790000  0  7 24 30 10  4  9  5  6
  14195843.664   -52292545.45449 -40727116.51349  14195843.4924   14195848.7414
  16307806.941   -26955914.89649 -20967919.21249  16307807.7004   16307811.3704
  16757111.004   -25587318.95949 -19901688.20149  16757110.0444   16757115.0884
  16131387.316   -46814151.34549 -36442328.34449  16131387.1834   16131391.6384
  16475778.768   -47990984.34149 -37356780.22549  16475778.6264   16475783.7524
  14386255.956   -48368648.37349 -37667587.73449  14386255.5034   14386260.3064
  18428315.430    -2845912.59849  -2183331.24149  18428315.3934   18428320.4364
 97  1 14  4 44 29.9790000  0  7 24 30 10  4  9  5  6
  14184580.583   -52351733.65249 -40773237.18249  14184580.4094   14184585.6024
  16276586.126   -27119981.59549 -21095763.38549  16276586.1744   16276590.4254
  16726133.174   -25750109.42749 -20028537.90149  16726132.3704   16726137.3194
  16133088.348   -46805211.95849 -36435362.58549  16133088.4154   16133092.8034
  16476195.806   -47988793.21549 -37355072.87249  16476195.6974   16476201.5544
  14364896.954   -48480890.59449 -37755049.20549  14364896.3994   14364901.3454
  18400484.039    -2992167.35049  -2297295.90349  18400482.3314   18400489.7834
 97  1 14  4 44 59.9790000  0  7 24 30 10  4  9  5  6
  14173391.639   -52410532.17049 -40819054.20649  14173391.3754   14173396.8084
  16245393.337   -27283900.57349 -21223492.46049  16245393.1584   16245397.7894
  16695186.642   -25912735.52949 -20155259.51949  16695186.2634   16695190.7734
  16134824.226   -46796089.54049 -36428254.20549  16134824.4234   16134828.7564
  16476658.015   -47986363.84049 -37353179.85549  16476657.8574   16476662.7634
  14343604.108   -48592785.54249 -37842240.08049  14343603.5504   14343608.4484
  18372644.974    -3138461.21149  -2411291.14049  18372643.0644   18372650.7844
 97  1 14  4 45 29.9790000  0  7 24 30 10  4  9  5  6
  14162279.502   -52468926.87849 -40864556.56749  14162279.1484   14162284.5694
  16214230.742   -27447660.95149 -21351097.95149  16214231.1414   16214235.6614
  16664274.591   -26075179.30849 -20281839.07149  16664273.8834   16664279.0244
  16136599.012   -46786763.33249 -36420987.02449  16136598.9854   16136603.8254
  16477170.822   -47983668.51449 -37351079.61949  16477170.2924   16477176.2054
  14322381.157   -48704312.85749 -37929144.48449  14322380.6424   14322385.4494
  18344800.538    -3284783.16149  -2525308.18949  18344799.6004   18344806.2474
 97  1 14  4 45 59.9790000  0  7 24 30 10  4  9  5  6
  14151266.249   -52526801.98249 -40909654.04649  14151265.8534   14151271.5164
  16183119.594   -27611151.38149 -21478493.09249  16183119.6994   16183124.2114
  16633422.219   -26237310.00549 -20408174.67049  16633421.3724   16633426.5184
  16138431.411   -46777133.85049 -36413483.53149  16138431.4964   16138435.8584
  16477754.912   -47980599.69849 -37348688.34549  16477755.5474   16477760.1964
  14301249.472   -48815360.43149 -38015675.06249  14301249.0514   14301253.8264
  18316973.113    -3431017.43349  -2639256.92749  18316972.6244   18316978.8014
 97  1 14  4 46 29.9790000  0  7 24 30 10  4  9  5  6
  14140325.568   -52584295.35149 -40954454.06749  14140325.3464   14140330.9804
  16152027.435   -27774541.58249 -21605810.12949  16152027.8644   16152032.2154
  16602600.480   -26399279.05249 -20534384.29149  16602599.3504   16602605.0074
  16140289.225   -46767371.31549 -36405876.35949  16140289.5204   16140293.7804
  16478376.062   -47977335.51349 -37346144.84049  16478376.1484   16478381.6414
  14280181.603   -48926073.19149 -38101944.75349  14280181.1964   14280185.9374
  18289135.385    -3577305.48749  -2753247.61249  18289136.1154   18289142.3614
 97  1 14  4 46 59.9790000  0  7 24 30 10  4  9  5  6
  14129436.767   -52641516.16949 -40999041.71549  14129436.3754   14129442.0064
  16120935.074   -27937933.38549 -21733128.41749  16120935.3994   16120939.9214
  16571787.607   -26561201.74249 -20660557.80649  16571786.8014   16571792.1274
  16142150.742   -46757589.25149 -36398253.96849  16142150.9014   16142155.8504
  16479007.351   -47974018.19049 -37343559.92449  16479007.4814   16479012.6694
  14259159.412   -49036545.58749 -38188027.13649  14259159.0904   14259163.8724
  18261266.508    -3723757.02449  -2867365.65849  18261266.3284   18261271.3504
 97  1 14  4 47 29.9790000  0  7 24 30 10  4  9  5  6
  14118620.931   -52698353.68249 -41043330.68549  14118620.7924   14118626.3434
  16089866.042   -28101202.16349 -21860350.84449  16089866.0774   16089870.6154
  16541000.842   -26722987.18149 -20786624.37849  16540999.7644   16541004.7054
  16144035.351   -46747685.54549 -36390536.79249  16144035.6074   16144040.2964
  16479662.837   -47970574.15349 -37340876.26849  16479661.9874   16479668.2734
  14238201.549   -49146679.93849 -38273846.10549  14238200.9294   14238205.8314
  18233386.776    -3870266.12049  -2981528.56349  18233385.9604   18233392.9984
 97  1 14  4 47 59.9790000  0  7 24 30 10  4  9  5  6
  14107904.610   -52754668.56749 -41087212.41049  14107904.4414   14107909.6744
  16058848.832   -28264199.02849 -21987361.39449  16058848.8304   16058853.4644
  16510264.171   -26884509.12549 -20912485.62049  16510262.7034   16510267.9104
  16145964.790   -46737546.46749 -36382636.21449  16145964.8614   16145969.4974
  16480365.039   -47966883.51349 -37338000.45849  16480364.5514   16480370.2734
  14217332.800   -49256345.48049 -38359299.77449  14217332.1664   14217337.1354
  18205521.624    -4016697.90849  -3095631.24649  18205521.2404   18205526.7644
 97  1 14  4 48 29.9790000  0  7 24 30 10  4  9  5  6
  14097287.958   -52810459.59049 -41130685.93649  14097287.6214   14097293.1844
  16027887.587   -28426901.50349 -22114142.54949  16027887.6744   16027892.1824
  16479575.830   -27045777.50949 -21038149.27949  16479574.0284   16479580.3244
  16147940.004   -46727166.78049 -36374548.14649  16147940.0144   16147945.0844
  16481115.986   -47962937.11449 -37334925.35749  16481116.2814   16481121.5914
  14196556.958   -49365523.09049 -38444373.24149  14196556.3094   14196561.2684
  18177670.963    -4163055.09649  -3209675.77749  18177671.4804   18177676.1034
